Wetterdaten: Sonntag, 09.04.2017
Datum Zeit Temp. A. Feuchte A. Luftdruck Regen Wind Richtung Richtung Sonnenschein ET UV Solar Taupunkt Windchill Windben Empfang
09.04.2017 00:00 8,9 C 88 % 1023,0 hPa 0,0 l/m 5,4 km/h (1 Bft) O-NO 68 0 min 0,000 mm 0,0 UV-I 0 W/m 7,0 C 8,9 C 8,0 km/h (2 Bft) 98,21 %
09.04.2017 00:02 8,9 C 88 % 1023,0 hPa 0,0 l/m 6,7 km/h (2 Bft) O-NO 72 0 min 0,000 mm 0,0 UV-I 0 W/m 7,0 C 8,7 C 11,3 km/h (2 Bft) 95,65 %
09.04.2017 00:04 8,9 C 89 % 1023,0 hPa 0,0 l/m 6,9 km/h (2 Bft) O-NO 68 0 min 0,000 mm 0,0 UV-I 0 W/m 7,2 C 8,5 C 9,7 km/h (2 Bft) 97,37 %
09.04.2017 00:06 8,9 C 89 % 1023,0 hPa 0,0 l/m 6,3 km/h (2 Bft) O-NO 66 0 min 0,000 mm 0,0 UV-I 0 W/m 7,2 C 8,9 C 9,7 km/h (2 Bft) 98,00 %
09.04.2017 00:08 8,8 C 89 % 1023,1 hPa 0,0 l/m 6,9 km/h (2 Bft) O-NO 65 0 min 0,000 mm 0,0 UV-I 0 W/m 7,1 C 8,4 C 9,7 km/h (2 Bft) 96,23 %
09.04.2017 00:10 8,8 C 89 % 1023,1 hPa 0,0 l/m 7,5 km/h (2 Bft) O-NO 72 0 min 0,000 mm 0,0 UV-I 0 W/m 7,1 C 8,0 C 11,3 km/h (2 Bft) 97,56 %
09.04.2017 00:12 8,8 C 89 % 1023,1 hPa 0,0 l/m 7,6 km/h (2 Bft) O-NO 74 0 min 0,000 mm 0,0 UV-I 0 W/m 7,1 C 7,9 C 11,3 km/h (2 Bft) 96,23 %
09.04.2017 00:14 8,8 C 89 % 1023,1 hPa 0,0 l/m 6,7 km/h (2 Bft) O-NO 65 0 min 0,000 mm 0,0 UV-I 0 W/m 7,1 C 8,6 C 11,3 km/h (2 Bft) 97,37 %
09.04.2017 00:16 8,8 C 89 % 1023,1 hPa 0,0 l/m 5,0 km/h (1 Bft) O-NO 67 0 min 0,000 mm 0,0 UV-I 0 W/m 7,1 C 8,8 C 8,0 km/h (2 Bft) 98,11 %
09.04.2017 00:18 8,8 C 89 % 1023,2 hPa 0,0 l/m 5,8 km/h (2 Bft) NO 55 0 min 0,000 mm 0,0 UV-I 0 W/m 7,1 C 8,8 C 8,0 km/h (2 Bft) 97,87 %
09.04.2017 00:20 8,8 C 89 % 1023,2 hPa 0,0 l/m 6,0 km/h (2 Bft) NO 51 0 min 0,000 mm 0,0 UV-I 0 W/m 7,1 C 8,8 C 8,0 km/h (2 Bft) 97,56 %
09.04.2017 00:22 8,8 C 89 % 1023,2 hPa 0,0 l/m 6,3 km/h (2 Bft) NO 56 0 min 0,000 mm 0,0 UV-I 0 W/m 7,1 C 8,8 C 9,7 km/h (2 Bft) 97,62 %
09.04.2017 00:24 8,8 C 89 % 1023,2 hPa 0,0 l/m 6,2 km/h (2 Bft) O-NO 61 0 min 0,000 mm 0,0 UV-I 0 W/m 7,1 C 8,8 C 8,0 km/h (2 Bft) 98,08 %
09.04.2017 00:26 8,7 C 89 % 1023,3 hPa 0,0 l/m 6,7 km/h (2 Bft) NO 55 0 min 0,000 mm 0,0 UV-I 0 W/m 7,0 C 8,5 C 8,0 km/h (2 Bft) 98,00 %
09.04.2017 00:28 8,7 C 89 % 1023,3 hPa 0,0 l/m 6,8 km/h (2 Bft) O-NO 66 0 min 0,000 mm 0,0 UV-I 0 W/m 7,0 C 8,4 C 9,7 km/h (2 Bft) 97,62 %
09.04.2017 00:30 8,6 C 89 % 1023,3 hPa 0,0 l/m 6,3 km/h (2 Bft) O-NO 68 0 min 0,000 mm 0,0 UV-I 0 W/m 6,9 C 8,6 C 8,0 km/h (2 Bft) 98,11 %
09.04.2017 00:32 8,6 C 89 % 1023,3 hPa 0,0 l/m 6,1 km/h (2 Bft) O-NO 61 0 min 0,000 mm 0,0 UV-I 0 W/m 6,9 C 8,6 C 8,0 km/h (2 Bft) 98,00 %
09.04.2017 00:34 8,5 C 90 % 1023,3 hPa 0,0 l/m 5,4 km/h (1 Bft) O-NO 67 0 min 0,000 mm 0,0 UV-I 0 W/m 7,0 C 8,5 C 8,0 km/h (2 Bft) 97,37 %
09.04.2017 00:36 8,4 C 90 % 1023,3 hPa 0,0 l/m 6,2 km/h (2 Bft) O-NO 58 0 min 0,000 mm 0,0 UV-I 0 W/m 6,9 C 8,4 C 8,0 km/h (2 Bft) 97,73 %
09.04.2017 00:38 8,4 C 90 % 1023,3 hPa 0,0 l/m 6,5 km/h (2 Bft) O-NO 61 0 min 0,000 mm 0,0 UV-I 0 W/m 6,9 C 8,3 C 9,7 km/h (2 Bft) 98,11 %
09.04.2017 00:40 8,4 C 90 % 1023,3 hPa 0,0 l/m 5,7 km/h (1 Bft) O-NO 67 0 min 0,000 mm 0,0 UV-I 0 W/m 6,9 C 8,4 C 8,0 km/h (2 Bft) 97,37 %
09.04.2017 00:42 8,4 C 90 % 1023,3 hPa 0,0 l/m 6,0 km/h (2 Bft) O-NO 78 0 min 0,000 mm 0,0 UV-I 0 W/m 6,9 C 8,4 C 8,0 km/h (2 Bft) 100,00 %
09.04.2017 00:44 8,4 C 90 % 1023,3 hPa 0,0 l/m 6,1 km/h (2 Bft) O-NO 67 0 min 0,000 mm 0,0 UV-I 0 W/m 6,9 C 8,4 C 9,7 km/h (2 Bft) 100,00 %
09.04.2017 00:46 8,4 C 90 % 1023,3 hPa 0,0 l/m 5,7 km/h (1 Bft) NO 54 0 min 0,000 mm 0,0 UV-I 0 W/m 6,9 C 8,4 C 8,0 km/h (2 Bft) 96,00 %
09.04.2017 00:48 8,3 C 90 % 1023,4 hPa 0,0 l/m 5,4 km/h (1 Bft) O-NO 59 0 min 0,000 mm 0,0 UV-I 0 W/m 6,8 C 8,3 C 8,0 km/h (2 Bft) 100,00 %
09.04.2017 00:50 8,3 C 90 % 1023,3 hPa 0,0 l/m 5,0 km/h (1 Bft) O-NO 61 0 min 0,000 mm 0,0 UV-I 0 W/m 6,8 C 8,3 C 8,0 km/h (2 Bft) 100,00 %
09.04.2017 00:52 8,3 C 90 % 1023,3 hPa 0,0 l/m 6,3 km/h (2 Bft) O-NO 69 0 min 0,000 mm 0,0 UV-I 0 W/m 6,8 C 8,3 C 8,0 km/h (2 Bft) 97,87 %
09.04.2017 00:54 8,3 C 91 % 1023,3 hPa 0,0 l/m 5,9 km/h (2 Bft) O-NO 70 0 min 0,000 mm 0,0 UV-I 0 W/m 6,9 C 8,3 C 8,0 km/h (2 Bft) 100,00 %
09.04.2017 00:56 8,3 C 91 % 1023,3 hPa 0,0 l/m 5,5 km/h (1 Bft) O-NO 74 0 min 0,000 mm 0,0 UV-I 0 W/m 6,9 C 8,3 C 8,0 km/h (2 Bft) 100,00 %
09.04.2017 00:58 8,3 C 91 % 1023,4 hPa 0,0 l/m 4,9 km/h (1 Bft) O-NO 62 0 min 0,000 mm 0,0 UV-I 0 W/m 6,9 C 8,3 C 6,4 km/h (2 Bft) 96,00 %
09.04.2017 01:00 8,3 C 91 % 1023,3 hPa 0,0 l/m 5,5 km/h (1 Bft) O-NO 78 0 min 0,000 mm 0,0 UV-I 0 W/m 6,9 C 8,3 C 8,0 km/h (2 Bft) 100,00 %
09.04.2017 01:02 8,3 C 91 % 1023,4 hPa 0,0 l/m 5,7 km/h (1 Bft) O 82 0 min 0,000 mm 0,0 UV-I 0 W/m 6,9 C 8,3 C 8,0 km/h (2 Bft) 100,00 %
09.04.2017 01:04 8,3 C 91 % 1023,4 hPa 0,0 l/m 5,1 km/h (1 Bft) O 82 0 min 0,000 mm 0,0 UV-I 0 W/m 6,9 C 8,3 C 6,4 km/h (2 Bft) 100,00 %
09.04.2017 01:06 8,3 C 91 % 1023,5 hPa 0,0 l/m 4,9 km/h (1 Bft) O-NO 73 0 min 0,000 mm 0,0 UV-I 0 W/m 6,9 C 8,3 C 8,0 km/h (2 Bft) 98,44 %
09.04.2017 01:08 8,3 C 91 % 1023,5 hPa 0,0 l/m 4,4 km/h (1 Bft) O-NO 68 0 min 0,000 mm 0,0 UV-I 0 W/m 6,9 C 8,3 C 6,4 km/h (2 Bft) 100,00 %
09.04.2017 01:10 8,3 C 91 % 1023,4 hPa 0,0 l/m 4,4 km/h (1 Bft) O-NO 74 0 min 0,000 mm 0,0 UV-I 0 W/m 6,9 C 8,3 C 6,4 km/h (2 Bft) 97,87 %
09.04.2017 01:12 8,3 C 91 % 1023,4 hPa 0,0 l/m 4,1 km/h (1 Bft) O-NO 76 0 min 0,000 mm 0,0 UV-I 0 W/m 6,9 C 8,3 C 6,4 km/h (2 Bft) 100,00 %
09.04.2017 01:14 8,3 C 91 % 1023,5 hPa 0,0 l/m 4,3 km/h (1 Bft) O-NO 65 0 min 0,000 mm 0,0 UV-I 0 W/m 6,9 C 8,3 C 8,0 km/h (2 Bft) 100,00 %
09.04.2017 01:16 8,2 C 91 % 1023,5 hPa 0,0 l/m 3,3 km/h (1 Bft) O-NO 72 0 min 0,000 mm 0,0 UV-I 0 W/m 6,8 C 8,2 C 6,4 km/h (2 Bft) 98,11 %
09.04.2017 01:18 8,2 C 91 % 1023,5 hPa 0,0 l/m 3,5 km/h (1 Bft) O-NO 72 0 min 0,000 mm 0,0 UV-I 0 W/m 6,8 C 8,2 C 4,8 km/h (1 Bft) 97,87 %
09.04.2017 01:20 8,2 C 91 % 1023,5 hPa 0,0 l/m 3,8 km/h (1 Bft) O 86 0 min 0,000 mm 0,0 UV-I 0 W/m 6,8 C 8,2 C 4,8 km/h (1 Bft) 100,00 %
09.04.2017 01:22 8,2 C 91 % 1023,5 hPa 0,0 l/m 3,7 km/h (1 Bft) O 84 0 min 0,000 mm 0,0 UV-I 0 W/m 6,8 C 8,2 C 4,8 km/h (1 Bft) 100,00 %
09.04.2017 01:24 8,2 C 91 % 1023,6 hPa 0,0 l/m 3,7 km/h (1 Bft) O-NO 75 0 min 0,000 mm 0,0 UV-I 0 W/m 6,8 C 8,2 C 6,4 km/h (2 Bft) 100,00 %
09.04.2017 01:26 8,2 C 91 % 1023,5 hPa 0,0 l/m 3,5 km/h (1 Bft) O-NO 74 0 min 0,000 mm 0,0 UV-I 0 W/m 6,8 C 8,2 C 6,4 km/h (2 Bft) 100,00 %
09.04.2017 01:28 8,1 C 91 % 1023,6 hPa 0,0 l/m 3,3 km/h (1 Bft) O-NO 74 0 min 0,000 mm 0,0 UV-I 0 W/m 6,7 C 8,1 C 4,8 km/h (1 Bft) 98,00 %
09.04.2017 01:30 8,1 C 91 % 1023,6 hPa 0,0 l/m 2,7 km/h (1 Bft) O-NO 74 0 min 0,000 mm 0,0 UV-I 0 W/m 6,7 C 8,1 C 4,8 km/h (1 Bft) 97,14 %
09.04.2017 01:32 8,1 C 91 % 1023,6 hPa 0,0 l/m 3,3 km/h (1 Bft) O-NO 75 0 min 0,000 mm 0,0 UV-I 0 W/m 6,7 C 8,1 C 4,8 km/h (1 Bft) 98,00 %
09.04.2017 01:34 8,0 C 91 % 1023,6 hPa 0,0 l/m 4,0 km/h (1 Bft) O-NO 75 0 min 0,000 mm 0,0 UV-I 0 W/m 6,6 C 8,0 C 4,8 km/h (1 Bft) 94,34 %
09.04.2017 01:36 7,9 C 91 % 1023,6 hPa 0,0 l/m 1,8 km/h (1 Bft) O-NO 75 0 min 0,000 mm 0,0 UV-I 0 W/m 6,5 C 7,9 C 4,8 km/h (1 Bft) 97,87 %
09.04.2017 01:38 7,8 C 91 % 1023,6 hPa 0,0 l/m 2,6 km/h (1 Bft) O-NO 77 0 min 0,000 mm 0,0 UV-I 0 W/m 6,4 C 7,8 C 4,8 km/h (1 Bft) 97,56 %
09.04.2017 01:40 7,7 C 91 % 1023,6 hPa 0,0 l/m 2,2 km/h (1 Bft) O 88 0 min 0,000 mm 0,0 UV-I 0 W/m 6,3 C 7,7 C 4,8 km/h (1 Bft) 96,00 %
09.04.2017 01:42 7,7 C 92 % 1023,6 hPa 0,0 l/m 2,6 km/h (1 Bft) O 88 0 min 0,000 mm 0,0 UV-I 0 W/m 6,5 C 7,7 C 6,4 km/h (2 Bft) 100,00 %
09.04.2017 01:44 7,6 C 92 % 1023,6 hPa 0,0 l/m 0,5 km/h (0 Bft) O 88 0 min 0,000 mm 0,0 UV-I 0 W/m 6,4 C 7,6 C 3,2 km/h (1 Bft) 96,15 %
09.04.2017 01:46 7,4 C 92 % 1023,6 hPa 0,0 l/m 2,2 km/h (1 Bft) O 88 0 min 0,000 mm 0,0 UV-I 0 W/m 6,2 C 7,4 C 6,4 km/h (2 Bft) 98,11 %
09.04.2017 01:48 7,4 C 92 % 1023,6 hPa 0,0 l/m 3,3 km/h (1 Bft) O-NO 67 0 min 0,000 mm 0,0 UV-I 0 W/m 6,2 C 7,4 C 6,4 km/h (2 Bft) 95,74 %
09.04.2017 01:50 7,4 C 92 % 1023,6 hPa 0,0 l/m 3,7 km/h (1 Bft) O-NO 67 0 min 0,000 mm 0,0 UV-I 0 W/m 6,2 C 7,4 C 6,4 km/h (2 Bft) 97,62 %
09.04.2017 01:52 7,4 C 93 % 1023,5 hPa 0,0 l/m 3,5 km/h (1 Bft) O-NO 74 0 min 0,000 mm 0,0 UV-I 0 W/m 6,3 C 7,4 C 6,4 km/h (2 Bft) 98,00 %
09.04.2017 01:54 7,6 C 93 % 1023,5 hPa 0,0 l/m 4,0 km/h (1 Bft) O-NO 77 0 min 0,000 mm 0,0 UV-I 0 W/m 6,5 C 7,6 C 6,4 km/h (2 Bft) 97,87 %
09.04.2017 01:56 7,6 C 93 % 1023,5 hPa 0,0 l/m 4,5 km/h (1 Bft) O-NO 75 0 min 0,000 mm 0,0 UV-I 0 W/m 6,5 C 7,6 C 6,4 km/h (2 Bft) 95,74 %
09.04.2017 01:58 7,6 C 93 % 1023,5 hPa 0,0 l/m 3,0 km/h (1 Bft) O-NO 75 0 min 0,000 mm 0,0 UV-I 0 W/m 6,5 C 7,6 C 4,8 km/h (1 Bft) 97,56 %
09.04.2017 02:00 7,6 C 93 % 1023,5 hPa 0,0 l/m 4,9 km/h (1 Bft) O 86 0 min 0,000 mm 0,0 UV-I 0 W/m 6,5 C 7,6 C 6,4 km/h (2 Bft) 97,73 %
09.04.2017 02:02 7,4 C 93 % 1023,5 hPa 0,0 l/m 2,6 km/h (1 Bft) O 86 0 min 0,000 mm 0,0 UV-I 0 W/m 6,3 C 7,4 C 4,8 km/h (1 Bft) 98,11 %
09.04.2017 02:04 7,4 C 92 % 1023,5 hPa 0,0 l/m 3,4 km/h (1 Bft) O-NO 60 0 min 0,000 mm 0,0 UV-I 0 W/m 6,2 C 7,4 C 4,8 km/h (1 Bft) 100,00 %
09.04.2017 02:06 7,3 C 92 % 1023,5 hPa 0,0 l/m 6,1 km/h (2 Bft) O 97 0 min 0,000 mm 0,0 UV-I 0 W/m 6,1 C 7,3 C 9,7 km/h (2 Bft) 100,00 %
09.04.2017 02:08 7,3 C 93 % 1023,5 hPa 0,0 l/m 5,1 km/h (1 Bft) O 80 0 min 0,000 mm 0,0 UV-I 0 W/m 6,2 C 7,3 C 9,7 km/h (2 Bft) 100,00 %
09.04.2017 02:10 7,2 C 93 % 1023,5 hPa 0,0 l/m 4,2 km/h (1 Bft) O 100 0 min 0,000 mm 0,0 UV-I 0 W/m 6,1 C 7,2 C 6,4 km/h (2 Bft) 100,00 %
09.04.2017 02:12 7,2 C 93 % 1023,5 hPa 0,0 l/m 6,3 km/h (2 Bft) O 90 0 min 0,000 mm 0,0 UV-I 0 W/m 6,1 C 7,2 C 11,3 km/h (2 Bft) 100,00 %
09.04.2017 02:14 7,2 C 93 % 1023,5 hPa 0,0 l/m 5,2 km/h (1 Bft) O-SO 115 0 min 0,000 mm 0,0 UV-I 0 W/m 6,1 C 7,2 C 8,0 km/h (2 Bft) 98,11 %
09.04.2017 02:16 7,3 C 94 % 1023,5 hPa 0,0 l/m 4,9 km/h (1 Bft) O-NO 65 0 min 0,000 mm 0,0 UV-I 0 W/m 6,4 C 7,3 C 8,0 km/h (2 Bft) 100,00 %
09.04.2017 02:18 7,3 C 93 % 1023,5 hPa 0,0 l/m 6,6 km/h (2 Bft) O 90 0 min 0,000 mm 0,0 UV-I 0 W/m 6,2 C 7,2 C 11,3 km/h (2 Bft) 100,00 %
09.04.2017 02:20 7,4 C 94 % 1023,5 hPa 0,0 l/m 6,5 km/h (2 Bft) O-NO 76 0 min 0,000 mm 0,0 UV-I 0 W/m 6,5 C 7,3 C 11,3 km/h (2 Bft) 100,00 %
09.04.2017 02:22 7,4 C 94 % 1023,5 hPa 0,0 l/m 8,9 km/h (2 Bft) O 90 0 min 0,000 mm 0,0 UV-I 0 W/m 6,5 C 5,5 C 12,9 km/h (3 Bft) 100,00 %
09.04.2017 02:24 7,5 C 94 % 1023,5 hPa 0,0 l/m 7,6 km/h (2 Bft) O-NO 77 0 min 0,000 mm 0,0 UV-I 0 W/m 6,6 C 6,5 C 11,3 km/h (2 Bft) 100,00 %
09.04.2017 02:26 7,6 C 94 % 1023,5 hPa 0,0 l/m 7,1 km/h (2 Bft) O 80 0 min 0,000 mm 0,0 UV-I 0 W/m 6,7 C 7,0 C 12,9 km/h (3 Bft) 100,00 %
09.04.2017 02:28 7,6 C 93 % 1023,5 hPa 0,0 l/m 7,5 km/h (2 Bft) O 98 0 min 0,000 mm 0,0 UV-I 0 W/m 6,5 C 6,7 C 11,3 km/h (2 Bft) 100,00 %
09.04.2017 02:30 7,6 C 93 % 1023,5 hPa 0,0 l/m 6,8 km/h (2 Bft) O-NO 59 0 min 0,000 mm 0,0 UV-I 0 W/m 6,5 C 7,3 C 11,3 km/h (2 Bft) 100,00 %
09.04.2017 02:32 7,6 C 94 % 1023,5 hPa 0,0 l/m 6,8 km/h (2 Bft) O-NO 67 0 min 0,000 mm 0,0 UV-I 0 W/m 6,7 C 7,3 C 12,9 km/h (3 Bft) 100,00 %
09.04.2017 02:34 7,6 C 93 % 1023,5 hPa 0,0 l/m 6,8 km/h (2 Bft) O-NO 69 0 min 0,000 mm 0,0 UV-I 0 W/m 6,5 C 7,3 C 9,7 km/h (2 Bft) 90,91 %
09.04.2017 02:36 7,6 C 93 % 1023,5 hPa 0,0 l/m 6,8 km/h (2 Bft) O-NO 68 0 min 0,000 mm 0,0 UV-I 0 W/m 6,5 C 7,3 C 8,0 km/h (2 Bft) 100,00 %
09.04.2017 02:38 7,5 C 93 % 1023,6 hPa 0,0 l/m 6,4 km/h (2 Bft) O-NO 67 0 min 0,000 mm 0,0 UV-I 0 W/m 6,4 C 7,5 C 8,0 km/h (2 Bft) 97,56 %
09.04.2017 02:40 7,5 C 93 % 1023,5 hPa 0,0 l/m 6,6 km/h (2 Bft) O-NO 70 0 min 0,000 mm 0,0 UV-I 0 W/m 6,4 C 7,4 C 8,0 km/h (2 Bft) 97,73 %
09.04.2017 02:42 7,4 C 93 % 1023,5 hPa 0,0 l/m 5,5 km/h (1 Bft) O-NO 60 0 min 0,000 mm 0,0 UV-I 0 W/m 6,3 C 7,4 C 8,0 km/h (2 Bft) 100,00 %
09.04.2017 02:44 7,4 C 93 % 1023,5 hPa 0,0 l/m 6,4 km/h (2 Bft) O 82 0 min 0,000 mm 0,0 UV-I 0 W/m 6,3 C 7,4 C 8,0 km/h (2 Bft) 100,00 %
09.04.2017 02:46 7,4 C 93 % 1023,5 hPa 0,0 l/m 5,7 km/h (1 Bft) O-NO 71 0 min 0,000 mm 0,0 UV-I 0 W/m 6,3 C 7,4 C 8,0 km/h (2 Bft) 100,00 %
09.04.2017 02:48 7,3 C 93 % 1023,6 hPa 0,0 l/m 6,0 km/h (2 Bft) O-NO 69 0 min 0,000 mm 0,0 UV-I 0 W/m 6,2 C 7,3 C 8,0 km/h (2 Bft) 100,00 %
09.04.2017 02:50 7,3 C 93 % 1023,5 hPa 0,0 l/m 5,1 km/h (1 Bft) O-NO 66 0 min 0,000 mm 0,0 UV-I 0 W/m 6,2 C 7,3 C 8,0 km/h (2 Bft) 100,00 %
09.04.2017 02:52 7,3 C 93 % 1023,5 hPa 0,0 l/m 5,5 km/h (1 Bft) O-NO 64 0 min 0,000 mm 0,0 UV-I 0 W/m 6,2 C 7,3 C 8,0 km/h (2 Bft) 100,00 %
09.04.2017 02:54 7,3 C 93 % 1023,5 hPa 0,0 l/m 6,1 km/h (2 Bft) O-NO 72 0 min 0,000 mm 0,0 UV-I 0 W/m 6,2 C 7,3 C 9,7 km/h (2 Bft) 100,00 %
09.04.2017 02:56 7,3 C 93 % 1023,5 hPa 0,0 l/m 5,1 km/h (1 Bft) O-NO 71 0 min 0,000 mm 0,0 UV-I 0 W/m 6,2 C 7,3 C 8,0 km/h (2 Bft) 100,00 %
09.04.2017 02:58 7,3 C 94 % 1023,4 hPa 0,0 l/m 6,4 km/h (2 Bft) O-NO 57 0 min 0,000 mm 0,0 UV-I 0 W/m 6,4 C 7,3 C 11,3 km/h (2 Bft) 100,00 %
09.04.2017 03:00 7,2 C 93 % 1023,5 hPa 0,0 l/m 6,3 km/h (2 Bft) O 82 0 min 0,000 mm 0,0 UV-I 0 W/m 6,1 C 7,2 C 9,7 km/h (2 Bft) 98,04 %
09.04.2017 03:02 7,2 C 93 % 1023,5 hPa 0,0 l/m 4,9 km/h (1 Bft) O-NO 75 0 min 0,000 mm 0,0 UV-I 0 W/m 6,1 C 7,2 C 8,0 km/h (2 Bft) 100,00 %
09.04.2017 03:04 7,2 C 94 % 1023,5 hPa 0,0 l/m 6,7 km/h (2 Bft) O-NO 71 0 min 0,000 mm 0,0 UV-I 0 W/m 6,3 C 7,0 C 11,3 km/h (2 Bft) 97,22 %
09.04.2017 03:06 7,2 C 94 % 1023,4 hPa 0,0 l/m 5,3 km/h (1 Bft) O-NO 63 0 min 0,000 mm 0,0 UV-I 0 W/m 6,3 C 7,2 C 8,0 km/h (2 Bft) 100,00 %
09.04.2017 03:08 7,2 C 94 % 1023,5 hPa 0,0 l/m 5,9 km/h (2 Bft) O-NO 66 0 min 0,000 mm 0,0 UV-I 0 W/m 6,3 C 7,2 C 8,0 km/h (2 Bft) 100,00 %
09.04.2017 03:10 7,2 C 94 % 1023,5 hPa 0,0 l/m 6,1 km/h (2 Bft) O-NO 78 0 min 0,000 mm 0,0 UV-I 0 W/m 6,3 C 7,2 C 9,7 km/h (2 Bft) 100,00 %
09.04.2017 03:12 7,2 C 94 % 1023,4 hPa 0,0 l/m 4,8 km/h (1 Bft) O-NO 73 0 min 0,000 mm 0,0 UV-I 0 W/m 6,3 C 7,2 C 6,4 km/h (2 Bft) 100,00 %
09.04.2017 03:14 7,2 C 94 % 1023,4 hPa 0,0 l/m 5,0 km/h (1 Bft) O-NO 68 0 min 0,000 mm 0,0 UV-I 0 W/m 6,3 C 7,2 C 6,4 km/h (2 Bft) 100,00 %
09.04.2017 03:16 7,2 C 94 % 1023,5 hPa 0,0 l/m 4,5 km/h (1 Bft) O-NO 68 0 min 0,000 mm 0,0 UV-I 0 W/m 6,3 C 7,2 C 6,4 km/h (2 Bft) 97,37 %
09.04.2017 03:18 7,1 C 94 % 1023,5 hPa 0,0 l/m 3,8 km/h (1 Bft) O-NO 76 0 min 0,000 mm 0,0 UV-I 0 W/m 6,2 C 7,1 C 6,4 km/h (2 Bft) 96,43 %
09.04.2017 03:20 7,1 C 94 % 1023,4 hPa 0,0 l/m 4,6 km/h (1 Bft) O-NO 67 0 min 0,000 mm 0,0 UV-I 0 W/m 6,2 C 7,1 C 6,4 km/h (2 Bft) 98,00 %
09.04.2017 03:22 7,1 C 94 % 1023,4 hPa 0,0 l/m 4,4 km/h (1 Bft) O-NO 68 0 min 0,000 mm 0,0 UV-I 0 W/m 6,2 C 7,1 C 6,4 km/h (2 Bft) 96,00 %
09.04.2017 03:24 7,1 C 94 % 1023,5 hPa 0,0 l/m 4,7 km/h (1 Bft) O-NO 67 0 min 0,000 mm 0,0 UV-I 0 W/m 6,2 C 7,1 C 6,4 km/h (2 Bft) 100,00 %
09.04.2017 03:26 7,0 C 94 % 1023,5 hPa 0,0 l/m 4,7 km/h (1 Bft) O-NO 67 0 min 0,000 mm 0,0 UV-I 0 W/m 6,1 C 7,0 C 6,4 km/h (2 Bft) 96,23 %
09.04.2017 03:28 6,9 C 94 % 1023,4 hPa 0,0 l/m 4,7 km/h (1 Bft) O-NO 69 0 min 0,000 mm 0,0 UV-I 0 W/m 6,0 C 6,9 C 6,4 km/h (2 Bft) 97,87 %
09.04.2017 03:30 6,9 C 94 % 1023,4 hPa 0,0 l/m 3,1 km/h (1 Bft) O-NO 69 0 min 0,000 mm 0,0 UV-I 0 W/m 6,0 C 6,9 C 4,8 km/h (1 Bft) 100,00 %
09.04.2017 03:32 6,9 C 94 % 1023,4 hPa 0,0 l/m 2,8 km/h (1 Bft) O-NO 69 0 min 0,000 mm 0,0 UV-I 0 W/m 6,0 C 6,9 C 6,4 km/h (2 Bft) 96,23 %
09.04.2017 03:34 6,8 C 94 % 1023,4 hPa 0,0 l/m 3,6 km/h (1 Bft) O-NO 69 0 min 0,000 mm 0,0 UV-I 0 W/m 5,9 C 6,8 C 4,8 km/h (1 Bft) 94,74 %
09.04.2017 03:36 6,7 C 94 % 1023,4 hPa 0,0 l/m 2,4 km/h (1 Bft) O-NO 69 0 min 0,000 mm 0,0 UV-I 0 W/m 5,8 C 6,7 C 3,2 km/h (1 Bft) 94,00 %
09.04.2017 03:38 6,6 C 94 % 1023,5 hPa 0,0 l/m 2,7 km/h (1 Bft) O-NO 69 0 min 0,000 mm 0,0 UV-I 0 W/m 5,7 C 6,6 C 4,8 km/h (1 Bft) 94,00 %
09.04.2017 03:40 6,4 C 94 % 1023,4 hPa 0,0 l/m 2,4 km/h (1 Bft) O-NO 69 0 min 0,000 mm 0,0 UV-I 0 W/m 5,5 C 6,4 C 3,2 km/h (1 Bft) 96,00 %
09.04.2017 03:42 6,4 C 94 % 1023,5 hPa 0,0 l/m 2,4 km/h (1 Bft) O-NO 69 0 min 0,000 mm 0,0 UV-I 0 W/m 5,5 C 6,4 C 3,2 km/h (1 Bft) 94,87 %
09.04.2017 03:44 6,3 C 94 % 1023,4 hPa 0,0 l/m 2,5 km/h (1 Bft) O-NO 69 0 min 0,000 mm 0,0 UV-I 0 W/m 5,4 C 6,3 C 4,8 km/h (1 Bft) 90,00 %
09.04.2017 03:46 6,3 C 94 % 1023,4 hPa 0,0 l/m 2,1 km/h (1 Bft) O-NO 69 0 min 0,000 mm 0,0 UV-I 0 W/m 5,4 C 6,3 C 3,2 km/h (1 Bft) 94,23 %
09.04.2017 03:48 6,3 C 94 % 1023,4 hPa 0,0 l/m 1,9 km/h (1 Bft) O-NO 69 0 min 0,000 mm 0,0 UV-I 0 W/m 5,4 C 6,3 C 3,2 km/h (1 Bft) 95,24 %
09.04.2017 03:50 6,3 C 94 % 1023,5 hPa 0,0 l/m 2,0 km/h (1 Bft) O-NO 69 0 min 0,000 mm 0,0 UV-I 0 W/m 5,4 C 6,3 C 3,2 km/h (1 Bft) 96,00 %
09.04.2017 03:52 6,3 C 95 % 1023,5 hPa 0,0 l/m 1,0 km/h (0 Bft) O-NO 69 0 min 0,000 mm 0,0 UV-I 0 W/m 5,6 C 6,3 C 1,6 km/h (1 Bft) 96,00 %
09.04.2017 03:54 6,3 C 95 % 1023,5 hPa 0,0 l/m 0,4 km/h (0 Bft) O-NO 69 0 min 0,000 mm 0,0 UV-I 0 W/m 5,6 C 6,3 C 1,6 km/h (1 Bft) 95,45 %
09.04.2017 03:56 6,3 C 95 % 1023,5 hPa 0,0 l/m 0,0 km/h (0 Bft) O-NO 69 0 min 0,000 mm 0,0 UV-I 0 W/m 5,6 C 6,3 C 0,0 km/h (0 Bft) 93,62 %
09.04.2017 03:58 6,3 C 95 % 1023,5 hPa 0,0 l/m 0,0 km/h (0 Bft) O-NO 69 0 min 0,000 mm 0,0 UV-I 0 W/m 5,6 C 6,3 C 0,0 km/h (0 Bft) 94,00 %
09.04.2017 04:00 6,3 C 95 % 1023,5 hPa 0,0 l/m 0,0 km/h (0 Bft) O-NO 69 0 min 0,000 mm 0,0 UV-I 0 W/m 5,6 C 6,3 C 0,0 km/h (0 Bft) 94,74 %
09.04.2017 04:02 6,2 C 95 % 1023,5 hPa 0,0 l/m 0,0 km/h (0 Bft) O-NO 69 0 min 0,000 mm 0,0 UV-I 0 W/m 5,5 C 6,2 C 0,0 km/h (0 Bft) 100,00 %
09.04.2017 04:04 5,9 C 94 % 1023,5 hPa 0,0 l/m 0,0 km/h (0 Bft) O-NO 69 0 min 0,000 mm 0,0 UV-I 0 W/m 5,0 C 5,9 C 0,0 km/h (0 Bft) 94,34 %
09.04.2017 04:06 5,8 C 94 % 1023,5 hPa 0,0 l/m 0,0 km/h (0 Bft) O-NO 69 0 min 0,000 mm 0,0 UV-I 0 W/m 4,9 C 5,8 C 0,0 km/h (0 Bft) 91,49 %
09.04.2017 04:08 5,6 C 94 % 1023,5 hPa 0,0 l/m 0,0 km/h (0 Bft) O-NO 69 0 min 0,000 mm 0,0 UV-I 0 W/m 4,7 C 5,6 C 0,0 km/h (0 Bft) 94,74 %
09.04.2017 04:10 5,4 C 94 % 1023,5 hPa 0,0 l/m 0,0 km/h (0 Bft) O-NO 69 0 min 0,000 mm 0,0 UV-I 0 W/m 4,5 C 5,4 C 0,0 km/h (0 Bft) 96,00 %
09.04.2017 04:12 5,3 C 94 % 1023,6 hPa 0,0 l/m 0,0 km/h (0 Bft) O-NO 69 0 min 0,000 mm 0,0 UV-I 0 W/m 4,4 C 5,3 C 0,0 km/h (0 Bft) 98,11 %
09.04.2017 04:14 5,2 C 95 % 1023,5 hPa 0,0 l/m 0,0 km/h (0 Bft) O-NO 69 0 min 0,000 mm 0,0 UV-I 0 W/m 4,5 C 5,2 C 1,6 km/h (1 Bft) 97,56 %
09.04.2017 04:16 5,2 C 95 % 1023,5 hPa 0,0 l/m 0,0 km/h (0 Bft) O-NO 69 0 min 0,000 mm 0,0 UV-I 0 W/m 4,5 C 5,2 C 1,6 km/h (1 Bft) 98,11 %
09.04.2017 04:18 5,2 C 95 % 1023,5 hPa 0,0 l/m 0,0 km/h (0 Bft) O-NO 69 0 min 0,000 mm 0,0 UV-I 0 W/m 4,5 C 5,2 C 0,0 km/h (0 Bft) 97,56 %
09.04.2017 04:20 5,2 C 95 % 1023,5 hPa 0,0 l/m 0,3 km/h (0 Bft) O-NO 69 0 min 0,000 mm 0,0 UV-I 0 W/m 4,5 C 5,2 C 1,6 km/h (1 Bft) 100,00 %
09.04.2017 04:22 5,2 C 95 % 1023,5 hPa 0,0 l/m 0,0 km/h (0 Bft) O-NO 69 0 min 0,000 mm 0,0 UV-I 0 W/m 4,5 C 5,2 C 0,0 km/h (0 Bft) 100,00 %
09.04.2017 04:24 5,2 C 95 % 1023,5 hPa 0,0 l/m 0,2 km/h (0 Bft) O-NO 69 0 min 0,000 mm 0,0 UV-I 0 W/m 4,5 C 5,2 C 1,6 km/h (1 Bft) 100,00 %
09.04.2017 04:26 5,2 C 95 % 1023,5 hPa 0,0 l/m 0,8 km/h (0 Bft) O-NO 69 0 min 0,000 mm 0,0 UV-I 0 W/m 4,5 C 5,2 C 1,6 km/h (1 Bft) 100,00 %
09.04.2017 04:28 5,2 C 95 % 1023,5 hPa 0,0 l/m 0,0 km/h (0 Bft) O-NO 69 0 min 0,000 mm 0,0 UV-I 0 W/m 4,5 C 5,2 C 0,0 km/h (0 Bft) 98,00 %
09.04.2017 04:30 5,1 C 95 % 1023,5 hPa 0,0 l/m 0,0 km/h (0 Bft) O-NO 69 0 min 0,000 mm 0,0 UV-I 0 W/m 4,4 C 5,1 C 0,0 km/h (0 Bft) 100,00 %
09.04.2017 04:32 5,2 C 96 % 1023,5 hPa 0,0 l/m 0,4 km/h (0 Bft) O-NO 69 0 min 0,000 mm 0,0 UV-I 0 W/m 4,6 C 5,2 C 1,6 km/h (1 Bft) 100,00 %
09.04.2017 04:34 5,3 C 96 % 1023,6 hPa 0,0 l/m 0,6 km/h (0 Bft) O-NO 69 0 min 0,000 mm 0,0 UV-I 0 W/m 4,7 C 5,3 C 3,2 km/h (1 Bft) 97,87 %
09.04.2017 04:36 5,6 C 96 % 1023,6 hPa 0,0 l/m 0,6 km/h (0 Bft) O-NO 69 0 min 0,000 mm 0,0 UV-I 0 W/m 5,0 C 5,6 C 1,6 km/h (1 Bft) 97,56 %
09.04.2017 04:38 5,6 C 96 % 1023,6 hPa 0,0 l/m 0,3 km/h (0 Bft) O-NO 69 0 min 0,000 mm 0,0 UV-I 0 W/m 5,0 C 5,6 C 1,6 km/h (1 Bft) 100,00 %
09.04.2017 04:40 5,5 C 96 % 1023,5 hPa 0,0 l/m 0,0 km/h (0 Bft) O-NO 69 0 min 0,000 mm 0,0 UV-I 0 W/m 4,9 C 5,5 C 0,0 km/h (0 Bft) 100,00 %
09.04.2017 04:42 5,5 C 96 % 1023,5 hPa 0,0 l/m 0,0 km/h (0 Bft) O-NO 69 0 min 0,000 mm 0,0 UV-I 0 W/m 4,9 C 5,5 C 0,0 km/h (0 Bft) 100,00 %
09.04.2017 04:44 5,4 C 95 % 1023,5 hPa 0,0 l/m 0,0 km/h (0 Bft) O-NO 69 0 min 0,000 mm 0,0 UV-I 0 W/m 4,7 C 5,4 C 0,0 km/h (0 Bft) 100,00 %
09.04.2017 04:46 5,3 C 96 % 1023,5 hPa 0,0 l/m 0,0 km/h (0 Bft) O-NO 69 0 min 0,000 mm 0,0 UV-I 0 W/m 4,7 C 5,3 C 0,0 km/h (0 Bft) 100,00 %
09.04.2017 04:48 5,2 C 95 % 1023,5 hPa 0,0 l/m 0,0 km/h (0 Bft) O-NO 69 0 min 0,000 mm 0,0 UV-I 0 W/m 4,5 C 5,2 C 0,0 km/h (0 Bft) 97,14 %
09.04.2017 04:50 5,1 C 95 % 1023,5 hPa 0,0 l/m 0,0 km/h (0 Bft) O-NO 69 0 min 0,000 mm 0,0 UV-I 0 W/m 4,4 C 5,1 C 0,0 km/h (0 Bft) 100,00 %
09.04.2017 04:52 4,9 C 95 % 1023,5 hPa 0,0 l/m 0,0 km/h (0 Bft) O-NO 69 0 min 0,000 mm 0,0 UV-I 0 W/m 4,2 C 4,9 C 0,0 km/h (0 Bft) 100,00 %
09.04.2017 04:54 4,9 C 95 % 1023,5 hPa 0,0 l/m 0,0 km/h (0 Bft) O-NO 69 0 min 0,000 mm 0,0 UV-I 0 W/m 4,2 C 4,9 C 0,0 km/h (0 Bft) 93,62 %
09.04.2017 04:56 4,9 C 96 % 1023,5 hPa 0,0 l/m 0,0 km/h (0 Bft) O-NO 69 0 min 0,000 mm 0,0 UV-I 0 W/m 4,3 C 4,9 C 0,0 km/h (0 Bft) 98,11 %
09.04.2017 04:58 4,9 C 96 % 1023,5 hPa 0,0 l/m 0,0 km/h (0 Bft) O-NO 69 0 min 0,000 mm 0,0 UV-I 0 W/m 4,3 C 4,9 C 0,0 km/h (0 Bft) 97,56 %
09.04.2017 05:00 4,8 C 96 % 1023,5 hPa 0,0 l/m 0,0 km/h (0 Bft) O-NO 69 0 min 0,000 mm 0,0 UV-I 0 W/m 4,2 C 4,8 C 0,0 km/h (0 Bft) 97,87 %
09.04.2017 05:02 4,8 C 96 % 1023,5 hPa 0,0 l/m 0,0 km/h (0 Bft) O-NO 69 0 min 0,000 mm 0,0 UV-I 0 W/m 4,2 C 4,8 C 0,0 km/h (0 Bft) 100,00 %
09.04.2017 05:04 4,7 C 96 % 1023,5 hPa 0,0 l/m 0,0 km/h (0 Bft) O-NO 69 0 min 0,000 mm 0,0 UV-I 0 W/m 4,1 C 4,7 C 0,0 km/h (0 Bft) 100,00 %
09.04.2017 05:06 4,7 C 96 % 1023,5 hPa 0,0 l/m 0,0 km/h (0 Bft) O-NO 69 0 min 0,000 mm 0,0 UV-I 0 W/m 4,1 C 4,7 C 0,0 km/h (0 Bft) 97,44 %
09.04.2017 05:08 4,7 C 96 % 1023,5 hPa 0,0 l/m 0,0 km/h (0 Bft) O-NO 69 0 min 0,000 mm 0,0 UV-I 0 W/m 4,1 C 4,7 C 0,0 km/h (0 Bft) 100,00 %
09.04.2017 05:10 4,7 C 96 % 1023,5 hPa 0,0 l/m 0,0 km/h (0 Bft) O-NO 69 0 min 0,000 mm 0,0 UV-I 0 W/m 4,1 C 4,7 C 0,0 km/h (0 Bft) 100,00 %
09.04.2017 05:12 4,7 C 96 % 1023,5 hPa 0,0 l/m 0,0 km/h (0 Bft) O-NO 69 0 min 0,000 mm 0,0 UV-I 0 W/m 4,1 C 4,7 C 0,0 km/h (0 Bft) 97,87 %
09.04.2017 05:14 4,7 C 96 % 1023,5 hPa 0,0 l/m 0,0 km/h (0 Bft) O-NO 69 0 min 0,000 mm 0,0 UV-I 0 W/m 4,1 C 4,7 C 0,0 km/h (0 Bft) 98,00 %
09.04.2017 05:16 4,7 C 96 % 1023,5 hPa 0,0 l/m 0,0 km/h (0 Bft) O-NO 69 0 min 0,000 mm 0,0 UV-I 0 W/m 4,1 C 4,7 C 0,0 km/h (0 Bft) 97,14 %
09.04.2017 05:18 4,6 C 96 % 1023,4 hPa 0,0 l/m 0,0 km/h (0 Bft) O-NO 69 0 min 0,000 mm 0,0 UV-I 0 W/m 4,0 C 4,6 C 0,0 km/h (0 Bft) 98,21 %
09.04.2017 05:20 4,6 C 96 % 1023,4 hPa 0,0 l/m 0,0 km/h (0 Bft) O-NO 69 0 min 0,000 mm 0,0 UV-I 0 W/m 4,0 C 4,6 C 0,0 km/h (0 Bft) 97,87 %
09.04.2017 05:22 4,4 C 96 % 1023,5 hPa 0,0 l/m 0,0 km/h (0 Bft) O-NO 69 0 min 0,000 mm 0,0 UV-I 0 W/m 3,8 C 4,4 C 0,0 km/h (0 Bft) 98,00 %
09.04.2017 05:24 4,4 C 96 % 1023,4 hPa 0,0 l/m 0,0 km/h (0 Bft) O-NO 69 0 min 0,000 mm 0,0 UV-I 0 W/m 3,8 C 4,4 C 0,0 km/h (0 Bft) 97,56 %
09.04.2017 05:26 4,4 C 96 % 1023,4 hPa 0,0 l/m 0,0 km/h (0 Bft) O-NO 69 0 min 0,000 mm 0,0 UV-I 0 W/m 3,8 C 4,4 C 0,0 km/h (0 Bft) 100,00 %
09.04.2017 05:28 4,4 C 96 % 1023,5 hPa 0,0 l/m 0,0 km/h (0 Bft) O-NO 69 0 min 0,000 mm 0,0 UV-I 0 W/m 3,8 C 4,4 C 0,0 km/h (0 Bft) 100,00 %
09.04.2017 05:30 4,5 C 96 % 1023,4 hPa 0,0 l/m 0,0 km/h (0 Bft) O-NO 69 0 min 0,000 mm 0,0 UV-I 0 W/m 3,9 C 4,5 C 0,0 km/h (0 Bft) 98,00 %
09.04.2017 05:32 4,6 C 96 % 1023,5 hPa 0,0 l/m 0,0 km/h (0 Bft) O-NO 69 0 min 0,000 mm 0,0 UV-I 0 W/m 4,0 C 4,6 C 0,0 km/h (0 Bft) 100,00 %
09.04.2017 05:34 4,6 C 96 % 1023,4 hPa 0,0 l/m 0,0 km/h (0 Bft) O-NO 69 0 min 0,000 mm 0,0 UV-I 0 W/m 4,0 C 4,6 C 0,0 km/h (0 Bft) 100,00 %
09.04.2017 05:36 4,6 C 96 % 1023,5 hPa 0,0 l/m 0,0 km/h (0 Bft) O-NO 69 0 min 0,000 mm 0,0 UV-I 0 W/m 4,0 C 4,6 C 0,0 km/h (0 Bft) 100,00 %
09.04.2017 05:38 4,6 C 96 % 1023,5 hPa 0,0 l/m 0,0 km/h (0 Bft) O-NO 69 0 min 0,000 mm 0,0 UV-I 0 W/m 4,0 C 4,6 C 0,0 km/h (0 Bft) 100,00 %
09.04.2017 05:40 4,4 C 96 % 1023,5 hPa 0,0 l/m 0,0 km/h (0 Bft) O-NO 69 0 min 0,000 mm 0,0 UV-I 0 W/m 3,8 C 4,4 C 0,0 km/h (0 Bft) 100,00 %
09.04.2017 05:42 4,4 C 96 % 1023,6 hPa 0,0 l/m 0,0 km/h (0 Bft) O-NO 69 0 min 0,000 mm 0,0 UV-I 0 W/m 3,8 C 4,4 C 0,0 km/h (0 Bft) 96,00 %
09.04.2017 05:44 4,5 C 96 % 1023,6 hPa 0,0 l/m 0,0 km/h (0 Bft) O-NO 69 0 min 0,000 mm 0,0 UV-I 0 W/m 3,9 C 4,5 C 0,0 km/h (0 Bft) 100,00 %
09.04.2017 05:46 4,4 C 96 % 1023,5 hPa 0,0 l/m 0,0 km/h (0 Bft) O-NO 69 0 min 0,000 mm 0,0 UV-I 0 W/m 3,8 C 4,4 C 1,6 km/h (1 Bft) 96,00 %
09.04.2017 05:48 4,3 C 96 % 1023,6 hPa 0,0 l/m 0,0 km/h (0 Bft) O-NO 69 0 min 0,000 mm 0,0 UV-I 0 W/m 3,7 C 4,3 C 0,0 km/h (0 Bft) 96,00 %
09.04.2017 05:50 4,2 C 96 % 1023,6 hPa 0,0 l/m 1,5 km/h (1 Bft) O-NO 69 0 min 0,000 mm 0,0 UV-I 0 W/m 3,6 C 4,2 C 3,2 km/h (1 Bft) 97,87 %
09.04.2017 05:52 4,1 C 96 % 1023,6 hPa 0,0 l/m 1,9 km/h (1 Bft) O-NO 69 0 min 0,000 mm 0,0 UV-I 0 W/m 3,5 C 4,1 C 3,2 km/h (1 Bft) 98,04 %
09.04.2017 05:54 4,0 C 96 % 1023,5 hPa 0,0 l/m 1,7 km/h (1 Bft) O-NO 69 0 min 0,000 mm 0,0 UV-I 0 W/m 3,4 C 4,0 C 3,2 km/h (1 Bft) 96,00 %
09.04.2017 05:56 4,1 C 96 % 1023,6 hPa 0,0 l/m 1,3 km/h (1 Bft) O-NO 69 0 min 0,000 mm 0,0 UV-I 0 W/m 3,5 C 4,1 C 1,6 km/h (1 Bft) 91,49 %
09.04.2017 05:58 4,1 C 96 % 1023,6 hPa 0,0 l/m 1,4 km/h (1 Bft) O-NO 69 0 min 0,000 mm 0,0 UV-I 0 W/m 3,5 C 4,1 C 1,6 km/h (1 Bft) 94,12 %
09.04.2017 06:00 4,1 C 96 % 1023,6 hPa 0,0 l/m 1,4 km/h (1 Bft) O-NO 69 0 min 0,000 mm 0,0 UV-I 0 W/m 3,5 C 4,1 C 1,6 km/h (1 Bft) 97,06 %
09.04.2017 06:02 3,9 C 96 % 1023,6 hPa 0,0 l/m 0,0 km/h (0 Bft) O-NO 69 0 min 0,000 mm 0,0 UV-I 0 W/m 3,3 C 3,9 C 1,6 km/h (1 Bft) 92,00 %
09.04.2017 06:04 3,9 C 96 % 1023,6 hPa 0,0 l/m 0,0 km/h (0 Bft) O-NO 69 0 min 0,000 mm 0,0 UV-I 0 W/m 3,3 C 3,9 C 0,0 km/h (0 Bft) 97,73 %
09.04.2017 06:06 3,9 C 96 % 1023,6 hPa 0,0 l/m 0,0 km/h (0 Bft) O-NO 69 0 min 0,000 mm 0,0 UV-I 0 W/m 3,3 C 3,9 C 1,6 km/h (1 Bft) 95,74 %
09.04.2017 06:08 3,9 C 96 % 1023,6 hPa 0,0 l/m 0,0 km/h (0 Bft) O-NO 69 0 min 0,000 mm 0,0 UV-I 0 W/m 3,3 C 3,9 C 0,0 km/h (0 Bft) 96,00 %
09.04.2017 06:10 3,9 C 96 % 1023,7 hPa 0,0 l/m 0,0 km/h (0 Bft) O-NO 69 0 min 0,000 mm 0,0 UV-I 0 W/m 3,3 C 3,9 C 0,0 km/h (0 Bft) 98,00 %
09.04.2017 06:12 3,8 C 96 % 1023,7 hPa 0,0 l/m 0,0 km/h (0 Bft) O-NO 69 0 min 0,000 mm 0,0 UV-I 0 W/m 3,2 C 3,8 C 0,0 km/h (0 Bft) 94,74 %
09.04.2017 06:14 3,8 C 96 % 1023,7 hPa 0,0 l/m 0,2 km/h (0 Bft) O-NO 69 0 min 0,000 mm 0,0 UV-I 0 W/m 3,2 C 3,8 C 1,6 km/h (1 Bft) 96,43 %
09.04.2017 06:16 3,8 C 96 % 1023,8 hPa 0,0 l/m 1,4 km/h (1 Bft) O-NO 69 0 min 0,000 mm 0,0 UV-I 4 W/m 3,2 C 3,8 C 3,2 km/h (1 Bft) 97,87 %
09.04.2017 06:18 4,0 C 96 % 1023,8 hPa 0,0 l/m 0,8 km/h (0 Bft) O-NO 69 0 min 0,000 mm 0,0 UV-I 5 W/m 3,4 C 4,0 C 1,6 km/h (1 Bft) 100,00 %
09.04.2017 06:20 4,1 C 97 % 1023,8 hPa 0,0 l/m 0,0 km/h (0 Bft) O-NO 69 0 min 0,000 mm 0,0 UV-I 5 W/m 3,7 C 4,1 C 0,0 km/h (0 Bft) 96,00 %
09.04.2017 06:22 4,1 C 97 % 1023,8 hPa 0,0 l/m 0,0 km/h (0 Bft) O-NO 69 0 min 0,000 mm 0,0 UV-I 6 W/m 3,7 C 4,1 C 0,0 km/h (0 Bft) 97,62 %
09.04.2017 06:24 4,0 C 96 % 1023,8 hPa 0,0 l/m 0,0 km/h (0 Bft) O-NO 69 0 min 0,000 mm 0,0 UV-I 7 W/m 3,4 C 4,0 C 0,0 km/h (0 Bft) 100,00 %
09.04.2017 06:26 3,9 C 96 % 1023,9 hPa 0,0 l/m 0,0 km/h (0 Bft) O-NO 69 0 min 0,000 mm 0,0 UV-I 7 W/m 3,3 C 3,9 C 0,0 km/h (0 Bft) 98,11 %
09.04.2017 06:28 3,8 C 96 % 1023,8 hPa 0,0 l/m 0,0 km/h (0 Bft) O-NO 69 0 min 0,000 mm 0,0 UV-I 9 W/m 3,2 C 3,8 C 0,0 km/h (0 Bft) 95,12 %
09.04.2017 06:30 3,7 C 96 % 1023,9 hPa 0,0 l/m 0,0 km/h (0 Bft) O-NO 69 0 min 0,000 mm 0,0 UV-I 9 W/m 3,1 C 3,7 C 0,0 km/h (0 Bft) 98,00 %
09.04.2017 06:32 3,6 C 96 % 1023,8 hPa 0,0 l/m 0,0 km/h (0 Bft) O-NO 69 0 min 0,000 mm 0,0 UV-I 11 W/m 3,0 C 3,6 C 0,0 km/h (0 Bft) 100,00 %
09.04.2017 06:34 3,4 C 96 % 1023,8 hPa 0,0 l/m 0,0 km/h (0 Bft) O-NO 69 0 min 0,000 mm 0,0 UV-I 11 W/m 2,8 C 3,4 C 1,6 km/h (1 Bft) 100,00 %
09.04.2017 06:36 3,4 C 96 % 1023,9 hPa 0,0 l/m 0,1 km/h (0 Bft) O-NO 69 2 min 0,000 mm 0,0 UV-I 12 W/m 2,8 C 3,4 C 1,6 km/h (1 Bft) 98,04 %
09.04.2017 06:38 3,4 C 96 % 1023,9 hPa 0,0 l/m 0,0 km/h (0 Bft) O-NO 69 2 min 0,000 mm 0,0 UV-I 14 W/m 2,8 C 3,4 C 0,0 km/h (0 Bft) 98,11 %
09.04.2017 06:40 3,5 C 96 % 1023,9 hPa 0,0 l/m 0,0 km/h (0 Bft) O-NO 69 2 min 0,000 mm 0,0 UV-I 17 W/m 2,9 C 3,5 C 0,0 km/h (0 Bft) 97,37 %
09.04.2017 06:42 3,5 C 96 % 1023,9 hPa 0,0 l/m 0,0 km/h (0 Bft) O-NO 69 2 min 0,000 mm 0,0 UV-I 19 W/m 2,9 C 3,5 C 0,0 km/h (0 Bft) 94,34 %
09.04.2017 06:44 3,6 C 96 % 1023,9 hPa 0,0 l/m 0,0 km/h (0 Bft) O-NO 69 2 min 0,000 mm 0,0 UV-I 22 W/m 3,0 C 3,6 C 0,0 km/h (0 Bft) 100,00 %
09.04.2017 06:46 3,5 C 96 % 1023,9 hPa 0,0 l/m 0,0 km/h (0 Bft) O-NO 69 2 min 0,000 mm 0,0 UV-I 25 W/m 2,9 C 3,5 C 0,0 km/h (0 Bft) 100,00 %
09.04.2017 06:48 3,4 C 96 % 1023,9 hPa 0,0 l/m 0,0 km/h (0 Bft) O-NO 69 2 min 0,000 mm 0,0 UV-I 30 W/m 2,8 C 3,4 C 0,0 km/h (0 Bft) 97,87 %
09.04.2017 06:50 3,5 C 96 % 1024,0 hPa 0,0 l/m 0,0 km/h (0 Bft) O-NO 69 2 min 0,000 mm 0,0 UV-I 34 W/m 2,9 C 3,5 C 0,0 km/h (0 Bft) 97,56 %
09.04.2017 06:52 3,4 C 96 % 1024,0 hPa 0,0 l/m 0,0 km/h (0 Bft) O-NO 69 2 min 0,000 mm 0,0 UV-I 36 W/m 2,8 C 3,4 C 0,0 km/h (0 Bft) 100,00 %
09.04.2017 06:54 3,5 C 96 % 1023,9 hPa 0,0 l/m 0,0 km/h (0 Bft) O-NO 69 2 min 0,000 mm 0,0 UV-I 41 W/m 2,9 C 3,5 C 0,0 km/h (0 Bft) 100,00 %
09.04.2017 06:56 3,5 C 96 % 1024,0 hPa 0,0 l/m 0,0 km/h (0 Bft) O-NO 69 2 min 0,000 mm 0,0 UV-I 46 W/m 2,9 C 3,5 C 0,0 km/h (0 Bft) 97,56 %
09.04.2017 06:58 3,6 C 96 % 1024,0 hPa 0,0 l/m 0,0 km/h (0 Bft) O-NO 69 2 min 0,000 mm 0,0 UV-I 49 W/m 3,0 C 3,6 C 0,0 km/h (0 Bft) 96,23 %
09.04.2017 07:00 3,5 C 96 % 1024,0 hPa 0,0 l/m 0,0 km/h (0 Bft) O-NO 69 2 min 0,000 mm 0,0 UV-I 55 W/m 2,9 C 3,5 C 0,0 km/h (0 Bft) 97,87 %
09.04.2017 07:02 3,5 C 96 % 1024,0 hPa 0,0 l/m 0,0 km/h (0 Bft) O-NO 69 2 min 0,000 mm 0,0 UV-I 60 W/m 2,9 C 3,5 C 0,0 km/h (0 Bft) 100,00 %
09.04.2017 07:04 3,6 C 96 % 1024,0 hPa 0,0 l/m 0,0 km/h (0 Bft) O-NO 69 2 min 0,000 mm 0,0 UV-I 66 W/m 3,0 C 3,6 C 0,0 km/h (0 Bft) 96,92 %
09.04.2017 07:06 3,6 C 96 % 1024,1 hPa 0,0 l/m 0,0 km/h (0 Bft) O-NO 69 2 min 0,000 mm 0,0 UV-I 69 W/m 3,0 C 3,6 C 0,0 km/h (0 Bft) 97,87 %
09.04.2017 07:08 3,6 C 96 % 1024,1 hPa 0,0 l/m 0,0 km/h (0 Bft) O-NO 69 2 min 0,000 mm 0,0 UV-I 73 W/m 3,0 C 3,6 C 0,0 km/h (0 Bft) 96,00 %
09.04.2017 07:10 3,6 C 96 % 1024,1 hPa 0,0 l/m 0,0 km/h (0 Bft) O-NO 69 2 min 0,000 mm 0,0 UV-I 68 W/m 3,0 C 3,6 C 0,0 km/h (0 Bft) 98,00 %
09.04.2017 07:12 3,6 C 96 % 1024,2 hPa 0,0 l/m 0,0 km/h (0 Bft) O-NO 69 2 min 0,000 mm 0,0 UV-I 72 W/m 3,0 C 3,6 C 0,0 km/h (0 Bft) 97,37 %
09.04.2017 07:14 3,6 C 96 % 1024,3 hPa 0,0 l/m 0,0 km/h (0 Bft) O-NO 69 2 min 0,000 mm 0,0 UV-I 73 W/m 3,0 C 3,6 C 0,0 km/h (0 Bft) 92,00 %
09.04.2017 07:16 3,6 C 96 % 1024,3 hPa 0,0 l/m 0,0 km/h (0 Bft) O-NO 69 2 min 0,000 mm 0,0 UV-I 74 W/m 3,0 C 3,6 C 0,0 km/h (0 Bft) 94,00 %
09.04.2017 07:18 3,5 C 96 % 1024,3 hPa 0,0 l/m 0,0 km/h (0 Bft) O-NO 69 2 min 0,000 mm 0,0 UV-I 84 W/m 2,9 C 3,5 C 0,0 km/h (0 Bft) 92,68 %
09.04.2017 07:20 3,5 C 97 % 1024,3 hPa 0,0 l/m 0,0 km/h (0 Bft) O-NO 69 2 min 0,000 mm 0,0 UV-I 87 W/m 3,1 C 3,5 C 0,0 km/h (0 Bft) 96,00 %
09.04.2017 07:22 3,5 C 97 % 1024,3 hPa 0,0 l/m 0,0 km/h (0 Bft) O-NO 69 2 min 0,000 mm 0,0 UV-I 89 W/m 3,1 C 3,5 C 0,0 km/h (0 Bft) 93,62 %
09.04.2017 07:24 3,6 C 97 % 1024,3 hPa 0,0 l/m 0,0 km/h (0 Bft) O-NO 69 2 min 0,000 mm 0,0 UV-I 95 W/m 3,2 C 3,6 C 0,0 km/h (0 Bft) 94,34 %
09.04.2017 07:26 3,7 C 97 % 1024,4 hPa 0,0 l/m 0,0 km/h (0 Bft) O-NO 69 2 min 0,000 mm 0,0 UV-I 98 W/m 3,3 C 3,7 C 0,0 km/h (0 Bft) 97,37 %
09.04.2017 07:28 3,7 C 97 % 1024,4 hPa 0,0 l/m 0,0 km/h (0 Bft) O-NO 69 2 min 0,000 mm 0,0 UV-I 98 W/m 3,3 C 3,7 C 0,0 km/h (0 Bft) 96,00 %
09.04.2017 07:30 3,7 C 97 % 1024,4 hPa 0,0 l/m 0,0 km/h (0 Bft) O-NO 69 2 min 0,000 mm 0,0 UV-I 101 W/m 3,3 C 3,7 C 0,0 km/h (0 Bft) 98,11 %
09.04.2017 07:32 3,8 C 97 % 1024,4 hPa 0,0 l/m 0,4 km/h (0 Bft) O-NO 69 2 min 0,000 mm 0,0 UV-I 105 W/m 3,4 C 3,8 C 1,6 km/h (1 Bft) 97,37 %
09.04.2017 07:34 3,8 C 97 % 1024,4 hPa 0,0 l/m 1,3 km/h (1 Bft) O-NO 69 2 min 0,000 mm 0,0 UV-I 112 W/m 3,4 C 3,8 C 1,6 km/h (1 Bft) 94,00 %
09.04.2017 07:36 3,8 C 97 % 1024,4 hPa 0,0 l/m 0,1 km/h (0 Bft) O-NO 69 2 min 0,000 mm 0,0 UV-I 117 W/m 3,4 C 3,8 C 1,6 km/h (1 Bft) 94,00 %
09.04.2017 07:38 3,8 C 97 % 1024,4 hPa 0,0 l/m 1,6 km/h (1 Bft) O-NO 69 2 min 0,000 mm 0,0 UV-I 124 W/m 3,4 C 3,8 C 3,2 km/h (1 Bft) 97,87 %
09.04.2017 07:40 3,9 C 97 % 1024,4 hPa 0,0 l/m 2,5 km/h (1 Bft) O 82 2 min 0,000 mm 0,0 UV-I 124 W/m 3,5 C 3,9 C 3,2 km/h (1 Bft) 92,31 %
09.04.2017 07:42 4,0 C 97 % 1024,6 hPa 0,0 l/m 2,1 km/h (1 Bft) O 82 2 min 0,000 mm 0,0 UV-I 130 W/m 3,6 C 4,0 C 3,2 km/h (1 Bft) 96,00 %
09.04.2017 07:44 4,1 C 97 % 1024,6 hPa 0,0 l/m 2,2 km/h (1 Bft) O 82 2 min 0,000 mm 0,0 UV-I 137 W/m 3,7 C 4,1 C 3,2 km/h (1 Bft) 97,56 %
09.04.2017 07:46 4,2 C 97 % 1024,5 hPa 0,0 l/m 2,7 km/h (1 Bft) O 86 2 min 0,000 mm 0,0 UV-I 140 W/m 3,8 C 4,2 C 3,2 km/h (1 Bft) 94,00 %
09.04.2017 07:48 4,3 C 97 % 1024,5 hPa 0,0 l/m 2,7 km/h (1 Bft) O 88 2 min 0,000 mm 0,0 UV-I 145 W/m 3,9 C 4,3 C 3,2 km/h (1 Bft) 97,87 %
09.04.2017 07:50 4,3 C 97 % 1024,6 hPa 0,0 l/m 2,3 km/h (1 Bft) O 88 2 min 0,000 mm 0,0 UV-I 147 W/m 3,9 C 4,3 C 3,2 km/h (1 Bft) 94,34 %
09.04.2017 07:52 4,4 C 97 % 1024,6 hPa 0,0 l/m 2,1 km/h (1 Bft) O 88 2 min 0,000 mm 0,0 UV-I 152 W/m 4,0 C 4,4 C 3,2 km/h (1 Bft) 94,74 %
09.04.2017 07:54 4,4 C 97 % 1024,6 hPa 0,0 l/m 1,7 km/h (1 Bft) O 88 2 min 0,000 mm 0,0 UV-I 164 W/m 4,0 C 4,4 C 3,2 km/h (1 Bft) 94,64 %
09.04.2017 07:56 4,5 C 97 % 1024,6 hPa 0,0 l/m 1,6 km/h (1 Bft) O 88 2 min 0,000 mm 0,0 UV-I 172 W/m 4,1 C 4,5 C 3,2 km/h (1 Bft) 100,00 %
09.04.2017 07:58 4,5 C 97 % 1024,6 hPa 0,0 l/m 1,8 km/h (1 Bft) O 88 2 min 0,000 mm 0,0 UV-I 169 W/m 4,1 C 4,5 C 3,2 km/h (1 Bft) 97,87 %
09.04.2017 08:00 4,6 C 97 % 1024,6 hPa 0,0 l/m 0,3 km/h (0 Bft) O 88 2 min 0,051 mm 0,0 UV-I 170 W/m 4,2 C 4,6 C 1,6 km/h (1 Bft) 100,00 %
09.04.2017 08:02 4,7 C 97 % 1024,6 hPa 0,0 l/m 0,0 km/h (0 Bft) O 88 2 min 0,000 mm 0,0 UV-I 190 W/m 4,3 C 4,7 C 0,0 km/h (0 Bft) 92,00 %
09.04.2017 08:04 4,8 C 97 % 1024,7 hPa 0,0 l/m 0,0 km/h (0 Bft) O 88 2 min 0,000 mm 0,0 UV-I 199 W/m 4,4 C 4,8 C 0,0 km/h (0 Bft) 94,74 %
09.04.2017 08:06 4,9 C 97 % 1024,7 hPa 0,0 l/m 0,0 km/h (0 Bft) O 88 2 min 0,000 mm 0,0 UV-I 198 W/m 4,5 C 4,9 C 0,0 km/h (0 Bft) 98,00 %
09.04.2017 08:08 5,1 C 97 % 1024,7 hPa 0,0 l/m 0,0 km/h (0 Bft) O 88 2 min 0,000 mm 0,0 UV-I 214 W/m 4,7 C 5,1 C 0,0 km/h (0 Bft) 93,62 %
09.04.2017 08:10 5,2 C 97 % 1024,7 hPa 0,0 l/m 0,0 km/h (0 Bft) O 88 2 min 0,000 mm 0,0 UV-I 221 W/m 4,8 C 5,2 C 0,0 km/h (0 Bft) 94,00 %
09.04.2017 08:12 5,3 C 97 % 1024,7 hPa 0,0 l/m 0,0 km/h (0 Bft) O 88 2 min 0,000 mm 0,0 UV-I 229 W/m 4,9 C 5,3 C 0,0 km/h (0 Bft) 96,00 %
09.04.2017 08:14 5,4 C 97 % 1024,7 hPa 0,0 l/m 0,4 km/h (0 Bft) O 88 2 min 0,000 mm 0,0 UV-I 231 W/m 5,0 C 5,4 C 1,6 km/h (1 Bft) 92,11 %
09.04.2017 08:16 5,5 C 97 % 1024,7 hPa 0,0 l/m 0,6 km/h (0 Bft) O 88 2 min 0,000 mm 0,0 UV-I 237 W/m 5,1 C 5,5 C 1,6 km/h (1 Bft) 95,74 %
09.04.2017 08:18 5,6 C 97 % 1024,8 hPa 0,0 l/m 0,1 km/h (0 Bft) O 88 2 min 0,000 mm 0,0 UV-I 239 W/m 5,2 C 5,6 C 1,6 km/h (1 Bft) 96,00 %
09.04.2017 08:20 5,6 C 97 % 1024,8 hPa 0,0 l/m 0,2 km/h (0 Bft) O 88 2 min 0,000 mm 0,4 UV-I 249 W/m 5,2 C 5,6 C 3,2 km/h (1 Bft) 87,23 %
09.04.2017 08:22 5,7 C 97 % 1024,8 hPa 0,0 l/m 0,0 km/h (0 Bft) O 88 2 min 0,000 mm 0,5 UV-I 253 W/m 5,3 C 5,7 C 1,6 km/h (1 Bft) 96,23 %
09.04.2017 08:24 5,8 C 97 % 1024,8 hPa 0,0 l/m 0,1 km/h (0 Bft) O 88 2 min 0,000 mm 0,5 UV-I 262 W/m 5,4 C 5,8 C 1,6 km/h (1 Bft) 95,83 %
09.04.2017 08:26 5,8 C 97 % 1024,8 hPa 0,0 l/m 0,4 km/h (0 Bft) O 88 2 min 0,000 mm 0,5 UV-I 271 W/m 5,4 C 5,8 C 3,2 km/h (1 Bft) 96,77 %
09.04.2017 08:28 6,1 C 98 % 1024,8 hPa 0,0 l/m 1,6 km/h (1 Bft) O 88 2 min 0,000 mm 0,5 UV-I 283 W/m 5,8 C 6,1 C 4,8 km/h (1 Bft) 96,00 %
09.04.2017 08:30 6,3 C 98 % 1024,8 hPa 0,0 l/m 4,0 km/h (1 Bft) O-NO 74 2 min 0,000 mm 0,6 UV-I 290 W/m 6,0 C 6,3 C 6,4 km/h (2 Bft) 94,00 %
09.04.2017 08:32 6,4 C 97 % 1024,9 hPa 0,0 l/m 5,0 km/h (1 Bft) O-NO 72 2 min 0,000 mm 0,6 UV-I 299 W/m 6,0 C 6,4 C 8,0 km/h (2 Bft) 92,11 %
09.04.2017 08:34 6,6 C 97 % 1024,9 hPa 0,0 l/m 5,3 km/h (1 Bft) O-NO 70 2 min 0,000 mm 0,6 UV-I 306 W/m 6,2 C 6,6 C 6,4 km/h (2 Bft) 92,00 %
09.04.2017 08:36 6,7 C 98 % 1024,9 hPa 0,0 l/m 4,4 km/h (1 Bft) O-NO 57 2 min 0,000 mm 0,6 UV-I 312 W/m 6,4 C 6,7 C 6,4 km/h (2 Bft) 95,74 %
09.04.2017 08:38 6,9 C 97 % 1024,9 hPa 0,0 l/m 3,4 km/h (1 Bft) O-NO 57 2 min 0,000 mm 0,6 UV-I 319 W/m 6,5 C 6,9 C 4,8 km/h (1 Bft) 94,00 %
09.04.2017 08:40 7,1 C 98 % 1024,8 hPa 0,0 l/m 4,2 km/h (1 Bft) O-NO 68 2 min 0,000 mm 0,7 UV-I 325 W/m 6,8 C 7,1 C 6,4 km/h (2 Bft) 97,37 %
09.04.2017 08:42 7,1 C 98 % 1024,9 hPa 0,0 l/m 3,1 km/h (1 Bft) O-NO 66 2 min 0,000 mm 0,7 UV-I 334 W/m 6,8 C 7,1 C 6,4 km/h (2 Bft) 94,34 %
09.04.2017 08:44 7,3 C 98 % 1024,9 hPa 0,0 l/m 5,2 km/h (1 Bft) O-NO 71 2 min 0,000 mm 0,7 UV-I 342 W/m 7,0 C 7,3 C 6,4 km/h (2 Bft) 98,11 %
09.04.2017 08:46 7,3 C 97 % 1024,9 hPa 0,0 l/m 4,9 km/h (1 Bft) O-NO 59 2 min 0,000 mm 0,7 UV-I 348 W/m 6,9 C 7,3 C 6,4 km/h (2 Bft) 94,74 %
09.04.2017 08:48 7,5 C 97 % 1025,0 hPa 0,0 l/m 4,9 km/h (1 Bft) NO 49 2 min 0,000 mm 0,8 UV-I 356 W/m 7,1 C 7,5 C 8,0 km/h (2 Bft) 96,00 %
09.04.2017 08:50 7,6 C 97 % 1024,9 hPa 0,0 l/m 3,1 km/h (1 Bft) NO 49 2 min 0,000 mm 0,8 UV-I 361 W/m 7,2 C 7,6 C 4,8 km/h (1 Bft) 97,56 %
09.04.2017 08:52 7,7 C 97 % 1025,0 hPa 0,0 l/m 2,7 km/h (1 Bft) NO 49 2 min 0,000 mm 0,8 UV-I 372 W/m 7,3 C 7,7 C 4,8 km/h (1 Bft) 100,00 %
09.04.2017 08:54 7,8 C 96 % 1025,0 hPa 0,0 l/m 3,9 km/h (1 Bft) O-NO 68 2 min 0,000 mm 0,8 UV-I 381 W/m 7,2 C 7,8 C 6,4 km/h (2 Bft) 94,34 %
09.04.2017 08:56 8,0 C 96 % 1025,0 hPa 0,0 l/m 2,2 km/h (1 Bft) NO 53 2 min 0,000 mm 0,9 UV-I 391 W/m 7,4 C 8,0 C 4,8 km/h (1 Bft) 94,74 %
09.04.2017 08:58 8,2 C 96 % 1025,0 hPa 0,0 l/m 0,2 km/h (0 Bft) NO 52 2 min 0,000 mm 0,9 UV-I 390 W/m 7,6 C 8,2 C 1,6 km/h (1 Bft) 98,21 %
09.04.2017 09:00 8,3 C 95 % 1025,0 hPa 0,0 l/m 3,4 km/h (1 Bft) NO 47 2 min 0,127 mm 0,9 UV-I 395 W/m 7,5 C 8,3 C 6,4 km/h (2 Bft) 97,22 %
09.04.2017 09:02 8,4 C 95 % 1025,0 hPa 0,0 l/m 0,4 km/h (0 Bft) NO 47 2 min 0,000 mm 0,9 UV-I 404 W/m 7,6 C 8,4 C 1,6 km/h (1 Bft) 100,00 %
09.04.2017 09:04 8,6 C 95 % 1025,0 hPa 0,0 l/m 1,1 km/h (1 Bft) NO 47 2 min 0,000 mm 1,0 UV-I 409 W/m 7,8 C 8,6 C 4,8 km/h (1 Bft) 98,00 %
09.04.2017 09:06 8,6 C 93 % 1025,0 hPa 0,0 l/m 0,0 km/h (0 Bft) NO 47 2 min 0,000 mm 1,0 UV-I 412 W/m 7,5 C 8,6 C 0,0 km/h (0 Bft) 91,49 %
09.04.2017 09:08 8,7 C 93 % 1025,0 hPa 0,0 l/m 0,0 km/h (0 Bft) NO 47 2 min 0,000 mm 1,0 UV-I 413 W/m 7,6 C 8,7 C 1,6 km/h (1 Bft) 96,00 %
09.04.2017 09:10 8,7 C 92 % 1025,0 hPa 0,0 l/m 0,4 km/h (0 Bft) NO 47 2 min 0,000 mm 1,1 UV-I 421 W/m 7,5 C 8,7 C 1,6 km/h (1 Bft) 93,62 %
09.04.2017 09:12 8,9 C 93 % 1025,0 hPa 0,0 l/m 1,1 km/h (1 Bft) NO 47 2 min 0,000 mm 1,1 UV-I 430 W/m 7,8 C 8,9 C 3,2 km/h (1 Bft) 100,00 %
09.04.2017 09:14 9,1 C 93 % 1025,1 hPa 0,0 l/m 2,4 km/h (1 Bft) NO 47 2 min 0,000 mm 1,1 UV-I 435 W/m 8,0 C 9,1 C 4,8 km/h (1 Bft) 98,00 %
09.04.2017 09:16 9,2 C 92 % 1025,0 hPa 0,0 l/m 2,6 km/h (1 Bft) NO 47 2 min 0,000 mm 1,1 UV-I 442 W/m 8,0 C 9,2 C 3,2 km/h (1 Bft) 96,23 %
09.04.2017 09:18 9,2 C 91 % 1025,0 hPa 0,0 l/m 2,4 km/h (1 Bft) NO 47 2 min 0,000 mm 1,2 UV-I 446 W/m 7,8 C 9,2 C 4,8 km/h (1 Bft) 97,56 %
09.04.2017 09:20 9,3 C 90 % 1025,1 hPa 0,0 l/m 3,6 km/h (1 Bft) NO 47 2 min 0,000 mm 1,2 UV-I 451 W/m 7,7 C 9,3 C 4,8 km/h (1 Bft) 97,87 %
09.04.2017 09:22 9,4 C 90 % 1025,1 hPa 0,0 l/m 2,9 km/h (1 Bft) NO 47 2 min 0,000 mm 1,2 UV-I 457 W/m 7,8 C 9,4 C 4,8 km/h (1 Bft) 100,00 %
09.04.2017 09:24 9,4 C 89 % 1025,1 hPa 0,0 l/m 0,7 km/h (0 Bft) NO 47 2 min 0,000 mm 1,3 UV-I 460 W/m 7,7 C 9,4 C 1,6 km/h (1 Bft) 100,00 %
09.04.2017 09:26 9,3 C 89 % 1025,1 hPa 0,0 l/m 0,3 km/h (0 Bft) NO 47 2 min 0,000 mm 1,3 UV-I 467 W/m 7,6 C 9,3 C 1,6 km/h (1 Bft) 95,12 %
09.04.2017 09:28 9,4 C 89 % 1025,1 hPa 0,0 l/m 0,0 km/h (0 Bft) NO 47 2 min 0,000 mm 1,3 UV-I 470 W/m 7,7 C 9,4 C 0,0 km/h (0 Bft) 98,00 %
09.04.2017 09:30 9,4 C 88 % 1025,1 hPa 0,0 l/m 0,0 km/h (0 Bft) NO 47 2 min 0,000 mm 1,3 UV-I 476 W/m 7,5 C 9,4 C 0,0 km/h (0 Bft) 96,00 %
09.04.2017 09:32 9,4 C 88 % 1025,2 hPa 0,0 l/m 2,6 km/h (1 Bft) NO 49 2 min 0,000 mm 1,4 UV-I 481 W/m 7,5 C 9,4 C 4,8 km/h (1 Bft) 97,87 %
09.04.2017 09:34 9,4 C 88 % 1025,1 hPa 0,0 l/m 2,2 km/h (1 Bft) O-NO 60 2 min 0,000 mm 1,4 UV-I 489 W/m 7,5 C 9,4 C 4,8 km/h (1 Bft) 93,18 %
09.04.2017 09:36 9,4 C 88 % 1025,1 hPa 0,0 l/m 1,1 km/h (1 Bft) O-NO 63 2 min 0,000 mm 1,4 UV-I 490 W/m 7,5 C 9,4 C 3,2 km/h (1 Bft) 100,00 %
09.04.2017 09:38 9,6 C 88 % 1025,1 hPa 0,0 l/m 1,2 km/h (1 Bft) O-NO 63 2 min 0,000 mm 1,4 UV-I 495 W/m 7,7 C 9,6 C 4,8 km/h (1 Bft) 92,00 %
09.04.2017 09:40 9,7 C 88 % 1025,1 hPa 0,0 l/m 1,9 km/h (1 Bft) O-NO 63 2 min 0,000 mm 1,5 UV-I 502 W/m 7,8 C 9,7 C 3,2 km/h (1 Bft) 100,00 %
09.04.2017 09:42 9,8 C 86 % 1025,1 hPa 0,0 l/m 2,1 km/h (1 Bft) O-NO 61 2 min 0,000 mm 1,5 UV-I 508 W/m 7,6 C 9,8 C 4,8 km/h (1 Bft) 97,22 %
09.04.2017 09:44 9,8 C 86 % 1025,1 hPa 0,0 l/m 2,8 km/h (1 Bft) NO 55 2 min 0,000 mm 1,6 UV-I 513 W/m 7,6 C 9,8 C 6,4 km/h (2 Bft) 98,00 %
09.04.2017 09:46 10,2 C 86 % 1025,0 hPa 0,0 l/m 1,8 km/h (1 Bft) NO 55 2 min 0,000 mm 1,6 UV-I 521 W/m 8,0 C 10,2 C 4,8 km/h (1 Bft) 100,00 %
09.04.2017 09:48 10,3 C 85 % 1025,1 hPa 0,0 l/m 4,1 km/h (1 Bft) O 90 2 min 0,000 mm 1,6 UV-I 526 W/m 7,9 C 10,3 C 6,4 km/h (2 Bft) 87,80 %
09.04.2017 09:50 10,3 C 84 % 1025,1 hPa 0,0 l/m 4,6 km/h (1 Bft) O 86 2 min 0,000 mm 1,6 UV-I 529 W/m 7,7 C 10,3 C 6,4 km/h (2 Bft) 98,00 %
09.04.2017 09:52 10,3 C 84 % 1025,1 hPa 0,0 l/m 5,0 km/h (1 Bft) O-NO 71 2 min 0,000 mm 1,7 UV-I 536 W/m 7,7 C 10,3 C 8,0 km/h (2 Bft) 96,43 %
09.04.2017 09:54 10,4 C 83 % 1025,1 hPa 0,0 l/m 5,2 km/h (1 Bft) NO 38 2 min 0,000 mm 1,7 UV-I 542 W/m 7,6 C 10,4 C 9,7 km/h (2 Bft) 95,12 %
09.04.2017 09:56 10,7 C 83 % 1025,2 hPa 0,0 l/m 6,8 km/h (2 Bft) NO 46 2 min 0,000 mm 1,7 UV-I 546 W/m 7,9 C 10,4 C 9,7 km/h (2 Bft) 90,24 %
09.04.2017 09:58 10,8 C 83 % 1025,1 hPa 0,0 l/m 5,5 km/h (1 Bft) N-NO 21 2 min 0,000 mm 1,8 UV-I 549 W/m 8,0 C 10,8 C 8,0 km/h (2 Bft) 96,00 %
09.04.2017 10:00 10,8 C 81 % 1025,2 hPa 0,0 l/m 2,4 km/h (1 Bft) NO 38 2 min 0,228 mm 1,8 UV-I 553 W/m 7,7 C 10,8 C 4,8 km/h (1 Bft) 97,87 %
09.04.2017 10:02 10,7 C 81 % 1025,2 hPa 0,0 l/m 5,7 km/h (1 Bft) NO 55 2 min 0,000 mm 1,8 UV-I 558 W/m 7,6 C 10,7 C 8,0 km/h (2 Bft) 94,00 %
09.04.2017 10:04 10,8 C 82 % 1025,2 hPa 0,0 l/m 3,7 km/h (1 Bft) O 82 2 min 0,000 mm 1,9 UV-I 563 W/m 7,9 C 10,8 C 8,0 km/h (2 Bft) 93,62 %
09.04.2017 10:06 10,8 C 81 % 1025,2 hPa 0,0 l/m 6,0 km/h (2 Bft) O-NO 76 2 min 0,000 mm 1,9 UV-I 570 W/m 7,7 C 10,8 C 9,7 km/h (2 Bft) 95,12 %
09.04.2017 10:08 10,8 C 82 % 1025,1 hPa 0,0 l/m 2,0 km/h (1 Bft) O-NO 61 2 min 0,000 mm 1,9 UV-I 575 W/m 7,9 C 10,8 C 6,4 km/h (2 Bft) 97,87 %
09.04.2017 10:10 11,0 C 84 % 1025,1 hPa 0,0 l/m 5,6 km/h (1 Bft) NO 48 2 min 0,000 mm 2,0 UV-I 578 W/m 8,4 C 11,0 C 8,0 km/h (2 Bft) 98,21 %
09.04.2017 10:12 11,1 C 82 % 1025,1 hPa 0,0 l/m 3,3 km/h (1 Bft) NO 42 2 min 0,000 mm 2,0 UV-I 581 W/m 8,1 C 11,1 C 6,4 km/h (2 Bft) 97,87 %
09.04.2017 10:14 11,2 C 83 % 1025,1 hPa 0,0 l/m 1,5 km/h (1 Bft) NO 42 2 min 0,000 mm 2,0 UV-I 583 W/m 8,4 C 11,2 C 4,8 km/h (1 Bft) 97,37 %
09.04.2017 10:16 11,4 C 82 % 1025,1 hPa 0,0 l/m 6,3 km/h (2 Bft) NO 43 2 min 0,000 mm 2,1 UV-I 588 W/m 8,4 C 11,4 C 8,0 km/h (2 Bft) 96,00 %
09.04.2017 10:18 11,5 C 82 % 1025,1 hPa 0,0 l/m 4,7 km/h (1 Bft) N 11 2 min 0,000 mm 2,1 UV-I 597 W/m 8,5 C 11,5 C 9,7 km/h (2 Bft) 92,45 %
09.04.2017 10:20 11,6 C 83 % 1025,1 hPa 0,0 l/m 4,0 km/h (1 Bft) NO 47 2 min 0,000 mm 2,1 UV-I 600 W/m 8,8 C 11,6 C 11,3 km/h (2 Bft) 100,00 %
09.04.2017 10:22 11,6 C 81 % 1025,1 hPa 0,0 l/m 5,3 km/h (1 Bft) NO 51 2 min 0,000 mm 2,2 UV-I 604 W/m 8,5 C 11,6 C 11,3 km/h (2 Bft) 94,74 %
09.04.2017 10:24 11,7 C 82 % 1025,1 hPa 0,0 l/m 8,1 km/h (2 Bft) NO 46 2 min 0,000 mm 2,2 UV-I 609 W/m 8,7 C 10,6 C 11,3 km/h (2 Bft) 93,62 %
09.04.2017 10:26 11,8 C 82 % 1025,1 hPa 0,0 l/m 8,3 km/h (2 Bft) NO 53 2 min 0,000 mm 2,2 UV-I 614 W/m 8,8 C 10,6 C 9,7 km/h (2 Bft) 92,45 %
09.04.2017 10:28 11,8 C 81 % 1025,1 hPa 0,0 l/m 8,1 km/h (2 Bft) NO 44 2 min 0,000 mm 2,2 UV-I 619 W/m 8,6 C 10,7 C 11,3 km/h (2 Bft) 92,45 %
09.04.2017 10:30 12,0 C 83 % 1025,1 hPa 0,0 l/m 7,5 km/h (2 Bft) NO 38 2 min 0,000 mm 2,3 UV-I 621 W/m 9,2 C 11,3 C 11,3 km/h (2 Bft) 93,18 %
09.04.2017 10:32 11,9 C 80 % 1025,0 hPa 0,0 l/m 3,4 km/h (1 Bft) NO 42 2 min 0,000 mm 2,3 UV-I 622 W/m 8,6 C 11,9 C 4,8 km/h (1 Bft) 93,62 %
09.04.2017 10:34 12,1 C 80 % 1025,1 hPa 0,0 l/m 4,8 km/h (1 Bft) O-NO 58 2 min 0,000 mm 2,3 UV-I 628 W/m 8,8 C 12,1 C 8,0 km/h (2 Bft) 93,18 %
09.04.2017 10:36 12,0 C 79 % 1025,1 hPa 0,0 l/m 5,2 km/h (1 Bft) O-NO 57 2 min 0,000 mm 2,4 UV-I 633 W/m 8,5 C 12,0 C 11,3 km/h (2 Bft) 96,00 %
09.04.2017 10:38 12,1 C 79 % 1025,0 hPa 0,0 l/m 9,3 km/h (2 Bft) O-NO 65 2 min 0,000 mm 2,4 UV-I 639 W/m 8,6 C 10,3 C 14,5 km/h (3 Bft) 95,45 %
09.04.2017 10:40 12,1 C 77 % 1025,1 hPa 0,0 l/m 9,1 km/h (2 Bft) O 90 2 min 0,000 mm 2,4 UV-I 642 W/m 8,2 C 10,4 C 12,9 km/h (3 Bft) 90,00 %
09.04.2017 10:42 12,1 C 79 % 1025,1 hPa 0,0 l/m 5,1 km/h (1 Bft) NO 53 2 min 0,000 mm 2,5 UV-I 647 W/m 8,6 C 12,1 C 8,0 km/h (2 Bft) 93,18 %
09.04.2017 10:44 12,2 C 79 % 1025,1 hPa 0,0 l/m 5,1 km/h (1 Bft) O-NO 68 2 min 0,000 mm 2,5 UV-I 649 W/m 8,7 C 12,2 C 11,3 km/h (2 Bft) 92,00 %
09.04.2017 10:46 12,2 C 80 % 1025,1 hPa 0,0 l/m 3,8 km/h (1 Bft) NO 54 2 min 0,000 mm 2,5 UV-I 651 W/m 8,9 C 12,2 C 9,7 km/h (2 Bft) 94,74 %
09.04.2017 10:48 12,3 C 79 % 1025,1 hPa 0,0 l/m 8,3 km/h (2 Bft) NO 55 2 min 0,000 mm 2,5 UV-I 656 W/m 8,8 C 11,1 C 9,7 km/h (2 Bft) 96,55 %
09.04.2017 10:50 12,3 C 77 % 1025,1 hPa 0,0 l/m 7,1 km/h (2 Bft) NO 54 2 min 0,000 mm 2,6 UV-I 662 W/m 8,4 C 11,8 C 12,9 km/h (3 Bft) 94,00 %
09.04.2017 10:52 12,4 C 77 % 1025,1 hPa 0,0 l/m 5,5 km/h (1 Bft) O 101 2 min 0,000 mm 2,6 UV-I 666 W/m 8,5 C 12,4 C 9,7 km/h (2 Bft) 95,45 %
09.04.2017 10:54 12,3 C 78 % 1025,1 hPa 0,0 l/m 4,5 km/h (1 Bft) O 88 2 min 0,000 mm 2,6 UV-I 670 W/m 8,6 C 12,3 C 8,0 km/h (2 Bft) 95,12 %
09.04.2017 10:56 12,4 C 77 % 1025,1 hPa 0,0 l/m 7,4 km/h (2 Bft) O-NO 74 2 min 0,000 mm 2,7 UV-I 673 W/m 8,5 C 11,7 C 11,3 km/h (2 Bft) 93,62 %
09.04.2017 10:58 12,6 C 78 % 1025,1 hPa 0,0 l/m 4,9 km/h (1 Bft) O-NO 65 2 min 0,000 mm 2,7 UV-I 676 W/m 8,9 C 12,6 C 11,3 km/h (2 Bft) 96,23 %
09.04.2017 11:00 12,7 C 77 % 1025,1 hPa 0,0 l/m 6,5 km/h (2 Bft) O-NO 67 2 min 0,305 mm 2,7 UV-I 680 W/m 8,8 C 12,7 C 12,9 km/h (3 Bft) 95,74 %
09.04.2017 11:02 12,8 C 76 % 1025,1 hPa 0,0 l/m 5,6 km/h (1 Bft) O-NO 71 2 min 0,000 mm 2,8 UV-I 684 W/m 8,7 C 12,8 C 8,0 km/h (2 Bft) 95,24 %
09.04.2017 11:04 12,8 C 75 % 1025,0 hPa 0,0 l/m 8,2 km/h (2 Bft) O-NO 71 2 min 0,000 mm 2,8 UV-I 687 W/m 8,5 C 11,7 C 12,9 km/h (3 Bft) 96,00 %
09.04.2017 11:06 12,9 C 77 % 1025,1 hPa 0,0 l/m 7,2 km/h (2 Bft) O-NO 71 2 min 0,000 mm 2,8 UV-I 689 W/m 9,0 C 12,4 C 12,9 km/h (3 Bft) 94,00 %
09.04.2017 11:08 13,1 C 77 % 1025,1 hPa 0,0 l/m 6,1 km/h (2 Bft) NO 52 2 min 0,000 mm 2,9 UV-I 693 W/m 9,2 C 13,1 C 12,9 km/h (3 Bft) 95,74 %
09.04.2017 11:10 13,1 C 76 % 1025,0 hPa 0,0 l/m 2,3 km/h (1 Bft) O-NO 76 2 min 0,000 mm 2,9 UV-I 695 W/m 9,0 C 13,1 C 6,4 km/h (2 Bft) 94,74 %
09.04.2017 11:12 12,8 C 74 % 1025,0 hPa 0,0 l/m 3,4 km/h (1 Bft) SO 126 2 min 0,000 mm 3,0 UV-I 699 W/m 8,3 C 12,8 C 6,4 km/h (2 Bft) 94,34 %
09.04.2017 11:14 12,9 C 77 % 1025,0 hPa 0,0 l/m 6,3 km/h (2 Bft) O-NO 64 2 min 0,000 mm 3,0 UV-I 701 W/m 9,0 C 12,9 C 12,9 km/h (3 Bft) 84,00 %
09.04.2017 11:16 13,2 C 76 % 1025,0 hPa 0,0 l/m 7,3 km/h (2 Bft) O-NO 68 2 min 0,000 mm 3,0 UV-I 705 W/m 9,1 C 12,6 C 14,5 km/h (3 Bft) 94,74 %
09.04.2017 11:18 13,3 C 74 % 1025,1 hPa 0,0 l/m 7,2 km/h (2 Bft) O-NO 66 2 min 0,000 mm 3,0 UV-I 708 W/m 8,8 C 12,8 C 11,3 km/h (2 Bft) 100,00 %
09.04.2017 11:20 13,3 C 75 % 1025,1 hPa 0,0 l/m 6,3 km/h (2 Bft) O-NO 77 2 min 0,000 mm 3,1 UV-I 711 W/m 9,0 C 13,3 C 11,3 km/h (2 Bft) 96,43 %
09.04.2017 11:22 13,4 C 76 % 1025,0 hPa 0,0 l/m 5,5 km/h (1 Bft) O-NO 71 2 min 0,000 mm 3,1 UV-I 714 W/m 9,3 C 13,4 C 8,0 km/h (2 Bft) 97,37 %
09.04.2017 11:24 13,3 C 74 % 1025,0 hPa 0,0 l/m 7,2 km/h (2 Bft) O-NO 69 2 min 0,000 mm 3,1 UV-I 719 W/m 8,8 C 12,8 C 11,3 km/h (2 Bft) 98,11 %
09.04.2017 11:26 13,4 C 75 % 1025,0 hPa 0,0 l/m 5,7 km/h (1 Bft) O-NO 78 2 min 0,000 mm 3,1 UV-I 721 W/m 9,1 C 13,4 C 11,3 km/h (2 Bft) 98,11 %
09.04.2017 11:28 13,7 C 75 % 1025,1 hPa 0,0 l/m 8,6 km/h (2 Bft) O 82 2 min 0,000 mm 3,1 UV-I 723 W/m 9,3 C 12,4 C 12,9 km/h (3 Bft) 97,37 %
09.04.2017 11:30 13,7 C 75 % 1025,0 hPa 0,0 l/m 6,2 km/h (2 Bft) NO 53 2 min 0,000 mm 3,2 UV-I 724 W/m 9,3 C 13,7 C 11,3 km/h (2 Bft) 98,11 %
09.04.2017 11:32 13,7 C 75 % 1025,0 hPa 0,0 l/m 2,6 km/h (1 Bft) O-NO 63 2 min 0,000 mm 3,2 UV-I 726 W/m 9,3 C 13,7 C 6,4 km/h (2 Bft) 97,87 %
09.04.2017 11:34 13,7 C 73 % 1025,0 hPa 0,0 l/m 7,9 km/h (2 Bft) O-NO 76 2 min 0,000 mm 3,2 UV-I 730 W/m 8,9 C 12,8 C 14,5 km/h (3 Bft) 98,00 %
09.04.2017 11:36 13,8 C 74 % 1025,0 hPa 0,0 l/m 8,3 km/h (2 Bft) NO 50 2 min 0,000 mm 3,3 UV-I 733 W/m 9,2 C 12,7 C 12,9 km/h (3 Bft) 95,24 %
09.04.2017 11:38 13,9 C 71 % 1025,0 hPa 0,0 l/m 6,7 km/h (2 Bft) O-NO 61 2 min 0,000 mm 3,3 UV-I 733 W/m 8,7 C 13,7 C 9,7 km/h (2 Bft) 95,56 %
09.04.2017 11:40 13,9 C 70 % 1024,9 hPa 0,0 l/m 5,3 km/h (1 Bft) O-NO 74 2 min 0,000 mm 3,3 UV-I 737 W/m 8,5 C 13,9 C 8,0 km/h (2 Bft) 97,87 %
09.04.2017 11:42 13,9 C 71 % 1024,9 hPa 0,0 l/m 6,4 km/h (2 Bft) O-NO 67 2 min 0,000 mm 3,3 UV-I 738 W/m 8,7 C 13,9 C 11,3 km/h (2 Bft) 96,00 %
09.04.2017 11:44 14,1 C 73 % 1024,9 hPa 0,0 l/m 5,3 km/h (1 Bft) O-NO 58 2 min 0,000 mm 3,3 UV-I 742 W/m 9,3 C 14,1 C 11,3 km/h (2 Bft) 98,00 %
09.04.2017 11:46 14,2 C 73 % 1024,9 hPa 0,0 l/m 4,9 km/h (1 Bft) NO 34 2 min 0,000 mm 3,4 UV-I 745 W/m 9,4 C 14,2 C 9,7 km/h (2 Bft) 97,37 %
09.04.2017 11:48 14,3 C 73 % 1024,9 hPa 0,0 l/m 6,6 km/h (2 Bft) NO 52 2 min 0,000 mm 3,4 UV-I 746 W/m 9,5 C 14,2 C 11,3 km/h (2 Bft) 98,11 %
09.04.2017 11:50 14,3 C 71 % 1024,9 hPa 0,0 l/m 3,7 km/h (1 Bft) O-NO 57 2 min 0,000 mm 3,4 UV-I 751 W/m 9,1 C 14,3 C 6,4 km/h (2 Bft) 92,11 %
09.04.2017 11:52 14,3 C 73 % 1024,9 hPa 0,0 l/m 6,0 km/h (2 Bft) NO 35 2 min 0,000 mm 3,5 UV-I 755 W/m 9,5 C 14,3 C 14,5 km/h (3 Bft) 96,23 %
09.04.2017 11:54 14,6 C 74 % 1024,9 hPa 0,0 l/m 9,4 km/h (2 Bft) NO 55 2 min 0,000 mm 3,5 UV-I 755 W/m 10,0 C 13,0 C 16,1 km/h (3 Bft) 93,62 %
09.04.2017 11:56 14,6 C 71 % 1024,8 hPa 0,0 l/m 3,1 km/h (1 Bft) O-NO 60 2 min 0,000 mm 3,5 UV-I 756 W/m 9,4 C 14,6 C 6,4 km/h (2 Bft) 96,23 %
09.04.2017 11:58 14,7 C 72 % 1024,8 hPa 0,0 l/m 7,5 km/h (2 Bft) NO 55 2 min 0,000 mm 3,5 UV-I 758 W/m 9,7 C 14,1 C 11,3 km/h (2 Bft) 91,43 %
09.04.2017 12:00 14,8 C 73 % 1024,8 hPa 0,0 l/m 8,2 km/h (2 Bft) NO 42 2 min 0,381 mm 3,6 UV-I 762 W/m 10,0 C 13,8 C 12,9 km/h (3 Bft) 94,64 %
09.04.2017 12:02 14,9 C 72 % 1024,8 hPa 0,0 l/m 9,1 km/h (2 Bft) NO 50 2 min 0,000 mm 3,6 UV-I 762 W/m 9,9 C 13,4 C 14,5 km/h (3 Bft) 95,12 %
09.04.2017 12:04 14,8 C 71 % 1024,8 hPa 0,0 l/m 5,3 km/h (1 Bft) NO 38 2 min 0,000 mm 3,6 UV-I 763 W/m 9,6 C 14,8 C 8,0 km/h (2 Bft) 93,62 %
09.04.2017 12:06 14,9 C 73 % 1024,8 hPa 0,0 l/m 5,3 km/h (1 Bft) O-NO 62 2 min 0,000 mm 3,6 UV-I 766 W/m 10,1 C 14,9 C 8,0 km/h (2 Bft) 93,62 %
09.04.2017 12:08 15,1 C 73 % 1024,9 hPa 0,0 l/m 7,3 km/h (2 Bft) NO 43 2 min 0,000 mm 3,6 UV-I 767 W/m 10,3 C 14,6 C 11,3 km/h (2 Bft) 95,12 %
09.04.2017 12:10 15,2 C 75 % 1024,7 hPa 0,0 l/m 3,9 km/h (1 Bft) NO 40 2 min 0,000 mm 3,6 UV-I 769 W/m 10,8 C 15,2 C 6,4 km/h (2 Bft) 94,87 %
09.04.2017 12:12 15,3 C 73 % 1024,7 hPa 0,0 l/m 5,3 km/h (1 Bft) NO 50 2 min 0,000 mm 3,7 UV-I 771 W/m 10,5 C 15,3 C 8,0 km/h (2 Bft) 93,22 %
09.04.2017 12:14 15,3 C 69 % 1024,7 hPa 0,0 l/m 7,2 km/h (2 Bft) NO 38 2 min 0,000 mm 3,7 UV-I 772 W/m 9,6 C 14,9 C 9,7 km/h (2 Bft) 93,33 %
09.04.2017 12:16 15,4 C 71 % 1024,7 hPa 0,0 l/m 7,6 km/h (2 Bft) NO 54 2 min 0,000 mm 3,7 UV-I 773 W/m 10,2 C 14,7 C 17,7 km/h (3 Bft) 97,14 %
09.04.2017 12:18 15,4 C 69 % 1024,7 hPa 0,0 l/m 7,6 km/h (2 Bft) NO 42 2 min 0,000 mm 3,7 UV-I 775 W/m 9,7 C 14,7 C 16,1 km/h (3 Bft) 92,86 %
09.04.2017 12:20 15,5 C 68 % 1024,6 hPa 0,0 l/m 10,3 km/h (2 Bft) O-NO 76 2 min 0,000 mm 3,7 UV-I 776 W/m 9,6 C 13,5 C 16,1 km/h (3 Bft) 92,73 %
09.04.2017 12:22 15,4 C 67 % 1024,7 hPa 0,0 l/m 8,6 km/h (2 Bft) NO 51 2 min 0,000 mm 3,7 UV-I 778 W/m 9,3 C 14,2 C 14,5 km/h (3 Bft) 95,65 %
09.04.2017 12:24 15,6 C 67 % 1024,7 hPa 0,0 l/m 11,6 km/h (2 Bft) O-NO 69 2 min 0,000 mm 3,8 UV-I 778 W/m 9,5 C 13,1 C 17,7 km/h (3 Bft) 92,11 %
09.04.2017 12:26 15,6 C 67 % 1024,7 hPa 0,0 l/m 9,3 km/h (2 Bft) O-NO 66 2 min 0,000 mm 3,8 UV-I 780 W/m 9,5 C 14,1 C 12,9 km/h (3 Bft) 98,00 %
09.04.2017 12:28 15,7 C 69 % 1024,6 hPa 0,0 l/m 6,0 km/h (2 Bft) NO 36 2 min 0,000 mm 3,8 UV-I 780 W/m 10,0 C 15,7 C 9,7 km/h (2 Bft) 98,11 %
09.04.2017 12:30 15,8 C 67 % 1024,6 hPa 0,0 l/m 6,8 km/h (2 Bft) NO 39 2 min 0,000 mm 3,8 UV-I 783 W/m 9,7 C 15,6 C 9,7 km/h (2 Bft) 96,15 %
09.04.2017 12:32 15,8 C 63 % 1024,6 hPa 0,0 l/m 5,0 km/h (1 Bft) N-NO 26 2 min 0,000 mm 3,8 UV-I 784 W/m 8,8 C 15,8 C 11,3 km/h (2 Bft) 98,53 %
09.04.2017 12:34 15,9 C 68 % 1024,6 hPa 0,0 l/m 7,3 km/h (2 Bft) NO 42 2 min 0,000 mm 3,8 UV-I 783 W/m 10,0 C 15,4 C 16,1 km/h (3 Bft) 97,56 %
09.04.2017 12:36 16,2 C 67 % 1024,6 hPa 0,0 l/m 9,0 km/h (2 Bft) NO 53 2 min 0,000 mm 3,9 UV-I 785 W/m 10,1 C 14,9 C 12,9 km/h (3 Bft) 96,00 %
09.04.2017 12:38 16,1 C 67 % 1024,6 hPa 0,0 l/m 7,3 km/h (2 Bft) O 85 2 min 0,000 mm 3,9 UV-I 786 W/m 10,0 C 15,6 C 14,5 km/h (3 Bft) 97,73 %
09.04.2017 12:40 16,1 C 68 % 1024,6 hPa 0,0 l/m 11,8 km/h (2 Bft) NO 43 2 min 0,000 mm 3,9 UV-I 785 W/m 10,2 C 13,6 C 17,7 km/h (3 Bft) 96,00 %
09.04.2017 12:42 16,2 C 68 % 1024,6 hPa 0,0 l/m 11,2 km/h (2 Bft) NO 45 2 min 0,000 mm 3,9 UV-I 787 W/m 10,3 C 14,0 C 17,7 km/h (3 Bft) 90,00 %
09.04.2017 12:44 16,2 C 60 % 1024,6 hPa 0,0 l/m 12,1 km/h (2 Bft) NO 55 2 min 0,000 mm 3,9 UV-I 788 W/m 8,4 C 13,6 C 19,3 km/h (3 Bft) 97,14 %
09.04.2017 12:46 16,3 C 60 % 1024,6 hPa 0,0 l/m 12,8 km/h (3 Bft) O-NO 60 2 min 0,000 mm 3,9 UV-I 789 W/m 8,5 C 13,5 C 17,7 km/h (3 Bft) 94,34 %
09.04.2017 12:48 16,3 C 63 % 1024,6 hPa 0,0 l/m 9,9 km/h (2 Bft) NO 44 2 min 0,000 mm 3,9 UV-I 788 W/m 9,2 C 14,6 C 16,1 km/h (3 Bft) 98,00 %
09.04.2017 12:50 16,4 C 66 % 1024,6 hPa 0,0 l/m 8,8 km/h (2 Bft) N-NO 26 2 min 0,000 mm 3,9 UV-I 792 W/m 10,0 C 15,2 C 14,5 km/h (3 Bft) 94,74 %
09.04.2017 12:52 16,7 C 63 % 1024,6 hPa 0,0 l/m 13,7 km/h (3 Bft) NO 51 2 min 0,000 mm 3,9 UV-I 790 W/m 9,6 C 13,7 C 24,1 km/h (4 Bft) 97,62 %
09.04.2017 12:54 16,7 C 61 % 1024,5 hPa 0,0 l/m 12,1 km/h (2 Bft) NO 49 2 min 0,000 mm 3,9 UV-I 792 W/m 9,1 C 14,2 C 19,3 km/h (3 Bft) 96,36 %
09.04.2017 12:56 16,7 C 58 % 1024,5 hPa 0,0 l/m 12,3 km/h (3 Bft) O-NO 68 2 min 0,000 mm 3,9 UV-I 792 W/m 8,4 C 14,1 C 19,3 km/h (3 Bft) 100,00 %
09.04.2017 12:58 16,7 C 58 % 1024,5 hPa 0,0 l/m 14,5 km/h (3 Bft) NO 44 2 min 0,000 mm 3,9 UV-I 793 W/m 8,4 C 13,4 C 20,9 km/h (4 Bft) 98,00 %
09.04.2017 13:00 16,6 C 58 % 1024,5 hPa 0,0 l/m 17,0 km/h (3 Bft) O-NO 78 2 min 0,000 mm 3,9 UV-I 794 W/m 8,3 C 12,6 C 24,1 km/h (4 Bft) 100,00 %
09.04.2017 13:02 16,7 C 60 % 1024,5 hPa 0,0 l/m 15,2 km/h (3 Bft) O-NO 57 2 min 0,457 mm 3,9 UV-I 792 W/m 8,9 C 13,2 C 25,7 km/h (4 Bft) 98,21 %
09.04.2017 13:04 16,7 C 54 % 1024,5 hPa 0,0 l/m 17,9 km/h (3 Bft) O-NO 66 2 min 0,000 mm 3,9 UV-I 789 W/m 7,3 C 12,5 C 22,5 km/h (4 Bft) 100,00 %
09.04.2017 13:06 16,8 C 54 % 1024,5 hPa 0,0 l/m 13,2 km/h (3 Bft) NO 44 2 min 0,000 mm 3,9 UV-I 790 W/m 7,4 C 13,9 C 19,3 km/h (3 Bft) 100,00 %
09.04.2017 13:08 16,7 C 56 % 1024,5 hPa 0,0 l/m 9,1 km/h (2 Bft) NO 51 2 min 0,000 mm 3,9 UV-I 792 W/m 7,9 C 15,4 C 17,7 km/h (3 Bft) 100,00 %
09.04.2017 13:10 16,8 C 56 % 1024,3 hPa 0,0 l/m 8,3 km/h (2 Bft) N-NO 30 2 min 0,000 mm 3,9 UV-I 790 W/m 8,0 C 15,8 C 14,5 km/h (3 Bft) 97,56 %
09.04.2017 13:12 17,0 C 58 % 1024,4 hPa 0,0 l/m 10,1 km/h (2 Bft) NO 52 2 min 0,000 mm 3,9 UV-I 791 W/m 8,7 C 15,3 C 17,7 km/h (3 Bft) 100,00 %
09.04.2017 13:14 17,1 C 53 % 1024,5 hPa 0,0 l/m 13,9 km/h (3 Bft) NO 55 2 min 0,000 mm 3,9 UV-I 792 W/m 7,4 C 14,1 C 20,9 km/h (4 Bft) 100,00 %
09.04.2017 13:16 16,9 C 52 % 1024,4 hPa 0,0 l/m 11,6 km/h (2 Bft) O-NO 63 2 min 0,000 mm 3,9 UV-I 791 W/m 7,0 C 14,6 C 17,7 km/h (3 Bft) 100,00 %
09.04.2017 13:18 17,0 C 57 % 1024,4 hPa 0,0 l/m 6,4 km/h (2 Bft) NO 55 2 min 0,000 mm 3,9 UV-I 790 W/m 8,4 C 17,0 C 11,3 km/h (2 Bft) 100,00 %
09.04.2017 13:20 17,1 C 56 % 1024,4 hPa 0,0 l/m 10,3 km/h (2 Bft) O-NO 74 2 min 0,000 mm 3,9 UV-I 789 W/m 8,3 C 15,3 C 17,7 km/h (3 Bft) 100,00 %
09.04.2017 13:22 17,1 C 55 % 1024,4 hPa 0,0 l/m 9,8 km/h (2 Bft) O-NO 76 2 min 0,000 mm 3,9 UV-I 790 W/m 8,0 C 15,5 C 17,7 km/h (3 Bft) 95,45 %
09.04.2017 13:24 17,3 C 56 % 1024,4 hPa 0,0 l/m 10,5 km/h (2 Bft) O-NO 60 2 min 0,000 mm 3,9 UV-I 788 W/m 8,4 C 15,5 C 17,7 km/h (3 Bft) 97,73 %
09.04.2017 13:26 17,2 C 51 % 1024,3 hPa 0,0 l/m 14,6 km/h (3 Bft) NO 34 2 min 0,000 mm 3,9 UV-I 791 W/m 7,0 C 14,0 C 20,9 km/h (4 Bft) 100,00 %
09.04.2017 13:28 17,3 C 51 % 1024,4 hPa 0,0 l/m 17,7 km/h (3 Bft) O-NO 77 2 min 0,000 mm 3,9 UV-I 787 W/m 7,1 C 13,3 C 24,1 km/h (4 Bft) 100,00 %
09.04.2017 13:30 17,2 C 51 % 1024,4 hPa 0,0 l/m 13,2 km/h (3 Bft) O-NO 62 2 min 0,000 mm 3,9 UV-I 789 W/m 7,0 C 14,4 C 17,7 km/h (3 Bft) 96,00 %
09.04.2017 13:32 17,2 C 51 % 1024,4 hPa 0,0 l/m 9,9 km/h (2 Bft) O 80 2 min 0,000 mm 3,9 UV-I 788 W/m 7,0 C 15,6 C 14,5 km/h (3 Bft) 100,00 %
09.04.2017 13:34 17,2 C 51 % 1024,3 hPa 0,0 l/m 11,7 km/h (2 Bft) NO 34 2 min 0,000 mm 3,9 UV-I 787 W/m 7,0 C 14,9 C 17,7 km/h (3 Bft) 100,00 %
09.04.2017 13:36 17,3 C 57 % 1024,3 hPa 0,0 l/m 13,6 km/h (3 Bft) NO 36 2 min 0,000 mm 3,9 UV-I 783 W/m 8,7 C 14,4 C 22,5 km/h (4 Bft) 100,00 %
09.04.2017 13:38 17,5 C 56 % 1024,2 hPa 0,0 l/m 12,0 km/h (2 Bft) N-NO 23 2 min 0,000 mm 3,9 UV-I 782 W/m 8,6 C 15,2 C 17,7 km/h (3 Bft) 97,22 %
09.04.2017 13:40 17,7 C 60 % 1024,2 hPa 0,0 l/m 4,0 km/h (1 Bft) NO 41 2 min 0,000 mm 3,9 UV-I 780 W/m 9,8 C 17,7 C 8,0 km/h (2 Bft) 95,12 %
09.04.2017 13:42 17,9 C 59 % 1024,2 hPa 0,0 l/m 8,2 km/h (2 Bft) NO 41 2 min 0,000 mm 3,9 UV-I 783 W/m 9,8 C 17,1 C 14,5 km/h (3 Bft) 96,23 %
09.04.2017 13:44 17,9 C 58 % 1024,1 hPa 0,0 l/m 9,3 km/h (2 Bft) O-NO 63 2 min 0,000 mm 3,9 UV-I 782 W/m 9,5 C 16,6 C 14,5 km/h (3 Bft) 98,11 %
09.04.2017 13:46 17,8 C 53 % 1024,1 hPa 0,0 l/m 11,4 km/h (2 Bft) NO 40 2 min 0,000 mm 3,9 UV-I 783 W/m 8,1 C 15,7 C 20,9 km/h (4 Bft) 94,00 %
09.04.2017 13:48 17,7 C 50 % 1024,2 hPa 0,0 l/m 12,4 km/h (3 Bft) O-NO 75 2 min 0,000 mm 3,9 UV-I 781 W/m 7,1 C 15,2 C 17,7 km/h (3 Bft) 97,56 %
09.04.2017 13:50 17,7 C 54 % 1024,1 hPa 0,0 l/m 15,0 km/h (3 Bft) NO 43 2 min 0,000 mm 3,9 UV-I 780 W/m 8,3 C 14,5 C 20,9 km/h (4 Bft) 92,45 %
09.04.2017 13:52 17,6 C 49 % 1024,1 hPa 0,0 l/m 12,3 km/h (3 Bft) O-NO 67 2 min 0,000 mm 3,8 UV-I 780 W/m 6,8 C 15,2 C 17,7 km/h (3 Bft) 95,74 %
09.04.2017 13:54 17,5 C 47 % 1024,1 hPa 0,0 l/m 14,3 km/h (3 Bft) O 80 2 min 0,000 mm 3,8 UV-I 776 W/m 6,1 C 14,4 C 19,3 km/h (3 Bft) 97,56 %
09.04.2017 13:56 17,5 C 47 % 1024,1 hPa 0,0 l/m 13,0 km/h (3 Bft) O 82 2 min 0,000 mm 3,8 UV-I 773 W/m 6,1 C 14,8 C 17,7 km/h (3 Bft) 93,62 %
09.04.2017 13:58 17,6 C 50 % 1024,0 hPa 0,0 l/m 11,8 km/h (2 Bft) O 86 2 min 0,000 mm 3,8 UV-I 772 W/m 7,1 C 15,3 C 16,1 km/h (3 Bft) 97,73 %
09.04.2017 14:00 17,7 C 52 % 1024,0 hPa 0,0 l/m 14,0 km/h (3 Bft) NO 38 2 min 0,508 mm 3,7 UV-I 769 W/m 7,7 C 14,8 C 19,3 km/h (3 Bft) 96,23 %
09.04.2017 14:02 17,8 C 52 % 1024,1 hPa 0,0 l/m 15,2 km/h (3 Bft) NO 56 2 min 0,000 mm 3,7 UV-I 768 W/m 7,8 C 14,5 C 20,9 km/h (4 Bft) 96,30 %
09.04.2017 14:04 17,9 C 56 % 1024,0 hPa 0,0 l/m 9,9 km/h (2 Bft) NO 41 2 min 0,000 mm 3,7 UV-I 766 W/m 9,0 C 16,4 C 20,9 km/h (4 Bft) 98,44 %
09.04.2017 14:06 17,9 C 52 % 1024,1 hPa 0,0 l/m 16,0 km/h (3 Bft) NO 47 2 min 0,000 mm 3,7 UV-I 765 W/m 7,9 C 14,4 C 20,9 km/h (4 Bft) 96,00 %
09.04.2017 14:08 17,8 C 49 % 1024,1 hPa 0,0 l/m 9,8 km/h (2 Bft) NO 53 2 min 0,000 mm 3,7 UV-I 763 W/m 6,9 C 16,3 C 14,5 km/h (3 Bft) 100,00 %
09.04.2017 14:10 17,8 C 52 % 1024,0 hPa 0,0 l/m 8,0 km/h (2 Bft) NO 52 2 min 0,000 mm 3,6 UV-I 759 W/m 7,8 C 17,0 C 11,3 km/h (2 Bft) 100,00 %
09.04.2017 14:12 18,1 C 51 % 1023,9 hPa 0,0 l/m 9,9 km/h (2 Bft) O 99 2 min 0,000 mm 3,6 UV-I 757 W/m 7,8 C 16,6 C 17,7 km/h (3 Bft) 100,00 %
09.04.2017 14:14 18,0 C 50 % 1024,0 hPa 0,0 l/m 14,1 km/h (3 Bft) O 80 2 min 0,000 mm 3,6 UV-I 755 W/m 7,4 C 15,1 C 20,9 km/h (4 Bft) 100,00 %
09.04.2017 14:16 17,8 C 48 % 1024,0 hPa 0,0 l/m 11,5 km/h (2 Bft) O 99 2 min 0,000 mm 3,6 UV-I 752 W/m 6,6 C 15,7 C 19,3 km/h (3 Bft) 100,00 %
09.04.2017 14:18 17,8 C 48 % 1023,9 hPa 0,0 l/m 5,9 km/h (2 Bft) O-NO 75 2 min 0,000 mm 3,5 UV-I 750 W/m 6,6 C 17,8 C 9,7 km/h (2 Bft) 100,00 %
09.04.2017 14:20 17,8 C 47 % 1023,8 hPa 0,0 l/m 9,5 km/h (2 Bft) O-SO 117 2 min 0,000 mm 3,5 UV-I 746 W/m 6,3 C 16,4 C 12,9 km/h (3 Bft) 100,00 %
09.04.2017 14:23 17,6 C 48 % 1023,8 hPa 0,0 l/m 8,2 km/h (2 Bft) NO 53 3 min 0,000 mm 3,5 UV-I 746 W/m 6,5 C 16,7 C 16,1 km/h (3 Bft) 98,51 %
09.04.2017 14:24 17,6 C 50 % 1023,8 hPa 0,0 l/m 9,6 km/h (2 Bft) O-NO 65 1 min 0,000 mm 3,5 UV-I 745 W/m 7,1 C 16,1 C 14,5 km/h (3 Bft) 100,00 %
09.04.2017 14:26 17,8 C 49 % 1023,8 hPa 0,0 l/m 10,4 km/h (2 Bft) O-NO 77 2 min 0,000 mm 3,5 UV-I 743 W/m 6,9 C 16,1 C 14,5 km/h (3 Bft) 100,00 %
09.04.2017 14:28 17,8 C 48 % 1023,8 hPa 0,0 l/m 8,0 km/h (2 Bft) O-NO 67 2 min 0,000 mm 3,5 UV-I 739 W/m 6,6 C 17,0 C 14,5 km/h (3 Bft) 100,00 %
09.04.2017 14:30 17,8 C 48 % 1023,7 hPa 0,0 l/m 7,8 km/h (2 Bft) NO 41 2 min 0,000 mm 3,5 UV-I 737 W/m 6,6 C 17,1 C 14,5 km/h (3 Bft) 100,00 %
09.04.2017 14:32 17,8 C 48 % 1023,8 hPa 0,0 l/m 11,9 km/h (2 Bft) O 90 2 min 0,000 mm 3,4 UV-I 735 W/m 6,6 C 15,5 C 19,3 km/h (3 Bft) 100,00 %
09.04.2017 14:34 17,9 C 48 % 1023,8 hPa 0,0 l/m 11,2 km/h (2 Bft) O-NO 67 2 min 0,000 mm 3,4 UV-I 731 W/m 6,7 C 15,9 C 14,5 km/h (3 Bft) 100,00 %
09.04.2017 14:36 17,9 C 50 % 1023,8 hPa 0,0 l/m 6,7 km/h (2 Bft) O 92 2 min 0,000 mm 3,4 UV-I 730 W/m 7,3 C 17,8 C 12,9 km/h (3 Bft) 97,87 %
09.04.2017 14:38 17,9 C 47 % 1023,7 hPa 0,0 l/m 1,0 km/h (0 Bft) O 82 2 min 0,000 mm 3,4 UV-I 728 W/m 6,4 C 17,9 C 4,8 km/h (1 Bft) 97,37 %
09.04.2017 14:40 17,7 C 48 % 1023,7 hPa 0,0 l/m 1,9 km/h (1 Bft) O-SO 111 2 min 0,000 mm 3,4 UV-I 723 W/m 6,6 C 17,7 C 4,8 km/h (1 Bft) 98,00 %
09.04.2017 14:42 17,9 C 57 % 1023,7 hPa 0,0 l/m 5,2 km/h (1 Bft) NO 42 2 min 0,000 mm 3,3 UV-I 721 W/m 9,3 C 17,9 C 8,0 km/h (2 Bft) 100,00 %
09.04.2017 14:44 18,2 C 55 % 1023,6 hPa 0,0 l/m 11,0 km/h (2 Bft) NO 49 2 min 0,000 mm 3,3 UV-I 717 W/m 9,0 C 16,3 C 17,7 km/h (3 Bft) 97,56 %
09.04.2017 14:46 18,2 C 53 % 1023,7 hPa 0,0 l/m 7,4 km/h (2 Bft) N 9 2 min 0,000 mm 3,3 UV-I 715 W/m 8,5 C 17,7 C 16,1 km/h (3 Bft) 100,00 %
09.04.2017 14:48 18,1 C 52 % 1023,5 hPa 0,0 l/m 4,4 km/h (1 Bft) N-NO 27 2 min 0,000 mm 3,3 UV-I 713 W/m 8,1 C 18,1 C 11,3 km/h (2 Bft) 97,37 %
09.04.2017 14:50 18,0 C 51 % 1023,6 hPa 0,0 l/m 4,2 km/h (1 Bft) NO 53 2 min 0,000 mm 3,2 UV-I 708 W/m 7,7 C 18,0 C 11,3 km/h (2 Bft) 100,00 %
09.04.2017 14:52 18,1 C 50 % 1023,5 hPa 0,0 l/m 9,0 km/h (2 Bft) O-NO 59 2 min 0,000 mm 3,2 UV-I 705 W/m 7,5 C 16,9 C 16,1 km/h (3 Bft) 98,00 %
09.04.2017 14:54 18,2 C 51 % 1023,5 hPa 0,0 l/m 7,1 km/h (2 Bft) NO 36 2 min 0,000 mm 3,2 UV-I 701 W/m 7,9 C 17,9 C 9,7 km/h (2 Bft) 97,22 %
09.04.2017 14:56 18,2 C 53 % 1023,5 hPa 0,0 l/m 5,0 km/h (1 Bft) N-NO 13 2 min 0,000 mm 3,1 UV-I 698 W/m 8,5 C 18,2 C 12,9 km/h (3 Bft) 100,00 %
09.04.2017 14:58 18,2 C 57 % 1023,5 hPa 0,0 l/m 5,2 km/h (1 Bft) N-NO 22 2 min 0,000 mm 3,1 UV-I 694 W/m 9,5 C 18,2 C 12,9 km/h (3 Bft) 100,00 %
09.04.2017 15:00 18,2 C 55 % 1023,5 hPa 0,0 l/m 5,7 km/h (1 Bft) N 10 2 min 0,458 mm 3,1 UV-I 691 W/m 9,0 C 18,2 C 12,9 km/h (3 Bft) 98,21 %
09.04.2017 15:02 18,2 C 57 % 1023,4 hPa 0,0 l/m 6,0 km/h (2 Bft) NO 38 2 min 0,000 mm 3,1 UV-I 687 W/m 9,5 C 18,2 C 14,5 km/h (3 Bft) 100,00 %
09.04.2017 15:04 18,4 C 48 % 1023,4 hPa 0,0 l/m 5,9 km/h (2 Bft) NO 48 2 min 0,000 mm 3,0 UV-I 684 W/m 7,2 C 18,4 C 9,7 km/h (2 Bft) 100,00 %
09.04.2017 15:06 18,6 C 53 % 1023,4 hPa 0,0 l/m 9,8 km/h (2 Bft) N-NO 20 2 min 0,000 mm 3,0 UV-I 683 W/m 8,8 C 17,2 C 19,3 km/h (3 Bft) 97,87 %
09.04.2017 15:08 18,5 C 53 % 1023,4 hPa 0,0 l/m 6,7 km/h (2 Bft) N-NO 24 2 min 0,000 mm 3,0 UV-I 677 W/m 8,7 C 18,4 C 9,7 km/h (2 Bft) 96,23 %
09.04.2017 15:10 18,4 C 50 % 1023,4 hPa 0,0 l/m 4,3 km/h (1 Bft) N-NO 25 2 min 0,000 mm 2,9 UV-I 674 W/m 7,8 C 18,4 C 8,0 km/h (2 Bft) 100,00 %
09.04.2017 15:12 18,2 C 47 % 1023,4 hPa 0,0 l/m 0,6 km/h (0 Bft) N-NO 25 2 min 0,000 mm 2,9 UV-I 669 W/m 6,7 C 18,2 C 3,2 km/h (1 Bft) 100,00 %
09.04.2017 15:14 18,3 C 50 % 1023,4 hPa 0,0 l/m 3,2 km/h (1 Bft) O-NO 57 2 min 0,000 mm 2,9 UV-I 669 W/m 7,7 C 18,3 C 6,4 km/h (2 Bft) 95,74 %
09.04.2017 15:16 18,4 C 50 % 1023,4 hPa 0,0 l/m 5,9 km/h (2 Bft) O-NO 77 2 min 0,000 mm 2,9 UV-I 665 W/m 7,8 C 18,4 C 11,3 km/h (2 Bft) 95,56 %
09.04.2017 15:18 18,4 C 46 % 1023,4 hPa 0,0 l/m 8,0 km/h (2 Bft) NO 38 2 min 0,000 mm 2,8 UV-I 660 W/m 6,6 C 17,7 C 14,5 km/h (3 Bft) 98,00 %
09.04.2017 15:20 18,4 C 52 % 1023,3 hPa 0,0 l/m 7,7 km/h (2 Bft) NO 47 2 min 0,000 mm 2,8 UV-I 656 W/m 8,4 C 17,8 C 12,9 km/h (3 Bft) 97,14 %
09.04.2017 15:22 18,3 C 47 % 1023,3 hPa 0,0 l/m 2,7 km/h (1 Bft) N-NW 336 2 min 0,000 mm 2,7 UV-I 651 W/m 6,8 C 18,3 C 6,4 km/h (2 Bft) 98,11 %
09.04.2017 15:24 18,2 C 45 % 1023,3 hPa 0,0 l/m 1,0 km/h (0 Bft) NO 35 2 min 0,000 mm 2,7 UV-I 648 W/m 6,1 C 18,2 C 3,2 km/h (1 Bft) 97,87 %
09.04.2017 15:26 18,3 C 46 % 1023,3 hPa 0,0 l/m 5,4 km/h (1 Bft) O-NO 69 2 min 0,000 mm 2,7 UV-I 642 W/m 6,5 C 18,3 C 8,0 km/h (2 Bft) 100,00 %
09.04.2017 15:28 18,3 C 45 % 1023,2 hPa 0,0 l/m 3,9 km/h (1 Bft) NO 55 2 min 0,000 mm 2,6 UV-I 638 W/m 6,2 C 18,3 C 8,0 km/h (2 Bft) 94,00 %
09.04.2017 15:30 18,2 C 44 % 1023,2 hPa 0,0 l/m 3,8 km/h (1 Bft) O 80 2 min 0,000 mm 2,6 UV-I 634 W/m 5,7 C 18,2 C 6,4 km/h (2 Bft) 97,78 %
09.04.2017 15:32 18,3 C 46 % 1023,2 hPa 0,0 l/m 5,1 km/h (1 Bft) O-NO 58 2 min 0,000 mm 2,6 UV-I 631 W/m 6,5 C 18,3 C 9,7 km/h (2 Bft) 96,15 %
09.04.2017 15:34 18,3 C 48 % 1023,3 hPa 0,0 l/m 5,5 km/h (1 Bft) O-NO 78 2 min 0,000 mm 2,6 UV-I 627 W/m 7,1 C 18,3 C 11,3 km/h (2 Bft) 97,62 %
09.04.2017 15:36 18,5 C 45 % 1023,2 hPa 0,0 l/m 5,3 km/h (1 Bft) O 80 2 min 0,000 mm 2,5 UV-I 623 W/m 6,3 C 18,5 C 11,3 km/h (2 Bft) 96,00 %
09.04.2017 15:38 18,4 C 46 % 1023,2 hPa 0,0 l/m 3,1 km/h (1 Bft) NO 55 2 min 0,000 mm 2,5 UV-I 620 W/m 6,6 C 18,4 C 4,8 km/h (1 Bft) 97,37 %
09.04.2017 15:40 18,4 C 45 % 1023,1 hPa 0,0 l/m 1,6 km/h (1 Bft) N-NO 26 2 min 0,000 mm 2,5 UV-I 617 W/m 6,3 C 18,4 C 3,2 km/h (1 Bft) 96,23 %
09.04.2017 15:42 18,5 C 49 % 1023,1 hPa 0,0 l/m 6,4 km/h (2 Bft) O-NO 61 2 min 0,000 mm 2,4 UV-I 612 W/m 7,6 C 18,5 C 12,9 km/h (3 Bft) 96,23 %
09.04.2017 15:44 18,7 C 46 % 1023,1 hPa 0,0 l/m 5,6 km/h (1 Bft) O-NO 61 2 min 0,000 mm 2,4 UV-I 608 W/m 6,8 C 18,7 C 8,0 km/h (2 Bft) 97,50 %
09.04.2017 15:46 18,7 C 45 % 1023,0 hPa 0,0 l/m 7,2 km/h (2 Bft) O-NO 63 2 min 0,000 mm 2,3 UV-I 600 W/m 6,5 C 18,3 C 11,3 km/h (2 Bft) 96,00 %
09.04.2017 15:48 18,7 C 46 % 1023,0 hPa 0,0 l/m 2,4 km/h (1 Bft) NO 49 2 min 0,000 mm 2,3 UV-I 595 W/m 6,8 C 18,7 C 4,8 km/h (1 Bft) 96,00 %
09.04.2017 15:50 18,8 C 49 % 1023,0 hPa 0,0 l/m 3,7 km/h (1 Bft) N 11 2 min 0,000 mm 2,3 UV-I 590 W/m 7,9 C 18,8 C 8,0 km/h (2 Bft) 95,74 %
09.04.2017 15:52 18,5 C 48 % 1023,0 hPa 0,0 l/m 1,6 km/h (1 Bft) N-NO 13 2 min 0,000 mm 2,2 UV-I 586 W/m 7,3 C 18,5 C 4,8 km/h (1 Bft) 94,00 %
09.04.2017 15:54 18,3 C 46 % 1023,1 hPa 0,0 l/m 1,2 km/h (1 Bft) N-NO 19 2 min 0,000 mm 2,2 UV-I 582 W/m 6,5 C 18,3 C 11,3 km/h (2 Bft) 92,11 %
09.04.2017 15:56 18,3 C 46 % 1023,0 hPa 0,0 l/m 7,5 km/h (2 Bft) NO 43 2 min 0,000 mm 2,2 UV-I 578 W/m 6,5 C 17,8 C 14,5 km/h (3 Bft) 96,23 %
09.04.2017 15:58 18,4 C 46 % 1023,0 hPa 0,0 l/m 7,2 km/h (2 Bft) O-NO 63 2 min 0,000 mm 2,2 UV-I 574 W/m 6,6 C 18,0 C 14,5 km/h (3 Bft) 97,56 %
09.04.2017 16:00 18,6 C 44 % 1023,0 hPa 0,0 l/m 6,4 km/h (2 Bft) O-NO 61 2 min 0,000 mm 2,1 UV-I 571 W/m 6,1 C 18,6 C 11,3 km/h (2 Bft) 96,00 %
09.04.2017 16:02 18,6 C 43 % 1022,9 hPa 0,0 l/m 5,0 km/h (1 Bft) O-NO 78 2 min 0,381 mm 2,1 UV-I 565 W/m 5,8 C 18,6 C 6,4 km/h (2 Bft) 100,00 %
09.04.2017 16:04 18,5 C 43 % 1022,9 hPa 0,0 l/m 1,8 km/h (1 Bft) O-NO 78 2 min 0,000 mm 2,0 UV-I 560 W/m 5,7 C 18,5 C 4,8 km/h (1 Bft) 94,74 %
09.04.2017 16:06 18,5 C 42 % 1022,9 hPa 0,0 l/m 2,9 km/h (1 Bft) O 91 2 min 0,000 mm 2,0 UV-I 556 W/m 5,3 C 18,5 C 6,4 km/h (2 Bft) 97,87 %
09.04.2017 16:08 18,5 C 45 % 1022,9 hPa 0,0 l/m 3,5 km/h (1 Bft) O-NO 65 2 min 0,000 mm 2,0 UV-I 550 W/m 6,3 C 18,5 C 8,0 km/h (2 Bft) 98,21 %
09.04.2017 16:10 18,6 C 45 % 1022,8 hPa 0,0 l/m 4,3 km/h (1 Bft) O-NO 60 2 min 0,000 mm 1,9 UV-I 546 W/m 6,4 C 18,6 C 6,4 km/h (2 Bft) 97,87 %
09.04.2017 16:12 18,4 C 43 % 1022,8 hPa 0,0 l/m 2,1 km/h (1 Bft) O-NO 57 2 min 0,000 mm 1,9 UV-I 540 W/m 5,6 C 18,4 C 8,0 km/h (2 Bft) 100,00 %
09.04.2017 16:14 18,7 C 45 % 1022,9 hPa 0,0 l/m 8,1 km/h (2 Bft) NO 56 2 min 0,000 mm 1,9 UV-I 537 W/m 6,5 C 17,9 C 12,9 km/h (3 Bft) 98,00 %
09.04.2017 16:16 18,7 C 46 % 1022,8 hPa 0,0 l/m 6,4 km/h (2 Bft) NO 44 2 min 0,000 mm 1,9 UV-I 533 W/m 6,8 C 18,7 C 9,7 km/h (2 Bft) 100,00 %
09.04.2017 16:18 18,7 C 44 % 1022,8 hPa 0,0 l/m 5,1 km/h (1 Bft) O 92 2 min 0,000 mm 1,8 UV-I 528 W/m 6,2 C 18,7 C 9,7 km/h (2 Bft) 97,37 %
09.04.2017 16:20 18,6 C 44 % 1022,8 hPa 0,0 l/m 5,2 km/h (1 Bft) O-NO 65 2 min 0,000 mm 1,8 UV-I 522 W/m 6,1 C 18,6 C 9,7 km/h (2 Bft) 100,00 %
09.04.2017 16:22 18,7 C 47 % 1022,8 hPa 0,0 l/m 3,6 km/h (1 Bft) O 82 2 min 0,000 mm 1,7 UV-I 516 W/m 7,2 C 18,7 C 8,0 km/h (2 Bft) 100,00 %
09.04.2017 16:24 18,7 C 44 % 1022,8 hPa 0,0 l/m 5,7 km/h (1 Bft) O-NO 67 2 min 0,000 mm 1,7 UV-I 510 W/m 6,2 C 18,7 C 9,7 km/h (2 Bft) 88,68 %
09.04.2017 16:26 18,6 C 46 % 1022,8 hPa 0,0 l/m 3,9 km/h (1 Bft) NO 44 2 min 0,000 mm 1,7 UV-I 505 W/m 6,8 C 18,6 C 6,4 km/h (2 Bft) 97,56 %
09.04.2017 16:28 18,6 C 46 % 1022,8 hPa 0,0 l/m 1,9 km/h (1 Bft) NO 44 2 min 0,000 mm 1,6 UV-I 498 W/m 6,8 C 18,6 C 3,2 km/h (1 Bft) 100,00 %
09.04.2017 16:30 18,6 C 45 % 1022,7 hPa 0,0 l/m 1,1 km/h (1 Bft) O-NO 64 2 min 0,000 mm 1,6 UV-I 493 W/m 6,4 C 18,6 C 3,2 km/h (1 Bft) 100,00 %
09.04.2017 16:32 18,7 C 47 % 1022,7 hPa 0,0 l/m 2,8 km/h (1 Bft) NW 324 2 min 0,000 mm 1,6 UV-I 488 W/m 7,2 C 18,7 C 6,4 km/h (2 Bft) 100,00 %
09.04.2017 16:34 18,7 C 48 % 1022,7 hPa 0,0 l/m 2,2 km/h (1 Bft) N-NO 21 2 min 0,000 mm 1,5 UV-I 482 W/m 7,5 C 18,7 C 6,4 km/h (2 Bft) 97,37 %
09.04.2017 16:36 18,9 C 44 % 1022,7 hPa 0,0 l/m 5,3 km/h (1 Bft) NO 38 2 min 0,000 mm 1,5 UV-I 478 W/m 6,4 C 18,9 C 9,7 km/h (2 Bft) 98,21 %
09.04.2017 16:38 18,8 C 47 % 1022,7 hPa 0,0 l/m 6,1 km/h (2 Bft) NO 35 2 min 0,000 mm 1,5 UV-I 473 W/m 7,2 C 18,8 C 12,9 km/h (3 Bft) 100,00 %
09.04.2017 16:40 18,8 C 49 % 1022,7 hPa 0,0 l/m 7,4 km/h (2 Bft) N-NO 24 2 min 0,000 mm 1,4 UV-I 467 W/m 7,9 C 18,4 C 11,3 km/h (2 Bft) 100,00 %
09.04.2017 16:42 18,7 C 46 % 1022,7 hPa 0,0 l/m 6,1 km/h (2 Bft) N-NO 25 2 min 0,000 mm 1,4 UV-I 462 W/m 6,8 C 18,7 C 8,0 km/h (2 Bft) 98,11 %
09.04.2017 16:44 18,7 C 47 % 1022,6 hPa 0,0 l/m 5,4 km/h (1 Bft) N-NO 12 2 min 0,000 mm 1,4 UV-I 458 W/m 7,2 C 18,7 C 8,0 km/h (2 Bft) 100,00 %
09.04.2017 16:46 18,7 C 45 % 1022,6 hPa 0,0 l/m 5,0 km/h (1 Bft) NO 53 2 min 0,000 mm 1,3 UV-I 453 W/m 6,5 C 18,7 C 8,0 km/h (2 Bft) 100,00 %
09.04.2017 16:48 18,8 C 46 % 1022,7 hPa 0,0 l/m 3,3 km/h (1 Bft) NO 53 2 min 0,000 mm 1,3 UV-I 446 W/m 6,9 C 18,8 C 4,8 km/h (1 Bft) 100,00 %
09.04.2017 16:50 18,9 C 46 % 1022,6 hPa 0,0 l/m 0,5 km/h (0 Bft) NO 53 2 min 0,000 mm 1,3 UV-I 440 W/m 7,0 C 18,9 C 3,2 km/h (1 Bft) 100,00 %
09.04.2017 16:52 18,8 C 42 % 1022,6 hPa 0,0 l/m 0,7 km/h (0 Bft) NO 53 2 min 0,000 mm 1,3 UV-I 434 W/m 5,6 C 18,8 C 3,2 km/h (1 Bft) 100,00 %
09.04.2017 16:54 18,8 C 44 % 1022,6 hPa 0,0 l/m 1,0 km/h (0 Bft) NO 53 2 min 0,000 mm 1,2 UV-I 429 W/m 6,3 C 18,8 C 3,2 km/h (1 Bft) 97,87 %
09.04.2017 16:56 18,9 C 45 % 1022,5 hPa 0,0 l/m 3,0 km/h (1 Bft) NO 53 2 min 0,000 mm 1,2 UV-I 423 W/m 6,7 C 18,9 C 4,8 km/h (1 Bft) 100,00 %
09.04.2017 16:58 18,9 C 43 % 1022,5 hPa 0,0 l/m 2,9 km/h (1 Bft) O-NO 74 2 min 0,000 mm 1,2 UV-I 417 W/m 6,0 C 18,9 C 6,4 km/h (2 Bft) 100,00 %
09.04.2017 17:00 18,8 C 45 % 1022,5 hPa 0,0 l/m 4,3 km/h (1 Bft) NO 53 2 min 0,304 mm 1,2 UV-I 412 W/m 6,6 C 18,8 C 6,4 km/h (2 Bft) 100,00 %
09.04.2017 17:02 18,8 C 50 % 1022,5 hPa 0,0 l/m 3,9 km/h (1 Bft) NO 38 2 min 0,000 mm 1,1 UV-I 406 W/m 8,2 C 18,8 C 8,0 km/h (2 Bft) 100,00 %
09.04.2017 17:04 18,7 C 46 % 1022,5 hPa 0,0 l/m 6,1 km/h (2 Bft) NO 44 2 min 0,000 mm 1,1 UV-I 400 W/m 6,8 C 18,7 C 8,0 km/h (2 Bft) 100,00 %
09.04.2017 17:06 18,7 C 48 % 1022,5 hPa 0,0 l/m 7,6 km/h (2 Bft) N-NO 31 2 min 0,000 mm 1,1 UV-I 394 W/m 7,5 C 18,2 C 12,9 km/h (3 Bft) 97,56 %
09.04.2017 17:08 18,6 C 46 % 1022,5 hPa 0,0 l/m 8,5 km/h (2 Bft) N-NO 24 2 min 0,000 mm 1,0 UV-I 387 W/m 6,8 C 17,7 C 14,5 km/h (3 Bft) 100,00 %
09.04.2017 17:10 18,4 C 49 % 1022,5 hPa 0,0 l/m 5,9 km/h (2 Bft) NO 34 2 min 0,000 mm 1,0 UV-I 380 W/m 7,5 C 18,4 C 12,9 km/h (3 Bft) 100,00 %
09.04.2017 17:12 18,4 C 50 % 1022,4 hPa 0,0 l/m 0,8 km/h (0 Bft) N-NO 12 2 min 0,000 mm 1,0 UV-I 377 W/m 7,8 C 18,4 C 3,2 km/h (1 Bft) 100,00 %
09.04.2017 17:14 18,3 C 45 % 1022,4 hPa 0,0 l/m 1,5 km/h (1 Bft) N 9 2 min 0,000 mm 1,0 UV-I 369 W/m 6,2 C 18,3 C 3,2 km/h (1 Bft) 100,00 %
09.04.2017 17:16 18,3 C 43 % 1022,4 hPa 0,0 l/m 1,0 km/h (0 Bft) N 9 2 min 0,000 mm 0,9 UV-I 363 W/m 5,5 C 18,3 C 3,2 km/h (1 Bft) 100,00 %
09.04.2017 17:18 18,3 C 46 % 1022,4 hPa 0,0 l/m 2,0 km/h (1 Bft) N-NO 22 2 min 0,000 mm 0,9 UV-I 357 W/m 6,5 C 18,3 C 8,0 km/h (2 Bft) 100,00 %
09.04.2017 17:20 18,3 C 47 % 1022,4 hPa 0,0 l/m 5,1 km/h (1 Bft) N-NO 20 2 min 0,000 mm 0,9 UV-I 351 W/m 6,8 C 18,3 C 8,0 km/h (2 Bft) 100,00 %
09.04.2017 17:22 18,3 C 44 % 1022,4 hPa 0,0 l/m 5,6 km/h (1 Bft) NO 51 2 min 0,000 mm 0,8 UV-I 344 W/m 5,8 C 18,3 C 8,0 km/h (2 Bft) 96,00 %
09.04.2017 17:24 18,3 C 46 % 1022,4 hPa 0,0 l/m 4,5 km/h (1 Bft) NO 45 2 min 0,000 mm 0,8 UV-I 339 W/m 6,5 C 18,3 C 6,4 km/h (2 Bft) 97,37 %
09.04.2017 17:26 18,4 C 48 % 1022,3 hPa 0,0 l/m 1,9 km/h (1 Bft) NO 40 2 min 0,000 mm 0,8 UV-I 332 W/m 7,2 C 18,4 C 4,8 km/h (1 Bft) 98,00 %
09.04.2017 17:28 18,5 C 44 % 1022,3 hPa 0,0 l/m 4,7 km/h (1 Bft) NO 55 2 min 0,000 mm 0,8 UV-I 326 W/m 6,0 C 18,5 C 9,7 km/h (2 Bft) 98,11 %
09.04.2017 17:30 18,5 C 43 % 1022,2 hPa 0,0 l/m 5,5 km/h (1 Bft) NO 40 2 min 0,000 mm 0,8 UV-I 321 W/m 5,7 C 18,5 C 8,0 km/h (2 Bft) 97,87 %
09.04.2017 17:32 18,5 C 44 % 1022,2 hPa 0,0 l/m 7,1 km/h (2 Bft) NO 47 2 min 0,000 mm 0,7 UV-I 314 W/m 6,0 C 18,2 C 11,3 km/h (2 Bft) 97,62 %
09.04.2017 17:34 18,4 C 45 % 1022,2 hPa 0,0 l/m 4,9 km/h (1 Bft) N-NO 24 2 min 0,000 mm 0,7 UV-I 308 W/m 6,3 C 18,4 C 9,7 km/h (2 Bft) 97,56 %
09.04.2017 17:36 18,3 C 40 % 1022,2 hPa 0,0 l/m 1,8 km/h (1 Bft) N-NO 24 2 min 0,000 mm 0,7 UV-I 302 W/m 4,5 C 18,3 C 4,8 km/h (1 Bft) 96,43 %
09.04.2017 17:38 18,3 C 44 % 1022,2 hPa 0,0 l/m 3,2 km/h (1 Bft) O-NO 57 2 min 0,000 mm 0,7 UV-I 295 W/m 5,8 C 18,3 C 6,4 km/h (2 Bft) 97,37 %
09.04.2017 17:40 18,4 C 40 % 1022,2 hPa 0,0 l/m 3,5 km/h (1 Bft) O-NO 57 2 min 0,000 mm 0,6 UV-I 290 W/m 4,6 C 18,4 C 8,0 km/h (2 Bft) 96,23 %
09.04.2017 17:42 18,4 C 41 % 1022,2 hPa 0,0 l/m 1,1 km/h (1 Bft) O-NO 57 2 min 0,000 mm 0,6 UV-I 284 W/m 4,9 C 18,4 C 4,8 km/h (1 Bft) 98,00 %
09.04.2017 17:44 18,4 C 46 % 1022,1 hPa 0,0 l/m 3,8 km/h (1 Bft) O-NO 61 2 min 0,000 mm 0,6 UV-I 277 W/m 6,6 C 18,4 C 9,7 km/h (2 Bft) 97,14 %
09.04.2017 17:46 18,5 C 40 % 1022,1 hPa 0,0 l/m 6,2 km/h (2 Bft) O-NO 68 2 min 0,000 mm 0,6 UV-I 272 W/m 4,6 C 18,5 C 9,7 km/h (2 Bft) 94,64 %
09.04.2017 17:48 18,6 C 42 % 1022,1 hPa 0,0 l/m 3,5 km/h (1 Bft) NO 47 2 min 0,000 mm 0,6 UV-I 266 W/m 5,4 C 18,6 C 6,4 km/h (2 Bft) 92,00 %
09.04.2017 17:50 18,4 C 43 % 1022,1 hPa 0,0 l/m 3,4 km/h (1 Bft) NO 49 2 min 0,000 mm 0,5 UV-I 259 W/m 5,6 C 18,4 C 6,4 km/h (2 Bft) 92,68 %
09.04.2017 17:52 18,3 C 43 % 1022,1 hPa 0,0 l/m 4,3 km/h (1 Bft) NO 40 2 min 0,000 mm 0,5 UV-I 253 W/m 5,5 C 18,3 C 6,4 km/h (2 Bft) 90,57 %
09.04.2017 17:54 18,3 C 40 % 1022,1 hPa 0,0 l/m 4,6 km/h (1 Bft) O-NO 63 2 min 0,000 mm 0,5 UV-I 248 W/m 4,5 C 18,3 C 6,4 km/h (2 Bft) 92,68 %
09.04.2017 17:56 18,3 C 40 % 1022,0 hPa 0,0 l/m 3,5 km/h (1 Bft) O-NO 70 2 min 0,000 mm 0,5 UV-I 242 W/m 4,5 C 18,3 C 4,8 km/h (1 Bft) 92,68 %
09.04.2017 17:58 18,4 C 41 % 1022,0 hPa 0,0 l/m 2,7 km/h (1 Bft) O 83 2 min 0,000 mm 0,4 UV-I 237 W/m 4,9 C 18,4 C 4,8 km/h (1 Bft) 94,00 %
09.04.2017 18:00 18,4 C 42 % 1022,1 hPa 0,0 l/m 2,7 km/h (1 Bft) O 84 2 min 0,000 mm 0,0 UV-I 232 W/m 5,3 C 18,4 C 4,8 km/h (1 Bft) 98,00 %
09.04.2017 18:02 18,4 C 45 % 1022,0 hPa 0,0 l/m 2,7 km/h (1 Bft) O 83 2 min 0,204 mm 0,0 UV-I 226 W/m 6,3 C 18,4 C 4,8 km/h (1 Bft) 93,62 %
09.04.2017 18:04 18,4 C 43 % 1022,0 hPa 0,0 l/m 1,5 km/h (1 Bft) O-NO 73 2 min 0,000 mm 0,0 UV-I 219 W/m 5,6 C 18,4 C 4,8 km/h (1 Bft) 95,24 %
09.04.2017 18:06 18,3 C 43 % 1022,0 hPa 0,0 l/m 2,9 km/h (1 Bft) O-NO 58 2 min 0,000 mm 0,0 UV-I 214 W/m 5,5 C 18,3 C 4,8 km/h (1 Bft) 94,34 %
09.04.2017 18:08 18,3 C 39 % 1022,0 hPa 0,0 l/m 4,8 km/h (1 Bft) O-NO 67 2 min 0,000 mm 0,0 UV-I 208 W/m 4,1 C 18,3 C 6,4 km/h (2 Bft) 95,12 %
09.04.2017 18:10 18,3 C 42 % 1022,0 hPa 0,0 l/m 4,7 km/h (1 Bft) O-NO 66 2 min 0,000 mm 0,0 UV-I 204 W/m 5,2 C 18,3 C 6,4 km/h (2 Bft) 95,45 %
09.04.2017 18:12 18,4 C 45 % 1022,0 hPa 0,0 l/m 2,3 km/h (1 Bft) NO 53 2 min 0,000 mm 0,0 UV-I 198 W/m 6,3 C 18,4 C 4,8 km/h (1 Bft) 94,00 %
09.04.2017 18:14 18,2 C 46 % 1022,0 hPa 0,0 l/m 3,8 km/h (1 Bft) NO 46 2 min 0,000 mm 0,0 UV-I 192 W/m 6,4 C 18,2 C 4,8 km/h (1 Bft) 98,11 %
09.04.2017 18:16 18,1 C 43 % 1021,9 hPa 0,0 l/m 2,7 km/h (1 Bft) NO 46 2 min 0,000 mm 0,0 UV-I 185 W/m 5,3 C 18,1 C 4,8 km/h (1 Bft) 96,00 %
09.04.2017 18:19 17,9 C 44 % 1021,9 hPa 0,0 l/m 5,6 km/h (1 Bft) O-NO 60 3 min 0,000 mm 0,0 UV-I 179 W/m 5,5 C 17,9 C 8,0 km/h (2 Bft) 95,71 %
09.04.2017 18:20 17,9 C 45 % 1021,9 hPa 0,0 l/m 6,4 km/h (2 Bft) NO 56 1 min 0,000 mm 0,0 UV-I 173 W/m 5,8 C 17,9 C 8,0 km/h (2 Bft) 100,00 %
09.04.2017 18:22 18,0 C 44 % 1021,9 hPa 0,0 l/m 5,4 km/h (1 Bft) NO 42 2 min 0,000 mm 0,0 UV-I 169 W/m 5,6 C 18,0 C 8,0 km/h (2 Bft) 95,74 %
09.04.2017 18:24 17,9 C 43 % 1021,9 hPa 0,0 l/m 5,3 km/h (1 Bft) O-NO 69 2 min 0,000 mm 0,0 UV-I 163 W/m 5,1 C 17,9 C 8,0 km/h (2 Bft) 95,12 %
09.04.2017 18:26 18,1 C 41 % 1021,9 hPa 0,0 l/m 5,6 km/h (1 Bft) NO 38 2 min 0,000 mm 0,0 UV-I 158 W/m 4,6 C 18,1 C 8,0 km/h (2 Bft) 96,23 %
09.04.2017 18:28 17,9 C 44 % 1021,9 hPa 0,0 l/m 4,5 km/h (1 Bft) NO 38 2 min 0,000 mm 0,0 UV-I 153 W/m 5,5 C 17,9 C 6,4 km/h (2 Bft) 97,37 %
09.04.2017 18:30 17,9 C 44 % 1021,9 hPa 0,0 l/m 5,3 km/h (1 Bft) NO 43 2 min 0,000 mm 0,0 UV-I 147 W/m 5,5 C 17,9 C 6,4 km/h (2 Bft) 94,00 %
09.04.2017 18:32 17,8 C 45 % 1021,8 hPa 0,0 l/m 3,3 km/h (1 Bft) NO 43 2 min 0,000 mm 0,0 UV-I 141 W/m 5,7 C 17,8 C 4,8 km/h (1 Bft) 92,68 %
09.04.2017 18:34 17,7 C 46 % 1021,8 hPa 0,0 l/m 6,2 km/h (2 Bft) N-NO 30 2 min 0,000 mm 0,0 UV-I 137 W/m 5,9 C 17,7 C 12,9 km/h (3 Bft) 96,00 %
09.04.2017 18:36 17,5 C 44 % 1021,8 hPa 0,0 l/m 6,7 km/h (2 Bft) NO 34 2 min 0,000 mm 0,0 UV-I 131 W/m 5,1 C 17,4 C 8,0 km/h (2 Bft) 96,23 %
09.04.2017 18:38 17,4 C 43 % 1021,8 hPa 0,0 l/m 5,0 km/h (1 Bft) NO 40 2 min 0,000 mm 0,0 UV-I 126 W/m 4,7 C 17,4 C 8,0 km/h (2 Bft) 92,11 %
09.04.2017 18:40 17,4 C 45 % 1021,9 hPa 0,0 l/m 4,3 km/h (1 Bft) NO 43 2 min 0,000 mm 0,0 UV-I 120 W/m 5,3 C 17,4 C 6,4 km/h (2 Bft) 92,45 %
09.04.2017 18:42 17,4 C 48 % 1021,9 hPa 0,0 l/m 5,9 km/h (2 Bft) O-NO 57 2 min 0,000 mm 0,0 UV-I 115 W/m 6,3 C 17,4 C 8,0 km/h (2 Bft) 94,00 %
09.04.2017 18:44 17,4 C 46 % 1021,9 hPa 0,0 l/m 5,3 km/h (1 Bft) NO 46 2 min 0,000 mm 0,0 UV-I 111 W/m 5,7 C 17,4 C 8,0 km/h (2 Bft) 97,44 %
09.04.2017 18:46 17,4 C 48 % 1021,8 hPa 0,0 l/m 4,1 km/h (1 Bft) O-NO 62 2 min 0,000 mm 0,0 UV-I 105 W/m 6,3 C 17,4 C 6,4 km/h (2 Bft) 92,59 %
09.04.2017 18:48 17,4 C 47 % 1021,9 hPa 0,0 l/m 3,4 km/h (1 Bft) O-NO 62 2 min 0,000 mm 0,0 UV-I 101 W/m 6,0 C 17,4 C 4,8 km/h (1 Bft) 94,44 %
09.04.2017 18:50 17,4 C 48 % 1021,8 hPa 0,0 l/m 3,9 km/h (1 Bft) O-NO 61 2 min 0,000 mm 0,0 UV-I 97 W/m 6,3 C 17,4 C 6,4 km/h (2 Bft) 98,21 %
09.04.2017 18:52 17,3 C 50 % 1021,8 hPa 0,0 l/m 2,8 km/h (1 Bft) O-NO 61 2 min 0,000 mm 0,0 UV-I 93 W/m 6,8 C 17,3 C 4,8 km/h (1 Bft) 95,12 %
09.04.2017 18:54 17,2 C 50 % 1021,8 hPa 0,0 l/m 3,6 km/h (1 Bft) O-NO 61 2 min 0,000 mm 0,0 UV-I 89 W/m 6,7 C 17,2 C 4,8 km/h (1 Bft) 92,86 %
09.04.2017 18:56 17,1 C 51 % 1021,8 hPa 0,0 l/m 2,8 km/h (1 Bft) O-NO 61 2 min 0,000 mm 0,0 UV-I 84 W/m 6,9 C 17,1 C 4,8 km/h (1 Bft) 100,00 %
09.04.2017 18:58 16,9 C 52 % 1021,7 hPa 0,0 l/m 1,6 km/h (1 Bft) O-NO 61 2 min 0,000 mm 0,0 UV-I 79 W/m 7,0 C 16,9 C 3,2 km/h (1 Bft) 94,00 %
09.04.2017 19:00 16,8 C 53 % 1021,8 hPa 0,0 l/m 2,4 km/h (1 Bft) O-NO 61 2 min 0,127 mm 0,0 UV-I 74 W/m 7,2 C 16,8 C 3,2 km/h (1 Bft) 97,87 %
09.04.2017 19:02 16,8 C 52 % 1021,8 hPa 0,0 l/m 3,0 km/h (1 Bft) O-NO 61 2 min 0,000 mm 0,0 UV-I 69 W/m 6,9 C 16,8 C 4,8 km/h (1 Bft) 92,00 %
09.04.2017 19:04 16,8 C 48 % 1021,8 hPa 0,0 l/m 2,7 km/h (1 Bft) O-NO 61 2 min 0,000 mm 0,0 UV-I 64 W/m 5,7 C 16,8 C 3,2 km/h (1 Bft) 97,37 %
09.04.2017 19:06 16,8 C 49 % 1021,8 hPa 0,0 l/m 2,2 km/h (1 Bft) O-NO 61 2 min 0,000 mm 0,0 UV-I 60 W/m 6,0 C 16,8 C 3,2 km/h (1 Bft) 94,23 %
09.04.2017 19:08 16,7 C 51 % 1021,8 hPa 0,0 l/m 2,7 km/h (1 Bft) O-NO 61 2 min 0,000 mm 0,0 UV-I 56 W/m 6,5 C 16,7 C 4,8 km/h (1 Bft) 92,45 %
09.04.2017 19:10 16,5 C 51 % 1021,8 hPa 0,0 l/m 3,6 km/h (1 Bft) O-NO 61 2 min 0,000 mm 0,0 UV-I 52 W/m 6,3 C 16,5 C 4,8 km/h (1 Bft) 94,74 %
09.04.2017 19:12 16,4 C 50 % 1021,8 hPa 0,0 l/m 4,0 km/h (1 Bft) O-NO 61 2 min 0,000 mm 0,0 UV-I 49 W/m 6,0 C 16,4 C 4,8 km/h (1 Bft) 98,00 %
09.04.2017 19:14 16,3 C 51 % 1021,8 hPa 0,0 l/m 4,0 km/h (1 Bft) O-NO 61 2 min 0,000 mm 0,0 UV-I 46 W/m 6,1 C 16,3 C 4,8 km/h (1 Bft) 98,00 %
09.04.2017 19:16 16,3 C 50 % 1021,8 hPa 0,0 l/m 3,9 km/h (1 Bft) O-NO 71 2 min 0,000 mm 0,0 UV-I 42 W/m 5,9 C 16,3 C 6,4 km/h (2 Bft) 94,74 %
09.04.2017 19:18 16,2 C 51 % 1021,8 hPa 0,0 l/m 5,1 km/h (1 Bft) O-NO 75 2 min 0,000 mm 0,0 UV-I 39 W/m 6,1 C 16,2 C 6,4 km/h (2 Bft) 90,57 %
09.04.2017 19:20 16,1 C 52 % 1021,8 hPa 0,0 l/m 4,5 km/h (1 Bft) O-NO 75 2 min 0,000 mm 0,0 UV-I 35 W/m 6,2 C 16,1 C 6,4 km/h (2 Bft) 92,00 %
09.04.2017 19:22 15,9 C 52 % 1021,8 hPa 0,0 l/m 4,9 km/h (1 Bft) O-NO 77 2 min 0,000 mm 0,0 UV-I 33 W/m 6,1 C 15,9 C 6,4 km/h (2 Bft) 97,44 %
09.04.2017 19:24 15,8 C 53 % 1021,8 hPa 0,0 l/m 3,8 km/h (1 Bft) O-NO 77 2 min 0,000 mm 0,0 UV-I 29 W/m 6,2 C 15,8 C 6,4 km/h (2 Bft) 91,49 %
09.04.2017 19:26 15,7 C 52 % 1021,8 hPa 0,0 l/m 4,2 km/h (1 Bft) O-NO 77 2 min 0,000 mm 0,0 UV-I 27 W/m 5,9 C 15,7 C 6,4 km/h (2 Bft) 96,00 %
09.04.2017 19:28 15,6 C 52 % 1021,8 hPa 0,0 l/m 3,9 km/h (1 Bft) O-NO 77 2 min 0,000 mm 0,0 UV-I 24 W/m 5,8 C 15,6 C 6,4 km/h (2 Bft) 94,00 %
09.04.2017 19:30 15,6 C 53 % 1021,8 hPa 0,0 l/m 4,8 km/h (1 Bft) O-NO 77 2 min 0,000 mm 0,0 UV-I 22 W/m 6,1 C 15,6 C 6,4 km/h (2 Bft) 96,00 %
09.04.2017 19:32 15,6 C 53 % 1021,8 hPa 0,0 l/m 4,9 km/h (1 Bft) O-NO 77 2 min 0,000 mm 0,0 UV-I 20 W/m 6,1 C 15,6 C 6,4 km/h (2 Bft) 92,11 %
09.04.2017 19:34 15,6 C 52 % 1021,8 hPa 0,0 l/m 4,0 km/h (1 Bft) O-NO 77 2 min 0,000 mm 0,0 UV-I 16 W/m 5,8 C 15,6 C 6,4 km/h (2 Bft) 91,49 %
09.04.2017 19:36 15,6 C 53 % 1021,8 hPa 0,0 l/m 2,9 km/h (1 Bft) O-NO 77 0 min 0,000 mm 0,0 UV-I 15 W/m 6,1 C 15,6 C 4,8 km/h (1 Bft) 88,00 %
09.04.2017 19:38 15,4 C 54 % 1021,8 hPa 0,0 l/m 3,8 km/h (1 Bft) O-NO 77 0 min 0,000 mm 0,0 UV-I 14 W/m 6,1 C 15,4 C 4,8 km/h (1 Bft) 93,62 %
09.04.2017 19:40 15,3 C 53 % 1021,8 hPa 0,0 l/m 3,3 km/h (1 Bft) O-NO 77 0 min 0,000 mm 0,0 UV-I 12 W/m 5,8 C 15,3 C 4,8 km/h (1 Bft) 90,00 %
09.04.2017 19:42 15,2 C 54 % 1021,8 hPa 0,0 l/m 3,1 km/h (1 Bft) O-NO 77 0 min 0,000 mm 0,0 UV-I 11 W/m 6,0 C 15,2 C 4,8 km/h (1 Bft) 95,12 %
09.04.2017 19:44 15,0 C 56 % 1021,8 hPa 0,0 l/m 3,3 km/h (1 Bft) O-NO 77 0 min 0,000 mm 0,0 UV-I 11 W/m 6,3 C 15,0 C 4,8 km/h (1 Bft) 96,23 %
09.04.2017 19:46 14,7 C 56 % 1021,7 hPa 0,0 l/m 2,9 km/h (1 Bft) O-NO 77 0 min 0,000 mm 0,0 UV-I 9 W/m 6,0 C 14,7 C 4,8 km/h (1 Bft) 91,43 %
09.04.2017 19:48 14,4 C 57 % 1021,8 hPa 0,0 l/m 4,0 km/h (1 Bft) O-NO 77 0 min 0,000 mm 0,0 UV-I 9 W/m 6,0 C 14,4 C 6,4 km/h (2 Bft) 84,75 %
09.04.2017 19:50 14,2 C 58 % 1021,8 hPa 0,0 l/m 3,8 km/h (1 Bft) O-NO 77 0 min 0,000 mm 0,0 UV-I 7 W/m 6,1 C 14,2 C 4,8 km/h (1 Bft) 92,68 %
09.04.2017 19:52 13,9 C 60 % 1021,8 hPa 0,0 l/m 3,2 km/h (1 Bft) O-NO 77 0 min 0,000 mm 0,0 UV-I 7 W/m 6,3 C 13,9 C 4,8 km/h (1 Bft) 95,74 %
09.04.2017 19:54 13,8 C 60 % 1021,8 hPa 0,0 l/m 3,1 km/h (1 Bft) O-NO 77 0 min 0,000 mm 0,0 UV-I 6 W/m 6,2 C 13,8 C 4,8 km/h (1 Bft) 94,34 %
09.04.2017 19:56 13,7 C 60 % 1021,8 hPa 0,0 l/m 2,5 km/h (1 Bft) O-NO 77 0 min 0,000 mm 0,0 UV-I 5 W/m 6,1 C 13,7 C 4,8 km/h (1 Bft) 92,68 %
09.04.2017 19:58 13,5 C 62 % 1021,8 hPa 0,0 l/m 3,3 km/h (1 Bft) O-NO 77 0 min 0,000 mm 0,0 UV-I 5 W/m 6,4 C 13,5 C 4,8 km/h (1 Bft) 94,00 %
09.04.2017 20:00 13,4 C 62 % 1021,8 hPa 0,0 l/m 3,1 km/h (1 Bft) O-NO 77 0 min 0,050 mm 0,0 UV-I 5 W/m 6,3 C 13,4 C 4,8 km/h (1 Bft) 92,31 %
09.04.2017 20:02 13,3 C 64 % 1021,8 hPa 0,0 l/m 3,4 km/h (1 Bft) O-NO 77 0 min 0,000 mm 0,0 UV-I 3 W/m 6,6 C 13,3 C 4,8 km/h (1 Bft) 94,23 %
09.04.2017 20:04 13,2 C 66 % 1021,8 hPa 0,0 l/m 3,7 km/h (1 Bft) O-NO 77 0 min 0,000 mm 0,0 UV-I 0 W/m 7,0 C 13,2 C 4,8 km/h (1 Bft) 88,89 %
09.04.2017 20:06 13,1 C 63 % 1021,8 hPa 0,0 l/m 3,8 km/h (1 Bft) O-NO 77 0 min 0,000 mm 0,0 UV-I 0 W/m 6,2 C 13,1 C 6,4 km/h (2 Bft) 94,92 %
09.04.2017 20:08 13,0 C 68 % 1021,8 hPa 0,0 l/m 3,3 km/h (1 Bft) O-NO 77 0 min 0,000 mm 0,0 UV-I 0 W/m 7,2 C 13,0 C 4,8 km/h (1 Bft) 97,56 %
09.04.2017 20:10 12,8 C 68 % 1021,8 hPa 0,0 l/m 3,0 km/h (1 Bft) O-NO 77 0 min 0,000 mm 0,0 UV-I 0 W/m 7,0 C 12,8 C 4,8 km/h (1 Bft) 93,62 %
09.04.2017 20:13 12,6 C 70 % 1021,8 hPa 0,0 l/m 3,1 km/h (1 Bft) O-NO 77 0 min 0,000 mm 0,0 UV-I 0 W/m 7,3 C 12,6 C 4,8 km/h (1 Bft) 97,47 %
09.04.2017 20:14 12,6 C 71 % 1021,8 hPa 0,0 l/m 2,8 km/h (1 Bft) O-NO 77 0 min 0,000 mm 0,0 UV-I 0 W/m 7,5 C 12,6 C 4,8 km/h (1 Bft) 100,00 %
09.04.2017 20:16 12,4 C 71 % 1021,8 hPa 0,0 l/m 3,3 km/h (1 Bft) O-NO 77 0 min 0,000 mm 0,0 UV-I 0 W/m 7,3 C 12,4 C 4,8 km/h (1 Bft) 94,92 %
09.04.2017 20:18 12,3 C 69 % 1021,8 hPa 0,0 l/m 3,6 km/h (1 Bft) O-NO 77 0 min 0,000 mm 0,0 UV-I 0 W/m 6,8 C 12,3 C 4,8 km/h (1 Bft) 91,49 %
09.04.2017 20:20 12,3 C 69 % 1021,8 hPa 0,0 l/m 4,0 km/h (1 Bft) O-NO 78 0 min 0,000 mm 0,0 UV-I 0 W/m 6,8 C 12,3 C 4,8 km/h (1 Bft) 97,37 %
09.04.2017 20:22 12,3 C 67 % 1021,8 hPa 0,0 l/m 3,7 km/h (1 Bft) O-NO 78 0 min 0,000 mm 0,0 UV-I 0 W/m 6,4 C 12,3 C 4,8 km/h (1 Bft) 98,00 %
09.04.2017 20:24 12,3 C 68 % 1021,8 hPa 0,0 l/m 4,2 km/h (1 Bft) O-NO 78 0 min 0,000 mm 0,0 UV-I 0 W/m 6,6 C 12,3 C 6,4 km/h (2 Bft) 95,74 %
09.04.2017 20:26 12,3 C 67 % 1021,8 hPa 0,0 l/m 3,2 km/h (1 Bft) O-NO 78 0 min 0,000 mm 0,0 UV-I 0 W/m 6,4 C 12,3 C 4,8 km/h (1 Bft) 98,00 %
09.04.2017 20:28 12,3 C 68 % 1021,8 hPa 0,0 l/m 2,9 km/h (1 Bft) O-NO 78 0 min 0,000 mm 0,0 UV-I 0 W/m 6,6 C 12,3 C 4,8 km/h (1 Bft) 96,00 %
09.04.2017 20:30 12,2 C 69 % 1021,8 hPa 0,0 l/m 2,2 km/h (1 Bft) O-NO 78 0 min 0,000 mm 0,0 UV-I 0 W/m 6,7 C 12,2 C 3,2 km/h (1 Bft) 97,37 %
09.04.2017 20:32 12,2 C 68 % 1021,8 hPa 0,0 l/m 2,6 km/h (1 Bft) O-NO 78 0 min 0,000 mm 0,0 UV-I 0 W/m 6,5 C 12,2 C 3,2 km/h (1 Bft) 100,00 %
09.04.2017 20:34 12,2 C 67 % 1021,8 hPa 0,0 l/m 2,5 km/h (1 Bft) O-NO 78 0 min 0,000 mm 0,0 UV-I 0 W/m 6,3 C 12,2 C 3,2 km/h (1 Bft) 100,00 %
09.04.2017 20:36 12,2 C 67 % 1021,8 hPa 0,0 l/m 2,5 km/h (1 Bft) O-NO 78 0 min 0,000 mm 0,0 UV-I 0 W/m 6,3 C 12,2 C 3,2 km/h (1 Bft) 98,11 %
09.04.2017 20:38 12,1 C 68 % 1021,8 hPa 0,0 l/m 2,8 km/h (1 Bft) O-NO 78 0 min 0,000 mm 0,0 UV-I 0 W/m 6,4 C 12,1 C 4,8 km/h (1 Bft) 96,00 %
09.04.2017 20:40 12,1 C 69 % 1021,9 hPa 0,0 l/m 2,6 km/h (1 Bft) O-NO 78 0 min 0,000 mm 0,0 UV-I 0 W/m 6,6 C 12,1 C 3,2 km/h (1 Bft) 94,00 %
09.04.2017 20:42 12,1 C 68 % 1021,9 hPa 0,0 l/m 2,8 km/h (1 Bft) O-NO 78 0 min 0,000 mm 0,0 UV-I 0 W/m 6,4 C 12,1 C 4,8 km/h (1 Bft) 100,00 %
09.04.2017 20:44 12,1 C 68 % 1021,8 hPa 0,0 l/m 2,4 km/h (1 Bft) O-NO 78 0 min 0,000 mm 0,0 UV-I 0 W/m 6,4 C 12,1 C 3,2 km/h (1 Bft) 98,08 %
09.04.2017 20:46 12,0 C 68 % 1021,8 hPa 0,0 l/m 1,8 km/h (1 Bft) O-NO 78 0 min 0,000 mm 0,0 UV-I 0 W/m 6,3 C 12,0 C 4,8 km/h (1 Bft) 94,87 %
09.04.2017 20:48 11,9 C 70 % 1021,8 hPa 0,0 l/m 0,9 km/h (0 Bft) O-NO 78 0 min 0,000 mm 0,0 UV-I 0 W/m 6,6 C 11,9 C 3,2 km/h (1 Bft) 93,18 %
09.04.2017 20:50 11,8 C 70 % 1021,8 hPa 0,0 l/m 2,2 km/h (1 Bft) O-NO 78 0 min 0,000 mm 0,0 UV-I 0 W/m 6,5 C 11,8 C 3,2 km/h (1 Bft) 98,11 %
09.04.2017 20:52 11,7 C 70 % 1021,8 hPa 0,0 l/m 2,4 km/h (1 Bft) O-NO 78 0 min 0,000 mm 0,0 UV-I 0 W/m 6,4 C 11,7 C 3,2 km/h (1 Bft) 95,74 %
09.04.2017 20:54 11,6 C 69 % 1021,9 hPa 0,0 l/m 2,4 km/h (1 Bft) O-NO 78 0 min 0,000 mm 0,0 UV-I 0 W/m 6,1 C 11,6 C 3,2 km/h (1 Bft) 97,87 %
09.04.2017 20:56 11,6 C 69 % 1021,8 hPa 0,0 l/m 2,4 km/h (1 Bft) O-NO 78 0 min 0,000 mm 0,0 UV-I 0 W/m 6,1 C 11,6 C 4,8 km/h (1 Bft) 97,87 %
09.04.2017 20:58 11,6 C 69 % 1021,8 hPa 0,0 l/m 2,7 km/h (1 Bft) O-NO 78 0 min 0,000 mm 0,0 UV-I 0 W/m 6,1 C 11,6 C 4,8 km/h (1 Bft) 96,00 %
09.04.2017 21:00 11,6 C 69 % 1021,9 hPa 0,0 l/m 2,9 km/h (1 Bft) O-NO 78 0 min 0,000 mm 0,0 UV-I 0 W/m 6,1 C 11,6 C 4,8 km/h (1 Bft) 95,12 %
09.04.2017 21:02 11,5 C 70 % 1021,9 hPa 0,0 l/m 2,3 km/h (1 Bft) O-NO 78 0 min 0,026 mm 0,0 UV-I 0 W/m 6,2 C 11,5 C 3,2 km/h (1 Bft) 96,00 %
09.04.2017 21:04 11,4 C 71 % 1021,9 hPa 0,0 l/m 1,3 km/h (1 Bft) O-NO 78 0 min 0,000 mm 0,0 UV-I 0 W/m 6,3 C 11,4 C 3,2 km/h (1 Bft) 100,00 %
09.04.2017 21:06 11,4 C 70 % 1021,9 hPa 0,0 l/m 1,3 km/h (1 Bft) O-NO 78 0 min 0,000 mm 0,0 UV-I 0 W/m 6,1 C 11,4 C 3,2 km/h (1 Bft) 84,21 %
09.04.2017 21:08 11,3 C 71 % 1021,9 hPa 0,0 l/m 0,3 km/h (0 Bft) O-NO 78 0 min 0,000 mm 0,0 UV-I 0 W/m 6,2 C 11,3 C 1,6 km/h (1 Bft) 97,87 %
09.04.2017 21:10 11,3 C 71 % 1021,9 hPa 0,0 l/m 0,2 km/h (0 Bft) O-NO 78 0 min 0,000 mm 0,0 UV-I 0 W/m 6,2 C 11,3 C 1,6 km/h (1 Bft) 98,11 %
09.04.2017 21:12 11,3 C 70 % 1021,9 hPa 0,0 l/m 0,0 km/h (0 Bft) O-NO 78 0 min 0,000 mm 0,0 UV-I 0 W/m 6,0 C 11,3 C 0,0 km/h (0 Bft) 98,00 %
09.04.2017 21:14 11,3 C 71 % 1021,9 hPa 0,0 l/m 0,0 km/h (0 Bft) O-NO 78 0 min 0,000 mm 0,0 UV-I 0 W/m 6,2 C 11,3 C 0,0 km/h (0 Bft) 97,14 %
09.04.2017 21:16 11,3 C 70 % 1021,9 hPa 0,0 l/m 0,1 km/h (0 Bft) O-NO 78 0 min 0,000 mm 0,0 UV-I 0 W/m 6,0 C 11,3 C 1,6 km/h (1 Bft) 90,48 %
09.04.2017 21:18 11,3 C 71 % 1021,9 hPa 0,0 l/m 1,3 km/h (1 Bft) O-NO 78 0 min 0,000 mm 0,0 UV-I 0 W/m 6,2 C 11,3 C 3,2 km/h (1 Bft) 96,55 %
09.04.2017 21:20 11,2 C 71 % 1021,9 hPa 0,0 l/m 0,0 km/h (0 Bft) O-NO 78 0 min 0,000 mm 0,0 UV-I 0 W/m 6,1 C 11,2 C 0,0 km/h (0 Bft) 100,00 %
09.04.2017 21:22 11,1 C 72 % 1021,9 hPa 0,0 l/m 0,1 km/h (0 Bft) O-NO 78 0 min 0,000 mm 0,0 UV-I 0 W/m 6,2 C 11,1 C 1,6 km/h (1 Bft) 96,00 %
09.04.2017 21:24 10,9 C 72 % 1021,9 hPa 0,0 l/m 2,1 km/h (1 Bft) O-NO 78 0 min 0,000 mm 0,0 UV-I 0 W/m 6,1 C 10,9 C 3,2 km/h (1 Bft) 93,62 %
09.04.2017 21:26 10,8 C 72 % 1021,9 hPa 0,0 l/m 2,4 km/h (1 Bft) O-NO 78 0 min 0,000 mm 0,0 UV-I 0 W/m 6,0 C 10,8 C 3,2 km/h (1 Bft) 91,67 %
09.04.2017 21:28 10,8 C 72 % 1021,9 hPa 0,0 l/m 2,7 km/h (1 Bft) O-NO 78 0 min 0,000 mm 0,0 UV-I 0 W/m 6,0 C 10,8 C 4,8 km/h (1 Bft) 100,00 %
09.04.2017 21:30 10,8 C 73 % 1021,9 hPa 0,0 l/m 2,4 km/h (1 Bft) O-NO 78 0 min 0,000 mm 0,0 UV-I 0 W/m 6,2 C 10,8 C 3,2 km/h (1 Bft) 97,56 %
09.04.2017 21:32 10,7 C 74 % 1021,9 hPa 0,0 l/m 2,3 km/h (1 Bft) O-NO 78 0 min 0,000 mm 0,0 UV-I 0 W/m 6,3 C 10,7 C 4,8 km/h (1 Bft) 94,34 %
09.04.2017 21:34 10,7 C 73 % 1021,9 hPa 0,0 l/m 3,3 km/h (1 Bft) O-NO 78 0 min 0,000 mm 0,0 UV-I 0 W/m 6,1 C 10,7 C 4,8 km/h (1 Bft) 98,00 %
09.04.2017 21:36 10,7 C 73 % 1021,9 hPa 0,0 l/m 2,2 km/h (1 Bft) O-NO 78 0 min 0,000 mm 0,0 UV-I 0 W/m 6,1 C 10,7 C 3,2 km/h (1 Bft) 94,74 %
09.04.2017 21:38 10,6 C 72 % 1021,9 hPa 0,0 l/m 2,2 km/h (1 Bft) O-NO 78 0 min 0,000 mm 0,0 UV-I 0 W/m 5,8 C 10,6 C 3,2 km/h (1 Bft) 93,62 %
09.04.2017 21:40 10,5 C 73 % 1021,9 hPa 0,0 l/m 1,9 km/h (1 Bft) O-NO 78 0 min 0,000 mm 0,0 UV-I 0 W/m 5,9 C 10,5 C 3,2 km/h (1 Bft) 96,23 %
09.04.2017 21:42 10,4 C 73 % 1021,8 hPa 0,0 l/m 2,5 km/h (1 Bft) O-NO 78 0 min 0,000 mm 0,0 UV-I 0 W/m 5,8 C 10,4 C 4,8 km/h (1 Bft) 94,74 %
09.04.2017 21:44 10,4 C 72 % 1021,9 hPa 0,0 l/m 2,7 km/h (1 Bft) O-NO 78 0 min 0,000 mm 0,0 UV-I 0 W/m 5,6 C 10,4 C 4,8 km/h (1 Bft) 94,34 %
09.04.2017 21:46 10,4 C 73 % 1021,8 hPa 0,0 l/m 2,9 km/h (1 Bft) O-NO 78 0 min 0,000 mm 0,0 UV-I 0 W/m 5,8 C 10,4 C 4,8 km/h (1 Bft) 97,56 %
09.04.2017 21:48 10,5 C 72 % 1021,9 hPa 0,0 l/m 2,7 km/h (1 Bft) O-NO 78 0 min 0,000 mm 0,0 UV-I 0 W/m 5,7 C 10,5 C 4,8 km/h (1 Bft) 96,43 %
09.04.2017 21:50 10,6 C 70 % 1021,9 hPa 0,0 l/m 2,3 km/h (1 Bft) O-NO 78 0 min 0,000 mm 0,0 UV-I 0 W/m 5,4 C 10,6 C 3,2 km/h (1 Bft) 100,00 %
09.04.2017 21:52 10,7 C 70 % 1021,9 hPa 0,0 l/m 1,8 km/h (1 Bft) O-NO 78 0 min 0,000 mm 0,0 UV-I 0 W/m 5,5 C 10,7 C 3,2 km/h (1 Bft) 96,00 %
09.04.2017 21:54 10,8 C 69 % 1021,9 hPa 0,0 l/m 0,9 km/h (0 Bft) O-NO 78 0 min 0,000 mm 0,0 UV-I 0 W/m 5,3 C 10,8 C 3,2 km/h (1 Bft) 95,74 %
09.04.2017 21:56 10,9 C 69 % 1021,9 hPa 0,0 l/m 1,6 km/h (1 Bft) O-NO 78 0 min 0,000 mm 0,0 UV-I 0 W/m 5,4 C 10,9 C 4,8 km/h (1 Bft) 98,00 %
09.04.2017 21:58 10,9 C 67 % 1021,9 hPa 0,0 l/m 2,5 km/h (1 Bft) O-NO 78 0 min 0,000 mm 0,0 UV-I 0 W/m 5,0 C 10,9 C 4,8 km/h (1 Bft) 89,74 %
09.04.2017 22:00 11,1 C 67 % 1021,9 hPa 0,0 l/m 0,3 km/h (0 Bft) O-NO 78 0 min 0,000 mm 0,0 UV-I 0 W/m 5,2 C 11,1 C 1,6 km/h (1 Bft) 97,96 %
09.04.2017 22:02 11,1 C 67 % 1021,8 hPa 0,0 l/m 0,3 km/h (0 Bft) O-NO 78 0 min 0,000 mm 0,0 UV-I 0 W/m 5,2 C 11,1 C 1,6 km/h (1 Bft) 94,55 %
09.04.2017 22:04 11,0 C 69 % 1021,8 hPa 0,0 l/m 1,8 km/h (1 Bft) O-NO 78 0 min 0,000 mm 0,0 UV-I 0 W/m 5,5 C 11,0 C 3,2 km/h (1 Bft) 88,89 %
09.04.2017 22:06 10,9 C 70 % 1021,8 hPa 0,0 l/m 3,1 km/h (1 Bft) O-NO 78 0 min 0,000 mm 0,0 UV-I 0 W/m 5,6 C 10,9 C 4,8 km/h (1 Bft) 87,80 %
09.04.2017 22:08 10,8 C 72 % 1021,8 hPa 0,0 l/m 5,1 km/h (1 Bft) O-NO 74 0 min 0,000 mm 0,0 UV-I 0 W/m 6,0 C 10,8 C 11,3 km/h (2 Bft) 96,77 %
09.04.2017 22:10 10,6 C 73 % 1021,8 hPa 0,0 l/m 3,8 km/h (1 Bft) O 88 0 min 0,000 mm 0,0 UV-I 0 W/m 6,0 C 10,6 C 8,0 km/h (2 Bft) 95,74 %
09.04.2017 22:12 10,6 C 73 % 1021,8 hPa 0,0 l/m 4,2 km/h (1 Bft) O 88 0 min 0,000 mm 0,0 UV-I 0 W/m 6,0 C 10,6 C 8,0 km/h (2 Bft) 97,37 %
09.04.2017 22:14 10,6 C 73 % 1021,8 hPa 0,0 l/m 5,4 km/h (1 Bft) O-NO 74 0 min 0,000 mm 0,0 UV-I 0 W/m 6,0 C 10,6 C 8,0 km/h (2 Bft) 91,49 %
09.04.2017 22:16 10,6 C 72 % 1021,9 hPa 0,0 l/m 4,0 km/h (1 Bft) O 85 0 min 0,000 mm 0,0 UV-I 0 W/m 5,8 C 10,6 C 8,0 km/h (2 Bft) 94,64 %
09.04.2017 22:18 10,7 C 71 % 1021,8 hPa 0,0 l/m 5,3 km/h (1 Bft) O-NO 78 0 min 0,000 mm 0,0 UV-I 0 W/m 5,7 C 10,7 C 8,0 km/h (2 Bft) 94,74 %
09.04.2017 22:20 10,7 C 71 % 1021,8 hPa 0,0 l/m 3,7 km/h (1 Bft) O-NO 78 0 min 0,000 mm 0,0 UV-I 0 W/m 5,7 C 10,7 C 6,4 km/h (2 Bft) 98,00 %
09.04.2017 22:22 10,7 C 72 % 1021,8 hPa 0,0 l/m 3,1 km/h (1 Bft) O-NO 77 0 min 0,000 mm 0,0 UV-I 0 W/m 5,9 C 10,7 C 4,8 km/h (1 Bft) 94,34 %
09.04.2017 22:24 10,7 C 72 % 1021,8 hPa 0,0 l/m 3,5 km/h (1 Bft) O 82 0 min 0,000 mm 0,0 UV-I 0 W/m 5,9 C 10,7 C 6,4 km/h (2 Bft) 93,18 %
09.04.2017 22:26 10,6 C 72 % 1021,8 hPa 0,0 l/m 2,3 km/h (1 Bft) O 82 0 min 0,000 mm 0,0 UV-I 0 W/m 5,8 C 10,6 C 3,2 km/h (1 Bft) 94,74 %
09.04.2017 22:28 10,5 C 74 % 1021,9 hPa 0,0 l/m 2,0 km/h (1 Bft) O 82 0 min 0,000 mm 0,0 UV-I 0 W/m 6,1 C 10,5 C 3,2 km/h (1 Bft) 95,74 %
09.04.2017 22:30 10,3 C 74 % 1021,9 hPa 0,0 l/m 1,9 km/h (1 Bft) O-NO 71 0 min 0,000 mm 0,0 UV-I 0 W/m 5,9 C 10,3 C 4,8 km/h (1 Bft) 95,74 %
09.04.2017 22:32 10,2 C 74 % 1021,8 hPa 0,0 l/m 1,9 km/h (1 Bft) O-NO 71 0 min 0,000 mm 0,0 UV-I 0 W/m 5,8 C 10,2 C 4,8 km/h (1 Bft) 94,34 %
09.04.2017 22:34 10,1 C 75 % 1021,8 hPa 0,0 l/m 1,0 km/h (0 Bft) O-NO 71 0 min 0,000 mm 0,0 UV-I 0 W/m 5,9 C 10,1 C 3,2 km/h (1 Bft) 95,74 %
09.04.2017 22:36 9,9 C 75 % 1021,8 hPa 0,0 l/m 1,8 km/h (1 Bft) O-NO 78 0 min 0,000 mm 0,0 UV-I 0 W/m 5,7 C 9,9 C 4,8 km/h (1 Bft) 96,00 %
09.04.2017 22:38 9,8 C 76 % 1021,8 hPa 0,0 l/m 1,1 km/h (1 Bft) O-NO 78 0 min 0,000 mm 0,0 UV-I 0 W/m 5,8 C 9,8 C 3,2 km/h (1 Bft) 95,45 %
09.04.2017 22:40 9,7 C 76 % 1021,8 hPa 0,0 l/m 0,0 km/h (0 Bft) O-NO 78 0 min 0,000 mm 0,0 UV-I 0 W/m 5,7 C 9,7 C 0,0 km/h (0 Bft) 98,00 %
09.04.2017 22:42 9,7 C 75 % 1021,8 hPa 0,0 l/m 0,0 km/h (0 Bft) O-NO 78 0 min 0,000 mm 0,0 UV-I 0 W/m 5,5 C 9,7 C 0,0 km/h (0 Bft) 94,44 %
09.04.2017 22:44 9,7 C 75 % 1021,8 hPa 0,0 l/m 1,4 km/h (1 Bft) O-NO 78 0 min 0,000 mm 0,0 UV-I 0 W/m 5,5 C 9,7 C 3,2 km/h (1 Bft) 98,00 %
09.04.2017 22:46 9,7 C 75 % 1021,8 hPa 0,0 l/m 3,1 km/h (1 Bft) O-NO 78 0 min 0,000 mm 0,0 UV-I 0 W/m 5,5 C 9,7 C 3,2 km/h (1 Bft) 90,00 %
09.04.2017 22:48 9,7 C 74 % 1021,8 hPa 0,0 l/m 3,3 km/h (1 Bft) SO 131 0 min 0,000 mm 0,0 UV-I 0 W/m 5,3 C 9,7 C 4,8 km/h (1 Bft) 97,87 %
09.04.2017 22:50 9,8 C 74 % 1021,8 hPa 0,0 l/m 5,1 km/h (1 Bft) S-SW 198 0 min 0,000 mm 0,0 UV-I 0 W/m 5,4 C 9,8 C 6,4 km/h (2 Bft) 97,50 %
09.04.2017 22:52 9,7 C 75 % 1021,8 hPa 0,0 l/m 5,2 km/h (1 Bft) S-SW 198 0 min 0,000 mm 0,0 UV-I 0 W/m 5,5 C 9,7 C 6,4 km/h (2 Bft) 94,55 %
09.04.2017 22:54 9,6 C 76 % 1021,9 hPa 0,0 l/m 5,2 km/h (1 Bft) S-SW 198 0 min 0,000 mm 0,0 UV-I 0 W/m 5,6 C 9,6 C 6,4 km/h (2 Bft) 95,74 %
09.04.2017 22:56 9,4 C 76 % 1021,8 hPa 0,0 l/m 4,9 km/h (1 Bft) S-SW 198 0 min 0,000 mm 0,0 UV-I 0 W/m 5,4 C 9,4 C 6,4 km/h (2 Bft) 100,00 %
09.04.2017 22:58 9,4 C 76 % 1021,8 hPa 0,0 l/m 4,2 km/h (1 Bft) S-SW 198 0 min 0,000 mm 0,0 UV-I 0 W/m 5,4 C 9,4 C 4,8 km/h (1 Bft) 93,85 %
09.04.2017 23:00 9,4 C 76 % 1021,8 hPa 0,0 l/m 3,6 km/h (1 Bft) S-SW 198 0 min 0,000 mm 0,0 UV-I 0 W/m 5,4 C 9,4 C 4,8 km/h (1 Bft) 95,74 %
09.04.2017 23:02 9,5 C 77 % 1021,9 hPa 0,0 l/m 4,2 km/h (1 Bft) S-SW 198 0 min 0,025 mm 0,0 UV-I 0 W/m 5,7 C 9,5 C 4,8 km/h (1 Bft) 97,87 %
09.04.2017 23:04 9,6 C 76 % 1021,8 hPa 0,0 l/m 4,2 km/h (1 Bft) S-SW 198 0 min 0,000 mm 0,0 UV-I 0 W/m 5,6 C 9,6 C 4,8 km/h (1 Bft) 96,00 %
09.04.2017 23:06 9,6 C 76 % 1021,8 hPa 0,0 l/m 4,4 km/h (1 Bft) S-SW 198 0 min 0,000 mm 0,0 UV-I 0 W/m 5,6 C 9,6 C 4,8 km/h (1 Bft) 95,12 %
09.04.2017 23:08 9,6 C 76 % 1021,9 hPa 0,0 l/m 3,4 km/h (1 Bft) S-SW 198 0 min 0,000 mm 0,0 UV-I 0 W/m 5,6 C 9,6 C 4,8 km/h (1 Bft) 95,74 %
09.04.2017 23:10 9,4 C 77 % 1021,8 hPa 0,0 l/m 3,1 km/h (1 Bft) S-SW 198 0 min 0,000 mm 0,0 UV-I 0 W/m 5,6 C 9,4 C 4,8 km/h (1 Bft) 96,43 %
09.04.2017 23:13 9,1 C 78 % 1021,8 hPa 0,0 l/m 1,3 km/h (1 Bft) S-SW 198 0 min 0,000 mm 0,0 UV-I 0 W/m 5,5 C 9,1 C 4,8 km/h (1 Bft) 95,38 %
09.04.2017 23:14 9,1 C 78 % 1021,8 hPa 0,0 l/m 2,9 km/h (1 Bft) S-SW 198 0 min 0,000 mm 0,0 UV-I 0 W/m 5,5 C 9,1 C 3,2 km/h (1 Bft) 91,30 %
09.04.2017 23:16 8,9 C 79 % 1021,8 hPa 0,0 l/m 1,5 km/h (1 Bft) S-SW 198 0 min 0,000 mm 0,0 UV-I 0 W/m 5,5 C 8,9 C 4,8 km/h (1 Bft) 98,00 %
09.04.2017 23:18 8,9 C 79 % 1021,8 hPa 0,0 l/m 1,6 km/h (1 Bft) S-SW 198 0 min 0,000 mm 0,0 UV-I 0 W/m 5,5 C 8,9 C 4,8 km/h (1 Bft) 97,87 %
09.04.2017 23:20 8,9 C 79 % 1021,8 hPa 0,0 l/m 3,1 km/h (1 Bft) S-SW 198 0 min 0,000 mm 0,0 UV-I 0 W/m 5,5 C 8,9 C 4,8 km/h (1 Bft) 97,87 %
09.04.2017 23:22 8,9 C 79 % 1021,8 hPa 0,0 l/m 3,7 km/h (1 Bft) S-SW 198 0 min 0,000 mm 0,0 UV-I 0 W/m 5,5 C 8,9 C 4,8 km/h (1 Bft) 97,22 %
09.04.2017 23:24 8,9 C 79 % 1021,8 hPa 0,0 l/m 2,7 km/h (1 Bft) S-SW 198 0 min 0,000 mm 0,0 UV-I 0 W/m 5,5 C 8,9 C 3,2 km/h (1 Bft) 98,00 %
09.04.2017 23:26 8,9 C 79 % 1021,8 hPa 0,0 l/m 2,3 km/h (1 Bft) S-SW 198 0 min 0,000 mm 0,0 UV-I 0 W/m 5,5 C 8,9 C 3,2 km/h (1 Bft) 96,23 %
09.04.2017 23:28 8,8 C 79 % 1021,8 hPa 0,0 l/m 2,2 km/h (1 Bft) S-SW 198 0 min 0,000 mm 0,0 UV-I 0 W/m 5,4 C 8,8 C 3,2 km/h (1 Bft) 97,73 %
09.04.2017 23:30 8,8 C 79 % 1021,8 hPa 0,0 l/m 2,7 km/h (1 Bft) S-SW 198 0 min 0,000 mm 0,0 UV-I 0 W/m 5,4 C 8,8 C 3,2 km/h (1 Bft) 96,23 %
09.04.2017 23:32 8,8 C 79 % 1021,9 hPa 0,0 l/m 1,6 km/h (1 Bft) S-SW 198 0 min 0,000 mm 0,0 UV-I 0 W/m 5,4 C 8,8 C 3,2 km/h (1 Bft) 97,14 %
09.04.2017 23:34 8,8 C 80 % 1021,9 hPa 0,0 l/m 2,3 km/h (1 Bft) S-SW 198 0 min 0,000 mm 0,0 UV-I 0 W/m 5,5 C 8,8 C 3,2 km/h (1 Bft) 92,45 %
09.04.2017 23:36 8,8 C 80 % 1021,9 hPa 0,0 l/m 1,9 km/h (1 Bft) S-SW 198 0 min 0,000 mm 0,0 UV-I 0 W/m 5,5 C 8,8 C 3,2 km/h (1 Bft) 95,35 %
09.04.2017 23:38 8,8 C 80 % 1021,8 hPa 0,0 l/m 1,0 km/h (0 Bft) S-SW 198 0 min 0,000 mm 0,0 UV-I 0 W/m 5,5 C 8,8 C 1,6 km/h (1 Bft) 94,34 %
09.04.2017 23:40 8,7 C 80 % 1021,9 hPa 0,0 l/m 0,4 km/h (0 Bft) S-SW 198 0 min 0,000 mm 0,0 UV-I 0 W/m 5,4 C 8,7 C 1,6 km/h (1 Bft) 97,56 %
09.04.2017 23:42 8,6 C 80 % 1021,9 hPa 0,0 l/m 2,4 km/h (1 Bft) S-SW 198 0 min 0,000 mm 0,0 UV-I 0 W/m 5,3 C 8,6 C 3,2 km/h (1 Bft) 96,43 %
09.04.2017 23:44 8,6 C 81 % 1021,9 hPa 0,0 l/m 3,7 km/h (1 Bft) S-SW 198 0 min 0,000 mm 0,0 UV-I 0 W/m 5,5 C 8,6 C 4,8 km/h (1 Bft) 97,14 %
09.04.2017 23:46 8,6 C 80 % 1021,9 hPa 0,0 l/m 3,9 km/h (1 Bft) S-SW 198 0 min 0,000 mm 0,0 UV-I 0 W/m 5,3 C 8,6 C 4,8 km/h (1 Bft) 96,23 %
09.04.2017 23:48 8,6 C 80 % 1021,8 hPa 0,0 l/m 3,5 km/h (1 Bft) S-SW 198 0 min 0,000 mm 0,0 UV-I 0 W/m 5,3 C 8,6 C 4,8 km/h (1 Bft) 96,23 %
09.04.2017 23:50 8,4 C 80 % 1021,9 hPa 0,0 l/m 3,4 km/h (1 Bft) S-SW 198 0 min 0,000 mm 0,0 UV-I 0 W/m 5,2 C 8,4 C 4,8 km/h (1 Bft) 97,14 %
09.04.2017 23:53 8,2 C 81 % 1021,9 hPa 0,0 l/m 3,8 km/h (1 Bft) S-SW 198 0 min 0,000 mm 0,0 UV-I 0 W/m 5,1 C 8,2 C 4,8 km/h (1 Bft) 95,00 %
09.04.2017 23:54 8,1 C 81 % 1021,9 hPa 0,0 l/m 2,9 km/h (1 Bft) S-SW 198 0 min 0,000 mm 0,0 UV-I 0 W/m 5,0 C 8,1 C 3,2 km/h (1 Bft) 100,00 %
09.04.2017 23:56 8,1 C 82 % 1021,8 hPa 0,0 l/m 1,8 km/h (1 Bft) S-SW 198 0 min 0,000 mm 0,0 UV-I 0 W/m 5,2 C 8,1 C 3,2 km/h (1 Bft) 100,00 %
09.04.2017 23:58 8,1 C 82 % 1021,8 hPa 0,0 l/m 0,2 km/h (0 Bft) S-SW 198 0 min 0,000 mm 0,0 UV-I 0 W/m 5,2 C 8,1 C 1,6 km/h (1 Bft) 98,00 %
_ Min-Zeit 06:34 18:08 18:58 - 03:56 - - - - - - 06:34 06:34 03:56 11:14
Minimum _ 3,4 C 39 % 1021,7 hPa - 0,0 km/h (0 Bft) - - - - - - 2,8 C 3,4 C 0,0 km/h (0 Bft) 84,00 %
_ Max-Zeit 16:36 08:28 09:32 00:00 13:04 - - 14:23 14:00 12:36 13:00 12:10 16:36 13:02 00:42
Maximum _ 18,9 C 98 % 1025,2 hPa 0,0 l/m 17,9 km/h
O-NO (3 Bft)
- - 3 min 0,508 mm 3,9 UV-I 794 W/m 10,8 C 18,9 C 25,7 km/h
NO (4 Bft)
100,00 %
Durchschnitt _ 11,3 C 75 % 1023,4 hPa #0,0 l/m 4,0 km/h (1 Bft) O-NO - #13:00 h #3,632 mm 2,4 UV-I 446 W/m 6,3 C 11,1 C 6,7 km/h (2 Bft) 96,77 %